<?xml version='1.0' encoding='UTF-8'?>
<gpx version="1.1" creator="https://www.komoot.de" xmlns="http://www.topografix.com/GPX/1/1" xmlns:xsi="http://www.w3.org/2001/XMLSchema-instance" xsi:schemaLocation="http://www.topografix.com/GPX/1/1 http://www.topografix.com/GPX/1/1/gpx.xsd">
  <metadata>
    <name>56_550AspAnwilLiestal</name>
    <author>
      <link href="https://www.komoot.de">
        <text>komoot</text>
        <type>text/html</type>
      </link>
    </author>
  </metadata>
  <trk>
    <name>56_550AspAnwilLiestal</name>
    <trkseg>
      <trkpt lat="47.541193" lon="7.870971">
        <ele>342.883145</ele>
        <time>2021-11-14T16:14:44.562Z</time>
      </trkpt>
      <trkpt lat="47.540933" lon="7.871187">
        <ele>342.883145</ele>
        <time>2021-11-14T16:14:51.334Z</time>
      </trkpt>
      <trkpt lat="47.540894" lon="7.871220">
        <ele>342.883145</ele>
        <time>2021-11-14T16:14:52.462Z</time>
      </trkpt>
      <trkpt lat="47.540693" lon="7.871390">
        <ele>342.883145</ele>
        <time>2021-11-14T16:14:57.863Z</time>
      </trkpt>
      <trkpt lat="47.540463" lon="7.871584">
        <ele>342.883145</ele>
        <time>2021-11-14T16:15:04.042Z</time>
      </trkpt>
      <trkpt lat="47.540265" lon="7.871808">
        <ele>343.215960</ele>
        <time>2021-11-14T16:15:09.516Z</time>
      </trkpt>
      <trkpt lat="47.540216" lon="7.871851">
        <ele>343.316274</ele>
        <time>2021-11-14T16:15:10.980Z</time>
      </trkpt>
      <trkpt lat="47.540034" lon="7.871970">
        <ele>343.666679</ele>
        <time>2021-11-14T16:15:15.550Z</time>
      </trkpt>
      <trkpt lat="47.539930" lon="7.872041">
        <ele>343.868378</ele>
        <time>2021-11-14T16:15:18.119Z</time>
      </trkpt>
      <trkpt lat="47.539841" lon="7.872151">
        <ele>344.072537</ele>
        <time>2021-11-14T16:15:21.147Z</time>
      </trkpt>
      <trkpt lat="47.539678" lon="7.872430">
        <ele>344.511265</ele>
        <time>2021-11-14T16:15:26.667Z</time>
      </trkpt>
      <trkpt lat="47.539222" lon="7.873416">
        <ele>345.932405</ele>
        <time>2021-11-14T16:15:44.208Z</time>
      </trkpt>
      <trkpt lat="47.538278" lon="7.874319">
        <ele>347.114661</ele>
        <time>2021-11-14T16:16:03.862Z</time>
      </trkpt>
      <trkpt lat="47.537716" lon="7.874966">
        <ele>347.831282</ele>
        <time>2021-11-14T16:16:17.837Z</time>
      </trkpt>
      <trkpt lat="47.537261" lon="7.875237">
        <ele>348.841776</ele>
        <time>2021-11-14T16:16:27.354Z</time>
      </trkpt>
      <trkpt lat="47.537182" lon="7.875293">
        <ele>349.028375</ele>
        <time>2021-11-14T16:16:29.342Z</time>
      </trkpt>
      <trkpt lat="47.536921" lon="7.875537">
        <ele>349.685955</ele>
        <time>2021-11-14T16:16:35.309Z</time>
      </trkpt>
      <trkpt lat="47.536757" lon="7.875759">
        <ele>350.159306</ele>
        <time>2021-11-14T16:16:39.911Z</time>
      </trkpt>
      <trkpt lat="47.536632" lon="7.875912">
        <ele>350.504795</ele>
        <time>2021-11-14T16:16:43.079Z</time>
      </trkpt>
      <trkpt lat="47.536444" lon="7.876177">
        <ele>351.057733</ele>
        <time>2021-11-14T16:16:50.041Z</time>
      </trkpt>
      <trkpt lat="47.535851" lon="7.877319">
        <ele>355.050775</ele>
        <time>2021-11-14T16:17:21.355Z</time>
      </trkpt>
      <trkpt lat="47.535770" lon="7.877432">
        <ele>355.604974</ele>
        <time>2021-11-14T16:17:25.535Z</time>
      </trkpt>
      <trkpt lat="47.535635" lon="7.877484">
        <ele>356.299725</ele>
        <time>2021-11-14T16:17:31.402Z</time>
      </trkpt>
      <trkpt lat="47.535551" lon="7.877487">
        <ele>356.718221</ele>
        <time>2021-11-14T16:17:33.310Z</time>
      </trkpt>
      <trkpt lat="47.535322" lon="7.877590">
        <ele>357.910216</ele>
        <time>2021-11-14T16:17:43.362Z</time>
      </trkpt>
      <trkpt lat="47.535088" lon="7.877742">
        <ele>359.182838</ele>
        <time>2021-11-14T16:17:51.194Z</time>
      </trkpt>
      <trkpt lat="47.534855" lon="7.878090">
        <ele>360.826856</ele>
        <time>2021-11-14T16:18:03.177Z</time>
      </trkpt>
      <trkpt lat="47.534778" lon="7.878270">
        <ele>361.527159</ele>
        <time>2021-11-14T16:18:10.484Z</time>
      </trkpt>
      <trkpt lat="47.534825" lon="7.878414">
        <ele>362.052803</ele>
        <time>2021-11-14T16:18:13.110Z</time>
      </trkpt>
      <trkpt lat="47.534946" lon="7.878790">
        <ele>363.421689</ele>
        <time>2021-11-14T16:18:25.158Z</time>
      </trkpt>
      <trkpt lat="47.534908" lon="7.878975">
        <ele>364.057190</ele>
        <time>2021-11-14T16:18:29.216Z</time>
      </trkpt>
      <trkpt lat="47.534616" lon="7.879490">
        <ele>366.267370</ele>
        <time>2021-11-14T16:18:46.163Z</time>
      </trkpt>
      <trkpt lat="47.533892" lon="7.880353">
        <ele>369.996083</ele>
        <time>2021-11-14T16:19:13.902Z</time>
      </trkpt>
      <trkpt lat="47.533606" lon="7.880961">
        <ele>371.031560</ele>
        <time>2021-11-14T16:19:26.211Z</time>
      </trkpt>
      <trkpt lat="47.533374" lon="7.881639">
        <ele>372.093717</ele>
        <time>2021-11-14T16:19:37.256Z</time>
      </trkpt>
      <trkpt lat="47.533014" lon="7.882949">
        <ele>373.008925</ele>
        <time>2021-11-14T16:19:55.171Z</time>
      </trkpt>
      <trkpt lat="47.532859" lon="7.883508">
        <ele>372.899511</ele>
        <time>2021-11-14T16:20:01.049Z</time>
      </trkpt>
      <trkpt lat="47.532713" lon="7.884122">
        <ele>372.781648</ele>
        <time>2021-11-14T16:20:06.747Z</time>
      </trkpt>
      <trkpt lat="47.532699" lon="7.884224">
        <ele>372.762802</ele>
        <time>2021-11-14T16:20:07.701Z</time>
      </trkpt>
      <trkpt lat="47.532670" lon="7.884773">
        <ele>372.663097</ele>
        <time>2021-11-14T16:20:12.194Z</time>
      </trkpt>
      <trkpt lat="47.532658" lon="7.884989">
        <ele>372.502085</ele>
        <time>2021-11-14T16:20:13.806Z</time>
      </trkpt>
      <trkpt lat="47.532650" lon="7.885569">
        <ele>371.874054</ele>
        <time>2021-11-14T16:20:18.309Z</time>
      </trkpt>
      <trkpt lat="47.532505" lon="7.887120">
        <ele>370.178941</ele>
        <time>2021-11-14T16:20:30.260Z</time>
      </trkpt>
      <trkpt lat="47.532288" lon="7.887728">
        <ele>369.451230</ele>
        <time>2021-11-14T16:20:35.446Z</time>
      </trkpt>
      <trkpt lat="47.532011" lon="7.888896">
        <ele>368.179315</ele>
        <time>2021-11-14T16:20:44.669Z</time>
      </trkpt>
      <trkpt lat="47.531843" lon="7.889349">
        <ele>367.648298</ele>
        <time>2021-11-14T16:20:48.706Z</time>
      </trkpt>
      <trkpt lat="47.531667" lon="7.889615">
        <ele>367.265648</ele>
        <time>2021-11-14T16:20:51.794Z</time>
      </trkpt>
      <trkpt lat="47.531560" lon="7.889776">
        <ele>367.033538</ele>
        <time>2021-11-14T16:20:53.645Z</time>
      </trkpt>
      <trkpt lat="47.531411" lon="7.889857">
        <ele>367.049692</ele>
        <time>2021-11-14T16:20:55.738Z</time>
      </trkpt>
      <trkpt lat="47.531265" lon="7.889937">
        <ele>367.072251</ele>
        <time>2021-11-14T16:20:57.629Z</time>
      </trkpt>
      <trkpt lat="47.531076" lon="7.890029">
        <ele>367.101081</ele>
        <time>2021-11-14T16:21:00.490Z</time>
      </trkpt>
      <trkpt lat="47.530606" lon="7.890373">
        <ele>367.177055</ele>
        <time>2021-11-14T16:21:08.316Z</time>
      </trkpt>
      <trkpt lat="47.530322" lon="7.890690">
        <ele>367.228590</ele>
        <time>2021-11-14T16:21:14.310Z</time>
      </trkpt>
      <trkpt lat="47.529972" lon="7.891210">
        <ele>367.378669</ele>
        <time>2021-11-14T16:21:23.461Z</time>
      </trkpt>
      <trkpt lat="47.529714" lon="7.891609">
        <ele>367.771180</ele>
        <time>2021-11-14T16:21:30.795Z</time>
      </trkpt>
      <trkpt lat="47.529695" lon="7.891638">
        <ele>367.799889</ele>
        <time>2021-11-14T16:21:31.781Z</time>
      </trkpt>
      <trkpt lat="47.529235" lon="7.892158">
        <ele>368.408812</ele>
        <time>2021-11-14T16:21:42.715Z</time>
      </trkpt>
      <trkpt lat="47.528331" lon="7.892682">
        <ele>369.557075</ele>
        <time>2021-11-14T16:22:01.417Z</time>
      </trkpt>
      <trkpt lat="47.528003" lon="7.892732">
        <ele>370.080147</ele>
        <time>2021-11-14T16:22:07.123Z</time>
      </trkpt>
      <trkpt lat="47.527498" lon="7.892650">
        <ele>370.886054</ele>
        <time>2021-11-14T16:22:16.596Z</time>
      </trkpt>
      <trkpt lat="47.527011" lon="7.893061">
        <ele>371.775242</ele>
        <time>2021-11-14T16:22:29.788Z</time>
      </trkpt>
      <trkpt lat="47.526709" lon="7.893617">
        <ele>372.924751</ele>
        <time>2021-11-14T16:22:42.320Z</time>
      </trkpt>
      <trkpt lat="47.526504" lon="7.894030">
        <ele>373.891968</ele>
        <time>2021-11-14T16:22:52.501Z</time>
      </trkpt>
      <trkpt lat="47.526451" lon="7.893983">
        <ele>374.064598</ele>
        <time>2021-11-14T16:22:53.891Z</time>
      </trkpt>
      <trkpt lat="47.526401" lon="7.893964">
        <ele>374.208848</ele>
        <time>2021-11-14T16:22:54.708Z</time>
      </trkpt>
      <trkpt lat="47.526335" lon="7.893960">
        <ele>374.393437</ele>
        <time>2021-11-14T16:22:56.782Z</time>
      </trkpt>
      <trkpt lat="47.526257" lon="7.894278">
        <ele>375.031857</ele>
        <time>2021-11-14T16:23:02.994Z</time>
      </trkpt>
      <trkpt lat="47.525725" lon="7.895110">
        <ele>377.126045</ele>
        <time>2021-11-14T16:23:22.076Z</time>
      </trkpt>
      <trkpt lat="47.525603" lon="7.895265">
        <ele>377.347246</ele>
        <time>2021-11-14T16:23:27.692Z</time>
      </trkpt>
      <trkpt lat="47.525631" lon="7.895442">
        <ele>377.516172</ele>
        <time>2021-11-14T16:23:30.542Z</time>
      </trkpt>
      <trkpt lat="47.525631" lon="7.895583">
        <ele>377.647193</ele>
        <time>2021-11-14T16:23:31.733Z</time>
      </trkpt>
      <trkpt lat="47.525622" lon="7.895944">
        <ele>377.982872</ele>
        <time>2021-11-14T16:23:39.168Z</time>
      </trkpt>
      <trkpt lat="47.525590" lon="7.896117">
        <ele>378.149550</ele>
        <time>2021-11-14T16:23:40.721Z</time>
      </trkpt>
      <trkpt lat="47.525518" lon="7.896336">
        <ele>378.375889</ele>
        <time>2021-11-14T16:23:45.529Z</time>
      </trkpt>
      <trkpt lat="47.524834" lon="7.897636">
        <ele>379.530346</ele>
        <time>2021-11-14T16:24:02.452Z</time>
      </trkpt>
      <trkpt lat="47.524617" lon="7.898216">
        <ele>379.522296</ele>
        <time>2021-11-14T16:24:08.625Z</time>
      </trkpt>
      <trkpt lat="47.524360" lon="7.898951">
        <ele>379.512247</ele>
        <time>2021-11-14T16:24:16.166Z</time>
      </trkpt>
      <trkpt lat="47.524309" lon="7.899115">
        <ele>379.510055</ele>
        <time>2021-11-14T16:24:18.080Z</time>
      </trkpt>
      <trkpt lat="47.523896" lon="7.900001">
        <ele>380.128052</ele>
        <time>2021-11-14T16:24:30.003Z</time>
      </trkpt>
      <trkpt lat="47.523861" lon="7.900049">
        <ele>380.219157</ele>
        <time>2021-11-14T16:24:30.982Z</time>
      </trkpt>
      <trkpt lat="47.523890" lon="7.900131">
        <ele>380.338534</ele>
        <time>2021-11-14T16:24:31.937Z</time>
      </trkpt>
      <trkpt lat="47.523945" lon="7.900256">
        <ele>380.530942</ele>
        <time>2021-11-14T16:24:33.528Z</time>
      </trkpt>
      <trkpt lat="47.523989" lon="7.900340">
        <ele>380.668044</ele>
        <time>2021-11-14T16:24:34.578Z</time>
      </trkpt>
      <trkpt lat="47.523957" lon="7.900371">
        <ele>380.741073</ele>
        <time>2021-11-14T16:24:35.283Z</time>
      </trkpt>
      <trkpt lat="47.523878" lon="7.900445">
        <ele>380.919597</ele>
        <time>2021-11-14T16:24:37.400Z</time>
      </trkpt>
      <trkpt lat="47.523739" lon="7.900557">
        <ele>381.221813</ele>
        <time>2021-11-14T16:24:40.331Z</time>
      </trkpt>
      <trkpt lat="47.523648" lon="7.900606">
        <ele>381.406737</ele>
        <time>2021-11-14T16:24:42.510Z</time>
      </trkpt>
      <trkpt lat="47.523620" lon="7.900698">
        <ele>381.536880</ele>
        <time>2021-11-14T16:24:44.473Z</time>
      </trkpt>
      <trkpt lat="47.523567" lon="7.900820">
        <ele>381.723966</ele>
        <time>2021-11-14T16:24:46.571Z</time>
      </trkpt>
      <trkpt lat="47.523433" lon="7.901043">
        <ele>382.108938</ele>
        <time>2021-11-14T16:24:51.815Z</time>
      </trkpt>
      <trkpt lat="47.523340" lon="7.901197">
        <ele>382.375380</ele>
        <time>2021-11-14T16:24:55.857Z</time>
      </trkpt>
      <trkpt lat="47.523036" lon="7.901580">
        <ele>383.369788</ele>
        <time>2021-11-14T16:25:07.553Z</time>
      </trkpt>
      <trkpt lat="47.522688" lon="7.901843">
        <ele>384.983208</ele>
        <time>2021-11-14T16:25:19.871Z</time>
      </trkpt>
      <trkpt lat="47.522554" lon="7.901999">
        <ele>385.687099</ele>
        <time>2021-11-14T16:25:26.192Z</time>
      </trkpt>
      <trkpt lat="47.522260" lon="7.902356">
        <ele>387.257184</ele>
        <time>2021-11-14T16:25:38.565Z</time>
      </trkpt>
      <trkpt lat="47.522132" lon="7.902476">
        <ele>387.882794</ele>
        <time>2021-11-14T16:25:43.123Z</time>
      </trkpt>
      <trkpt lat="47.522065" lon="7.902526">
        <ele>388.192623</ele>
        <time>2021-11-14T16:25:45.317Z</time>
      </trkpt>
      <trkpt lat="47.522038" lon="7.902562">
        <ele>388.342659</ele>
        <time>2021-11-14T16:25:46.821Z</time>
      </trkpt>
      <trkpt lat="47.522013" lon="7.902637">
        <ele>388.575905</ele>
        <time>2021-11-14T16:25:48.954Z</time>
      </trkpt>
      <trkpt lat="47.521792" lon="7.903347">
        <ele>390.630781</ele>
        <time>2021-11-14T16:26:05.023Z</time>
      </trkpt>
      <trkpt lat="47.521297" lon="7.904312">
        <ele>392.925863</ele>
        <time>2021-11-14T16:26:29.025Z</time>
      </trkpt>
      <trkpt lat="47.520989" lon="7.905130">
        <ele>394.699631</ele>
        <time>2021-11-14T16:26:44.440Z</time>
      </trkpt>
      <trkpt lat="47.520678" lon="7.906050">
        <ele>395.617321</ele>
        <time>2021-11-14T16:26:57.910Z</time>
      </trkpt>
      <trkpt lat="47.520566" lon="7.906668">
        <ele>395.820383</ele>
        <time>2021-11-14T16:27:04.929Z</time>
      </trkpt>
      <trkpt lat="47.520528" lon="7.906930">
        <ele>395.905425</ele>
        <time>2021-11-14T16:27:08.190Z</time>
      </trkpt>
      <trkpt lat="47.520515" lon="7.907103">
        <ele>395.960666</ele>
        <time>2021-11-14T16:27:09.987Z</time>
      </trkpt>
      <trkpt lat="47.520506" lon="7.907236">
        <ele>396.003085</ele>
        <time>2021-11-14T16:27:11.064Z</time>
      </trkpt>
      <trkpt lat="47.520551" lon="7.907422">
        <ele>396.065786</ele>
        <time>2021-11-14T16:27:13.474Z</time>
      </trkpt>
      <trkpt lat="47.520733" lon="7.907655">
        <ele>396.178844</ele>
        <time>2021-11-14T16:27:16.660Z</time>
      </trkpt>
      <trkpt lat="47.520738" lon="7.907839">
        <ele>396.237284</ele>
        <time>2021-11-14T16:27:18.803Z</time>
      </trkpt>
      <trkpt lat="47.520493" lon="7.908683">
        <ele>396.406469</ele>
        <time>2021-11-14T16:27:26.982Z</time>
      </trkpt>
      <trkpt lat="47.519997" lon="7.910833">
        <ele>397.049540</ele>
        <time>2021-11-14T16:27:52.929Z</time>
      </trkpt>
      <trkpt lat="47.519891" lon="7.911129">
        <ele>397.282002</ele>
        <time>2021-11-14T16:27:57.519Z</time>
      </trkpt>
      <trkpt lat="47.519720" lon="7.911522">
        <ele>397.606375</ele>
        <time>2021-11-14T16:28:03.603Z</time>
      </trkpt>
      <trkpt lat="47.519421" lon="7.912098">
        <ele>398.110446</ele>
        <time>2021-11-14T16:28:13.170Z</time>
      </trkpt>
      <trkpt lat="47.517688" lon="7.914418">
        <ele>400.577581</ele>
        <time>2021-11-14T16:28:57.748Z</time>
      </trkpt>
      <trkpt lat="47.517281" lon="7.915238">
        <ele>401.223337</ele>
        <time>2021-11-14T16:29:10.762Z</time>
      </trkpt>
      <trkpt lat="47.517140" lon="7.915259">
        <ele>401.356488</ele>
        <time>2021-11-14T16:29:13.262Z</time>
      </trkpt>
      <trkpt lat="47.516806" lon="7.914896">
        <ele>401.745778</ele>
        <time>2021-11-14T16:29:20.837Z</time>
      </trkpt>
      <trkpt lat="47.516748" lon="7.914873">
        <ele>401.802195</ele>
        <time>2021-11-14T16:29:22.009Z</time>
      </trkpt>
      <trkpt lat="47.516662" lon="7.914835">
        <ele>401.886521</ele>
        <time>2021-11-14T16:29:23.800Z</time>
      </trkpt>
      <trkpt lat="47.516626" lon="7.914830">
        <ele>401.920495</ele>
        <time>2021-11-14T16:29:24.495Z</time>
      </trkpt>
      <trkpt lat="47.516590" lon="7.914840">
        <ele>401.954910</ele>
        <time>2021-11-14T16:29:25.091Z</time>
      </trkpt>
      <trkpt lat="47.516569" lon="7.914864">
        <ele>401.979836</ele>
        <time>2021-11-14T16:29:25.625Z</time>
      </trkpt>
      <trkpt lat="47.516544" lon="7.914936">
        <ele>402.031210</ele>
        <time>2021-11-14T16:29:26.472Z</time>
      </trkpt>
      <trkpt lat="47.516391" lon="7.915243">
        <ele>402.270628</ele>
        <time>2021-11-14T16:29:31.265Z</time>
      </trkpt>
      <trkpt lat="47.515014" lon="7.917030">
        <ele>404.006267</ele>
        <time>2021-11-14T16:30:05.041Z</time>
      </trkpt>
      <trkpt lat="47.514635" lon="7.917349">
        <ele>404.629735</ele>
        <time>2021-11-14T16:30:13.160Z</time>
      </trkpt>
      <trkpt lat="47.514561" lon="7.917409">
        <ele>404.750392</ele>
        <time>2021-11-14T16:30:15.052Z</time>
      </trkpt>
      <trkpt lat="47.514255" lon="7.917714">
        <ele>405.277927</ele>
        <time>2021-11-14T16:30:22.520Z</time>
      </trkpt>
      <trkpt lat="47.513378" lon="7.918393">
        <ele>406.939634</ele>
        <time>2021-11-14T16:30:44.247Z</time>
      </trkpt>
      <trkpt lat="47.513160" lon="7.918764">
        <ele>407.806757</ele>
        <time>2021-11-14T16:30:51.749Z</time>
      </trkpt>
      <trkpt lat="47.513058" lon="7.918896">
        <ele>408.160440</ele>
        <time>2021-11-14T16:30:54.904Z</time>
      </trkpt>
      <trkpt lat="47.512938" lon="7.919052">
        <ele>408.577358</ele>
        <time>2021-11-14T16:30:58.684Z</time>
      </trkpt>
      <trkpt lat="47.512664" lon="7.919306">
        <ele>409.421352</ele>
        <time>2021-11-14T16:31:06.907Z</time>
      </trkpt>
      <trkpt lat="47.512255" lon="7.919538">
        <ele>410.564833</ele>
        <time>2021-11-14T16:31:18.832Z</time>
      </trkpt>
      <trkpt lat="47.512085" lon="7.919732">
        <ele>411.135613</ele>
        <time>2021-11-14T16:31:25.041Z</time>
      </trkpt>
      <trkpt lat="47.511964" lon="7.919989">
        <ele>411.854397</ele>
        <time>2021-11-14T16:31:31.520Z</time>
      </trkpt>
      <trkpt lat="47.511883" lon="7.920133">
        <ele>412.284363</ele>
        <time>2021-11-14T16:31:35.534Z</time>
      </trkpt>
      <trkpt lat="47.511632" lon="7.920105">
        <ele>413.139412</ele>
        <time>2021-11-14T16:31:44.515Z</time>
      </trkpt>
      <trkpt lat="47.511375" lon="7.920079">
        <ele>414.014462</ele>
        <time>2021-11-14T16:31:53.012Z</time>
      </trkpt>
      <trkpt lat="47.510704" lon="7.919944">
        <ele>416.314761</ele>
        <time>2021-11-14T16:32:15.519Z</time>
      </trkpt>
      <trkpt lat="47.510627" lon="7.919935">
        <ele>416.577140</ele>
        <time>2021-11-14T16:32:17.856Z</time>
      </trkpt>
      <trkpt lat="47.510551" lon="7.919925">
        <ele>416.836325</ele>
        <time>2021-11-14T16:32:20.965Z</time>
      </trkpt>
      <trkpt lat="47.509902" lon="7.920009">
        <ele>419.320568</ele>
        <time>2021-11-14T16:32:41.563Z</time>
      </trkpt>
      <trkpt lat="47.509811" lon="7.920040">
        <ele>419.684300</ele>
        <time>2021-11-14T16:32:45.547Z</time>
      </trkpt>
      <trkpt lat="47.509809" lon="7.920155">
        <ele>419.986977</ele>
        <time>2021-11-14T16:32:47.141Z</time>
      </trkpt>
      <trkpt lat="47.509746" lon="7.920320">
        <ele>420.485669</ele>
        <time>2021-11-14T16:32:50.381Z</time>
      </trkpt>
      <trkpt lat="47.509586" lon="7.920497">
        <ele>421.263689</ele>
        <time>2021-11-14T16:32:58.759Z</time>
      </trkpt>
      <trkpt lat="47.509370" lon="7.920707">
        <ele>422.270272</ele>
        <time>2021-11-14T16:33:07.066Z</time>
      </trkpt>
      <trkpt lat="47.509138" lon="7.920939">
        <ele>423.360819</ele>
        <time>2021-11-14T16:33:16.028Z</time>
      </trkpt>
      <trkpt lat="47.508613" lon="7.921495">
        <ele>426.130943</ele>
        <time>2021-11-14T16:33:35.608Z</time>
      </trkpt>
      <trkpt lat="47.508585" lon="7.921587">
        <ele>426.437139</ele>
        <time>2021-11-14T16:33:36.540Z</time>
      </trkpt>
      <trkpt lat="47.508464" lon="7.921688">
        <ele>427.061149</ele>
        <time>2021-11-14T16:33:42.847Z</time>
      </trkpt>
      <trkpt lat="47.508248" lon="7.921916">
        <ele>428.252869</ele>
        <time>2021-11-14T16:33:50.433Z</time>
      </trkpt>
      <trkpt lat="47.508175" lon="7.922172">
        <ele>429.096072</ele>
        <time>2021-11-14T16:33:56.992Z</time>
      </trkpt>
      <trkpt lat="47.508171" lon="7.922196">
        <ele>429.171082</ele>
        <time>2021-11-14T16:33:58.831Z</time>
      </trkpt>
      <trkpt lat="47.508141" lon="7.922350">
        <ele>429.657433</ele>
        <time>2021-11-14T16:34:01.404Z</time>
      </trkpt>
      <trkpt lat="47.508128" lon="7.922441">
        <ele>429.939677</ele>
        <time>2021-11-14T16:34:04.200Z</time>
      </trkpt>
      <trkpt lat="47.508064" lon="7.922687">
        <ele>430.739605</ele>
        <time>2021-11-14T16:34:10.741Z</time>
      </trkpt>
      <trkpt lat="47.507981" lon="7.923001">
        <ele>431.762782</ele>
        <time>2021-11-14T16:34:19.120Z</time>
      </trkpt>
      <trkpt lat="47.507956" lon="7.923075">
        <ele>432.013851</ele>
        <time>2021-11-14T16:34:21.137Z</time>
      </trkpt>
      <trkpt lat="47.507876" lon="7.923234">
        <ele>432.370593</ele>
        <time>2021-11-14T16:34:25.538Z</time>
      </trkpt>
      <trkpt lat="47.507823" lon="7.923307">
        <ele>432.453601</ele>
        <time>2021-11-14T16:34:27.312Z</time>
      </trkpt>
      <trkpt lat="47.507715" lon="7.923412">
        <ele>432.601757</ele>
        <time>2021-11-14T16:34:32.011Z</time>
      </trkpt>
      <trkpt lat="47.507337" lon="7.923777">
        <ele>433.119242</ele>
        <time>2021-11-14T16:34:40.360Z</time>
      </trkpt>
      <trkpt lat="47.507226" lon="7.923898">
        <ele>433.277304</ele>
        <time>2021-11-14T16:34:43.994Z</time>
      </trkpt>
      <trkpt lat="47.507191" lon="7.924066">
        <ele>433.413478</ele>
        <time>2021-11-14T16:34:45.534Z</time>
      </trkpt>
      <trkpt lat="47.506722" lon="7.924725">
        <ele>434.154932</ele>
        <time>2021-11-14T16:34:55.420Z</time>
      </trkpt>
      <trkpt lat="47.506562" lon="7.924949">
        <ele>434.274830</ele>
        <time>2021-11-14T16:34:58.438Z</time>
      </trkpt>
      <trkpt lat="47.506019" lon="7.926055">
        <ele>432.927425</ele>
        <time>2021-11-14T16:35:08.228Z</time>
      </trkpt>
      <trkpt lat="47.505768" lon="7.926636">
        <ele>432.247779</ele>
        <time>2021-11-14T16:35:13.267Z</time>
      </trkpt>
      <trkpt lat="47.505699" lon="7.926906">
        <ele>431.963292</ele>
        <time>2021-11-14T16:35:16.291Z</time>
      </trkpt>
      <trkpt lat="47.505690" lon="7.927200">
        <ele>431.752777</ele>
        <time>2021-11-14T16:35:18.446Z</time>
      </trkpt>
      <trkpt lat="47.505748" lon="7.927310">
        <ele>431.826210</ele>
        <time>2021-11-14T16:35:20.616Z</time>
      </trkpt>
      <trkpt lat="47.505858" lon="7.927551">
        <ele>431.979271</ele>
        <time>2021-11-14T16:35:23.380Z</time>
      </trkpt>
      <trkpt lat="47.505881" lon="7.927601">
        <ele>432.011104</ele>
        <time>2021-11-14T16:35:24.377Z</time>
      </trkpt>
      <trkpt lat="47.505868" lon="7.927611">
        <ele>432.022517</ele>
        <time>2021-11-14T16:35:24.605Z</time>
      </trkpt>
      <trkpt lat="47.505814" lon="7.927657">
        <ele>432.071052</ele>
        <time>2021-11-14T16:35:26.466Z</time>
      </trkpt>
      <trkpt lat="47.505253" lon="7.928170">
        <ele>432.584743</ele>
        <time>2021-11-14T16:35:38.286Z</time>
      </trkpt>
      <trkpt lat="47.504799" lon="7.928777">
        <ele>433.061320</ele>
        <time>2021-11-14T16:35:48.945Z</time>
      </trkpt>
      <trkpt lat="47.504724" lon="7.928871">
        <ele>433.143070</ele>
        <time>2021-11-14T16:35:52.582Z</time>
      </trkpt>
      <trkpt lat="47.504650" lon="7.928941">
        <ele>433.242143</ele>
        <time>2021-11-14T16:35:55.115Z</time>
      </trkpt>
      <trkpt lat="47.504005" lon="7.929312">
        <ele>434.022802</ele>
        <time>2021-11-14T16:36:09.556Z</time>
      </trkpt>
      <trkpt lat="47.503815" lon="7.929426">
        <ele>434.254089</ele>
        <time>2021-11-14T16:36:12.516Z</time>
      </trkpt>
      <trkpt lat="47.503598" lon="7.929585">
        <ele>434.527247</ele>
        <time>2021-11-14T16:36:17.792Z</time>
      </trkpt>
      <trkpt lat="47.503528" lon="7.929650">
        <ele>434.620469</ele>
        <time>2021-11-14T16:36:18.864Z</time>
      </trkpt>
      <trkpt lat="47.503485" lon="7.929688">
        <ele>434.676967</ele>
        <time>2021-11-14T16:36:20.375Z</time>
      </trkpt>
      <trkpt lat="47.503014" lon="7.930220">
        <ele>435.292125</ele>
        <time>2021-11-14T16:36:30.287Z</time>
      </trkpt>
      <trkpt lat="47.502761" lon="7.930610">
        <ele>435.588729</ele>
        <time>2021-11-14T16:36:36.641Z</time>
      </trkpt>
      <trkpt lat="47.502613" lon="7.930856">
        <ele>435.769430</ele>
        <time>2021-11-14T16:36:40.439Z</time>
      </trkpt>
      <trkpt lat="47.502400" lon="7.931256">
        <ele>436.048824</ele>
        <time>2021-11-14T16:36:47.242Z</time>
      </trkpt>
      <trkpt lat="47.502023" lon="7.932158">
        <ele>436.625637</ele>
        <time>2021-11-14T16:37:00.229Z</time>
      </trkpt>
      <trkpt lat="47.501901" lon="7.932351">
        <ele>436.721090</ele>
        <time>2021-11-14T16:37:03.987Z</time>
      </trkpt>
      <trkpt lat="47.501794" lon="7.932466">
        <ele>436.791775</ele>
        <time>2021-11-14T16:37:05.867Z</time>
      </trkpt>
      <trkpt lat="47.501463" lon="7.932668">
        <ele>436.983165</ele>
        <time>2021-11-14T16:37:12.006Z</time>
      </trkpt>
      <trkpt lat="47.501075" lon="7.932885">
        <ele>437.204887</ele>
        <time>2021-11-14T16:37:19.545Z</time>
      </trkpt>
      <trkpt lat="47.500990" lon="7.932950">
        <ele>437.256030</ele>
        <time>2021-11-14T16:37:21.363Z</time>
      </trkpt>
      <trkpt lat="47.500843" lon="7.933102">
        <ele>437.351886</ele>
        <time>2021-11-14T16:37:24.242Z</time>
      </trkpt>
      <trkpt lat="47.500435" lon="7.933872">
        <ele>437.770625</ele>
        <time>2021-11-14T16:37:34.073Z</time>
      </trkpt>
      <trkpt lat="47.500386" lon="7.933937">
        <ele>437.823770</ele>
        <time>2021-11-14T16:37:34.933Z</time>
      </trkpt>
      <trkpt lat="47.500352" lon="7.933976">
        <ele>437.858512</ele>
        <time>2021-11-14T16:37:35.695Z</time>
      </trkpt>
      <trkpt lat="47.500275" lon="7.934029">
        <ele>437.927101</ele>
        <time>2021-11-14T16:37:36.802Z</time>
      </trkpt>
      <trkpt lat="47.500208" lon="7.934071">
        <ele>437.985870</ele>
        <time>2021-11-14T16:37:38.036Z</time>
      </trkpt>
      <trkpt lat="47.500193" lon="7.934023">
        <ele>438.014729</ele>
        <time>2021-11-14T16:37:38.514Z</time>
      </trkpt>
      <trkpt lat="47.500169" lon="7.933984">
        <ele>438.043515</ele>
        <time>2021-11-14T16:37:38.947Z</time>
      </trkpt>
      <trkpt lat="47.500138" lon="7.933956">
        <ele>438.072848</ele>
        <time>2021-11-14T16:37:39.491Z</time>
      </trkpt>
      <trkpt lat="47.500067" lon="7.933946">
        <ele>438.130454</ele>
        <time>2021-11-14T16:37:40.439Z</time>
      </trkpt>
      <trkpt lat="47.500034" lon="7.933965">
        <ele>438.159053</ele>
        <time>2021-11-14T16:37:41.258Z</time>
      </trkpt>
      <trkpt lat="47.499993" lon="7.933864">
        <ele>438.223351</ele>
        <time>2021-11-14T16:37:42.800Z</time>
      </trkpt>
      <trkpt lat="47.499822" lon="7.933272">
        <ele>438.574680</ele>
        <time>2021-11-14T16:37:50.780Z</time>
      </trkpt>
      <trkpt lat="47.499538" lon="7.932868">
        <ele>438.892829</ele>
        <time>2021-11-14T16:37:58.762Z</time>
      </trkpt>
      <trkpt lat="47.499421" lon="7.932805">
        <ele>438.993389</ele>
        <time>2021-11-14T16:38:01.816Z</time>
      </trkpt>
      <trkpt lat="47.499354" lon="7.932769">
        <ele>439.075962</ele>
        <time>2021-11-14T16:38:03.543Z</time>
      </trkpt>
      <trkpt lat="47.499088" lon="7.932741">
        <ele>439.550795</ele>
        <time>2021-11-14T16:38:09.421Z</time>
      </trkpt>
      <trkpt lat="47.498997" lon="7.932758">
        <ele>439.714114</ele>
        <time>2021-11-14T16:38:11.458Z</time>
      </trkpt>
      <trkpt lat="47.498925" lon="7.932781">
        <ele>439.845269</ele>
        <time>2021-11-14T16:38:13.165Z</time>
      </trkpt>
      <trkpt lat="47.498481" lon="7.933011">
        <ele>440.682870</ele>
        <time>2021-11-14T16:38:22.419Z</time>
      </trkpt>
      <trkpt lat="47.498431" lon="7.932995">
        <ele>440.773957</ele>
        <time>2021-11-14T16:38:23.642Z</time>
      </trkpt>
      <trkpt lat="47.498391" lon="7.932972">
        <ele>440.850366</ele>
        <time>2021-11-14T16:38:24.560Z</time>
      </trkpt>
      <trkpt lat="47.498196" lon="7.932613">
        <ele>441.404508</ele>
        <time>2021-11-14T16:38:31.284Z</time>
      </trkpt>
      <trkpt lat="47.498138" lon="7.932522">
        <ele>441.555006</ele>
        <time>2021-11-14T16:38:33.284Z</time>
      </trkpt>
      <trkpt lat="47.498068" lon="7.932426">
        <ele>441.724926</ele>
        <time>2021-11-14T16:38:35.731Z</time>
      </trkpt>
      <trkpt lat="47.497907" lon="7.932254">
        <ele>442.078475</ele>
        <time>2021-11-14T16:38:40.434Z</time>
      </trkpt>
      <trkpt lat="47.497676" lon="7.932013">
        <ele>442.536235</ele>
        <time>2021-11-14T16:38:46.912Z</time>
      </trkpt>
      <trkpt lat="47.497430" lon="7.931757">
        <ele>443.001903</ele>
        <time>2021-11-14T16:38:54.503Z</time>
      </trkpt>
      <trkpt lat="47.497221" lon="7.931528">
        <ele>443.404575</ele>
        <time>2021-11-14T16:39:00.500Z</time>
      </trkpt>
      <trkpt lat="47.497104" lon="7.931414">
        <ele>443.621486</ele>
        <time>2021-11-14T16:39:03.308Z</time>
      </trkpt>
      <trkpt lat="47.496998" lon="7.931330">
        <ele>443.807675</ele>
        <time>2021-11-14T16:39:05.733Z</time>
      </trkpt>
      <trkpt lat="47.496424" lon="7.931075">
        <ele>444.735702</ele>
        <time>2021-11-14T16:39:16.468Z</time>
      </trkpt>
      <trkpt lat="47.496205" lon="7.930904">
        <ele>445.152679</ele>
        <time>2021-11-14T16:39:20.516Z</time>
      </trkpt>
      <trkpt lat="47.496162" lon="7.930842">
        <ele>445.276510</ele>
        <time>2021-11-14T16:39:22.062Z</time>
      </trkpt>
      <trkpt lat="47.496117" lon="7.930763">
        <ele>445.420519</ele>
        <time>2021-11-14T16:39:23.323Z</time>
      </trkpt>
      <trkpt lat="47.496051" lon="7.930607">
        <ele>445.677044</ele>
        <time>2021-11-14T16:39:26.120Z</time>
      </trkpt>
      <trkpt lat="47.495985" lon="7.930428">
        <ele>445.961246</ele>
        <time>2021-11-14T16:39:28.962Z</time>
      </trkpt>
      <trkpt lat="47.495825" lon="7.929961">
        <ele>446.691001</ele>
        <time>2021-11-14T16:39:37.207Z</time>
      </trkpt>
      <trkpt lat="47.495801" lon="7.929891">
        <ele>446.800402</ele>
        <time>2021-11-14T16:39:38.589Z</time>
      </trkpt>
      <trkpt lat="47.495622" lon="7.929400">
        <ele>447.577971</ele>
        <time>2021-11-14T16:39:47.203Z</time>
      </trkpt>
      <trkpt lat="47.495562" lon="7.929221">
        <ele>447.856458</ele>
        <time>2021-11-14T16:39:50.179Z</time>
      </trkpt>
      <trkpt lat="47.495530" lon="7.929063">
        <ele>448.086344</ele>
        <time>2021-11-14T16:39:52.666Z</time>
      </trkpt>
      <trkpt lat="47.495455" lon="7.928595">
        <ele>448.779028</ele>
        <time>2021-11-14T16:40:01.489Z</time>
      </trkpt>
      <trkpt lat="47.495268" lon="7.927740">
        <ele>451.016068</ele>
        <time>2021-11-14T16:40:18.466Z</time>
      </trkpt>
      <trkpt lat="47.495031" lon="7.927006">
        <ele>453.041102</ele>
        <time>2021-11-14T16:40:35.368Z</time>
      </trkpt>
      <trkpt lat="47.494945" lon="7.926765">
        <ele>453.719545</ele>
        <time>2021-11-14T16:40:42.012Z</time>
      </trkpt>
      <trkpt lat="47.494515" lon="7.925509">
        <ele>457.153027</ele>
        <time>2021-11-14T16:41:10.431Z</time>
      </trkpt>
      <trkpt lat="47.494438" lon="7.925289">
        <ele>457.746197</ele>
        <time>2021-11-14T16:41:15.864Z</time>
      </trkpt>
      <trkpt lat="47.494034" lon="7.924101">
        <ele>460.930309</ele>
        <time>2021-11-14T16:41:40.927Z</time>
      </trkpt>
      <trkpt lat="47.493708" lon="7.923049">
        <ele>463.734555</ele>
        <time>2021-11-14T16:42:02.499Z</time>
      </trkpt>
      <trkpt lat="47.493397" lon="7.921760">
        <ele>467.066873</ele>
        <time>2021-11-14T16:42:29.479Z</time>
      </trkpt>
      <trkpt lat="47.493307" lon="7.921373">
        <ele>468.063327</ele>
        <time>2021-11-14T16:42:37.973Z</time>
      </trkpt>
      <trkpt lat="47.493236" lon="7.921091">
        <ele>468.964500</ele>
        <time>2021-11-14T16:42:44.354Z</time>
      </trkpt>
      <trkpt lat="47.493132" lon="7.920716">
        <ele>470.234702</ele>
        <time>2021-11-14T16:42:53.404Z</time>
      </trkpt>
      <trkpt lat="47.492813" lon="7.919900">
        <ele>473.188796</ele>
        <time>2021-11-14T16:43:14.887Z</time>
      </trkpt>
      <trkpt lat="47.492584" lon="7.919482">
        <ele>474.875065</ele>
        <time>2021-11-14T16:43:27.659Z</time>
      </trkpt>
      <trkpt lat="47.492227" lon="7.918989">
        <ele>477.086107</ele>
        <time>2021-11-14T16:43:44.561Z</time>
      </trkpt>
      <trkpt lat="47.491324" lon="7.917985">
        <ele>481.849259</ele>
        <time>2021-11-14T16:44:21.346Z</time>
      </trkpt>
      <trkpt lat="47.490822" lon="7.917158">
        <ele>484.704715</ele>
        <time>2021-11-14T16:44:43.505Z</time>
      </trkpt>
      <trkpt lat="47.490607" lon="7.916690">
        <ele>485.745656</ele>
        <time>2021-11-14T16:44:53.704Z</time>
      </trkpt>
      <trkpt lat="47.490429" lon="7.916164">
        <ele>486.827724</ele>
        <time>2021-11-14T16:45:03.573Z</time>
      </trkpt>
      <trkpt lat="47.490283" lon="7.915612">
        <ele>487.918081</ele>
        <time>2021-11-14T16:45:13.401Z</time>
      </trkpt>
      <trkpt lat="47.489987" lon="7.914083">
        <ele>490.684049</ele>
        <time>2021-11-14T16:45:39.181Z</time>
      </trkpt>
      <trkpt lat="47.489951" lon="7.913893">
        <ele>491.015035</ele>
        <time>2021-11-14T16:45:42.175Z</time>
      </trkpt>
      <trkpt lat="47.489922" lon="7.913738">
        <ele>491.284806</ele>
        <time>2021-11-14T16:45:44.680Z</time>
      </trkpt>
      <trkpt lat="47.489843" lon="7.913398">
        <ele>491.887877</ele>
        <time>2021-11-14T16:45:50.027Z</time>
      </trkpt>
      <trkpt lat="47.489607" lon="7.912646">
        <ele>493.278645</ele>
        <time>2021-11-14T16:46:04.256Z</time>
      </trkpt>
      <trkpt lat="47.489216" lon="7.911685">
        <ele>496.144600</ele>
        <time>2021-11-14T16:46:26.570Z</time>
      </trkpt>
      <trkpt lat="47.489040" lon="7.911300">
        <ele>497.385665</ele>
        <time>2021-11-14T16:46:36.037Z</time>
      </trkpt>
      <trkpt lat="47.488908" lon="7.911009">
        <ele>498.321447</ele>
        <time>2021-11-14T16:46:44.597Z</time>
      </trkpt>
      <trkpt lat="47.488699" lon="7.910498">
        <ele>499.916253</ele>
        <time>2021-11-14T16:46:58.260Z</time>
      </trkpt>
      <trkpt lat="47.488366" lon="7.909318">
        <ele>502.970741</ele>
        <time>2021-11-14T16:47:24.133Z</time>
      </trkpt>
      <trkpt lat="47.488241" lon="7.908835">
        <ele>504.169488</ele>
        <time>2021-11-14T16:47:33.320Z</time>
      </trkpt>
      <trkpt lat="47.488185" lon="7.908663">
        <ele>504.611994</ele>
        <time>2021-11-14T16:47:37.371Z</time>
      </trkpt>
      <trkpt lat="47.488080" lon="7.908344">
        <ele>505.434394</ele>
        <time>2021-11-14T16:47:43.333Z</time>
      </trkpt>
      <trkpt lat="47.487763" lon="7.907711">
        <ele>507.297988</ele>
        <time>2021-11-14T16:47:58.390Z</time>
      </trkpt>
      <trkpt lat="47.487587" lon="7.907459">
        <ele>508.202533</ele>
        <time>2021-11-14T16:48:04.850Z</time>
      </trkpt>
      <trkpt lat="47.487378" lon="7.907191">
        <ele>509.223986</ele>
        <time>2021-11-14T16:48:12.048Z</time>
      </trkpt>
      <trkpt lat="47.487197" lon="7.906946">
        <ele>510.130014</ele>
        <time>2021-11-14T16:48:18.189Z</time>
      </trkpt>
      <trkpt lat="47.486969" lon="7.906583">
        <ele>511.366984</ele>
        <time>2021-11-14T16:48:26.498Z</time>
      </trkpt>
      <trkpt lat="47.486769" lon="7.905976">
        <ele>513.052539</ele>
        <time>2021-11-14T16:48:42.527Z</time>
      </trkpt>
      <trkpt lat="47.486724" lon="7.905485">
        <ele>514.848727</ele>
        <time>2021-11-14T16:48:55.199Z</time>
      </trkpt>
      <trkpt lat="47.486755" lon="7.904487">
        <ele>518.940076</ele>
        <time>2021-11-14T16:49:22.065Z</time>
      </trkpt>
      <trkpt lat="47.486721" lon="7.904326">
        <ele>519.630852</ele>
        <time>2021-11-14T16:49:27.080Z</time>
      </trkpt>
      <trkpt lat="47.486688" lon="7.904238">
        <ele>520.043003</ele>
        <time>2021-11-14T16:49:30.236Z</time>
      </trkpt>
      <trkpt lat="47.486480" lon="7.904016">
        <ele>521.597170</ele>
        <time>2021-11-14T16:49:39.339Z</time>
      </trkpt>
      <trkpt lat="47.486247" lon="7.904043">
        <ele>523.013512</ele>
        <time>2021-11-14T16:49:48.007Z</time>
      </trkpt>
      <trkpt lat="47.486049" lon="7.904262">
        <ele>524.441770</ele>
        <time>2021-11-14T16:49:59.403Z</time>
      </trkpt>
      <trkpt lat="47.485593" lon="7.905145">
        <ele>527.366797</ele>
        <time>2021-11-14T16:50:29.169Z</time>
      </trkpt>
      <trkpt lat="47.485331" lon="7.905337">
        <ele>528.505529</ele>
        <time>2021-11-14T16:50:37.753Z</time>
      </trkpt>
      <trkpt lat="47.485073" lon="7.905345">
        <ele>529.510624</ele>
        <time>2021-11-14T16:50:44.366Z</time>
      </trkpt>
      <trkpt lat="47.485049" lon="7.905336">
        <ele>529.607056</ele>
        <time>2021-11-14T16:50:45.963Z</time>
      </trkpt>
      <trkpt lat="47.484936" lon="7.905289">
        <ele>530.064231</ele>
        <time>2021-11-14T16:50:48.591Z</time>
      </trkpt>
      <trkpt lat="47.484713" lon="7.905133">
        <ele>531.024951</ele>
        <time>2021-11-14T16:50:54.211Z</time>
      </trkpt>
      <trkpt lat="47.484481" lon="7.904947">
        <ele>530.751413</ele>
        <time>2021-11-14T16:50:57.588Z</time>
      </trkpt>
      <trkpt lat="47.484248" lon="7.904856">
        <ele>530.019152</ele>
        <time>2021-11-14T16:51:00.616Z</time>
      </trkpt>
      <trkpt lat="47.484124" lon="7.904824">
        <ele>529.636668</ele>
        <time>2021-11-14T16:51:02.094Z</time>
      </trkpt>
      <trkpt lat="47.484064" lon="7.904808">
        <ele>529.451409</ele>
        <time>2021-11-14T16:51:02.762Z</time>
      </trkpt>
      <trkpt lat="47.484005" lon="7.904793">
        <ele>529.269500</ele>
        <time>2021-11-14T16:51:03.494Z</time>
      </trkpt>
      <trkpt lat="47.483385" lon="7.904708">
        <ele>527.377443</ele>
        <time>2021-11-14T16:51:09.948Z</time>
      </trkpt>
      <trkpt lat="47.483329" lon="7.904705">
        <ele>527.207165</ele>
        <time>2021-11-14T16:51:10.456Z</time>
      </trkpt>
      <trkpt lat="47.483101" lon="7.904680">
        <ele>526.512444</ele>
        <time>2021-11-14T16:51:12.585Z</time>
      </trkpt>
      <trkpt lat="47.482433" lon="7.904538">
        <ele>522.683275</ele>
        <time>2021-11-14T16:51:18.556Z</time>
      </trkpt>
      <trkpt lat="47.482157" lon="7.904346">
        <ele>520.574541</ele>
        <time>2021-11-14T16:51:21.270Z</time>
      </trkpt>
      <trkpt lat="47.481709" lon="7.903892">
        <ele>516.820087</ele>
        <time>2021-11-14T16:51:26.108Z</time>
      </trkpt>
      <trkpt lat="47.481588" lon="7.903776">
        <ele>515.823201</ele>
        <time>2021-11-14T16:51:27.394Z</time>
      </trkpt>
      <trkpt lat="47.481478" lon="7.903693">
        <ele>514.969442</ele>
        <time>2021-11-14T16:51:28.527Z</time>
      </trkpt>
      <trkpt lat="47.480980" lon="7.903461">
        <ele>511.830496</ele>
        <time>2021-11-14T16:51:33.357Z</time>
      </trkpt>
      <trkpt lat="47.478367" lon="7.903166">
        <ele>497.487884</ele>
        <time>2021-11-14T16:51:57.990Z</time>
      </trkpt>
      <trkpt lat="47.478182" lon="7.903109">
        <ele>496.418339</ele>
        <time>2021-11-14T16:51:59.733Z</time>
      </trkpt>
      <trkpt lat="47.478118" lon="7.903075">
        <ele>496.033462</ele>
        <time>2021-11-14T16:52:00.331Z</time>
      </trkpt>
      <trkpt lat="47.476982" lon="7.902234">
        <ele>488.298921</ele>
        <time>2021-11-14T16:52:11.825Z</time>
      </trkpt>
      <trkpt lat="47.476536" lon="7.901977">
        <ele>485.282531</ele>
        <time>2021-11-14T16:52:16.193Z</time>
      </trkpt>
      <trkpt lat="47.476364" lon="7.901870">
        <ele>484.106647</ele>
        <time>2021-11-14T16:52:17.888Z</time>
      </trkpt>
      <trkpt lat="47.475300" lon="7.901112">
        <ele>477.329172</ele>
        <time>2021-11-14T16:52:28.796Z</time>
      </trkpt>
      <trkpt lat="47.475163" lon="7.901034">
        <ele>476.512978</ele>
        <time>2021-11-14T16:52:30.123Z</time>
      </trkpt>
      <trkpt lat="47.474888" lon="7.900841">
        <ele>474.820631</ele>
        <time>2021-11-14T16:52:32.975Z</time>
      </trkpt>
      <trkpt lat="47.474617" lon="7.900560">
        <ele>472.980614</ele>
        <time>2021-11-14T16:52:36.105Z</time>
      </trkpt>
      <trkpt lat="47.474336" lon="7.900125">
        <ele>470.943237</ele>
        <time>2021-11-14T16:52:39.946Z</time>
      </trkpt>
      <trkpt lat="47.474186" lon="7.899915">
        <ele>469.956615</ele>
        <time>2021-11-14T16:52:41.881Z</time>
      </trkpt>
      <trkpt lat="47.474087" lon="7.899774">
        <ele>469.300093</ele>
        <time>2021-11-14T16:52:43.192Z</time>
      </trkpt>
      <trkpt lat="47.473931" lon="7.899567">
        <ele>468.298949</ele>
        <time>2021-11-14T16:52:45.152Z</time>
      </trkpt>
      <trkpt lat="47.473317" lon="7.898945">
        <ele>464.743775</ele>
        <time>2021-11-14T16:52:52.392Z</time>
      </trkpt>
      <trkpt lat="47.471910" lon="7.898392">
        <ele>457.257836</ele>
        <time>2021-11-14T16:53:05.986Z</time>
      </trkpt>
      <trkpt lat="47.471825" lon="7.898370">
        <ele>456.808670</ele>
        <time>2021-11-14T16:53:06.774Z</time>
      </trkpt>
      <trkpt lat="47.471597" lon="7.898344">
        <ele>455.618354</ele>
        <time>2021-11-14T16:53:08.926Z</time>
      </trkpt>
      <trkpt lat="47.471002" lon="7.898222">
        <ele>452.984093</ele>
        <time>2021-11-14T16:53:14.521Z</time>
      </trkpt>
      <trkpt lat="47.469999" lon="7.897879">
        <ele>449.041690</ele>
        <time>2021-11-14T16:53:24.521Z</time>
      </trkpt>
      <trkpt lat="47.469806" lon="7.897795">
        <ele>448.271248</ele>
        <time>2021-11-14T16:53:26.663Z</time>
      </trkpt>
      <trkpt lat="47.469534" lon="7.897638">
        <ele>447.402950</ele>
        <time>2021-11-14T16:53:29.881Z</time>
      </trkpt>
      <trkpt lat="47.469456" lon="7.897860">
        <ele>447.270867</ele>
        <time>2021-11-14T16:53:31.950Z</time>
      </trkpt>
      <trkpt lat="47.469155" lon="7.898409">
        <ele>446.897694</ele>
        <time>2021-11-14T16:53:37.454Z</time>
      </trkpt>
      <trkpt lat="47.469026" lon="7.898570">
        <ele>446.765884</ele>
        <time>2021-11-14T16:53:39.619Z</time>
      </trkpt>
      <trkpt lat="47.468974" lon="7.898632">
        <ele>446.713726</ele>
        <time>2021-11-14T16:53:40.554Z</time>
      </trkpt>
      <trkpt lat="47.468719" lon="7.898908">
        <ele>446.466968</ele>
        <time>2021-11-14T16:53:44.635Z</time>
      </trkpt>
      <trkpt lat="47.468595" lon="7.899046">
        <ele>446.345784</ele>
        <time>2021-11-14T16:53:46.777Z</time>
      </trkpt>
      <trkpt lat="47.468210" lon="7.899465">
        <ele>446.201058</ele>
        <time>2021-11-14T16:53:55.108Z</time>
      </trkpt>
      <trkpt lat="47.467978" lon="7.899694">
        <ele>446.537809</ele>
        <time>2021-11-14T16:53:59.845Z</time>
      </trkpt>
      <trkpt lat="47.467778" lon="7.899859">
        <ele>446.814305</ele>
        <time>2021-11-14T16:54:04.216Z</time>
      </trkpt>
      <trkpt lat="47.467497" lon="7.900103">
        <ele>447.207717</ele>
        <time>2021-11-14T16:54:10.310Z</time>
      </trkpt>
      <trkpt lat="47.467245" lon="7.900444">
        <ele>447.620081</ele>
        <time>2021-11-14T16:54:17.185Z</time>
      </trkpt>
      <trkpt lat="47.467108" lon="7.900644">
        <ele>447.852482</ele>
        <time>2021-11-14T16:54:21.271Z</time>
      </trkpt>
      <trkpt lat="47.466605" lon="7.901426">
        <ele>449.153601</ele>
        <time>2021-11-14T16:54:38.163Z</time>
      </trkpt>
      <trkpt lat="47.466371" lon="7.901784">
        <ele>449.901836</ele>
        <time>2021-11-14T16:54:46.293Z</time>
      </trkpt>
      <trkpt lat="47.465938" lon="7.902461">
        <ele>451.302191</ele>
        <time>2021-11-14T16:55:01.736Z</time>
      </trkpt>
      <trkpt lat="47.465643" lon="7.902890">
        <ele>452.221666</ele>
        <time>2021-11-14T16:55:11.743Z</time>
      </trkpt>
      <trkpt lat="47.465577" lon="7.902991">
        <ele>452.415420</ele>
        <time>2021-11-14T16:55:14.058Z</time>
      </trkpt>
      <trkpt lat="47.465231" lon="7.903593">
        <ele>453.500432</ele>
        <time>2021-11-14T16:55:26.165Z</time>
      </trkpt>
      <trkpt lat="47.463753" lon="7.907066">
        <ele>459.374634</ele>
        <time>2021-11-14T16:56:29.014Z</time>
      </trkpt>
      <trkpt lat="47.463375" lon="7.907958">
        <ele>461.117729</ele>
        <time>2021-11-14T16:56:48.633Z</time>
      </trkpt>
      <trkpt lat="47.463144" lon="7.908499">
        <ele>462.222080</ele>
        <time>2021-11-14T16:57:00.268Z</time>
      </trkpt>
      <trkpt lat="47.463026" lon="7.908779">
        <ele>462.791537</ele>
        <time>2021-11-14T16:57:06.659Z</time>
      </trkpt>
      <trkpt lat="47.461915" lon="7.911456">
        <ele>466.454509</ele>
        <time>2021-11-14T16:57:52.161Z</time>
      </trkpt>
      <trkpt lat="47.461598" lon="7.912222">
        <ele>467.119009</ele>
        <time>2021-11-14T16:58:01.872Z</time>
      </trkpt>
      <trkpt lat="47.461501" lon="7.912447">
        <ele>467.265328</ele>
        <time>2021-11-14T16:58:05.394Z</time>
      </trkpt>
      <trkpt lat="47.461343" lon="7.912835">
        <ele>467.513686</ele>
        <time>2021-11-14T16:58:10.537Z</time>
      </trkpt>
      <trkpt lat="47.461328" lon="7.912870">
        <ele>467.536408</ele>
        <time>2021-11-14T16:58:11.141Z</time>
      </trkpt>
      <trkpt lat="47.461271" lon="7.913000">
        <ele>467.621368</ele>
        <time>2021-11-14T16:58:12.690Z</time>
      </trkpt>
      <trkpt lat="47.461207" lon="7.913109">
        <ele>467.700527</ele>
        <time>2021-11-14T16:58:14.104Z</time>
      </trkpt>
      <trkpt lat="47.461143" lon="7.913171">
        <ele>467.762574</ele>
        <time>2021-11-14T16:58:15.279Z</time>
      </trkpt>
      <trkpt lat="47.461110" lon="7.913192">
        <ele>467.791710</ele>
        <time>2021-11-14T16:58:16.268Z</time>
      </trkpt>
      <trkpt lat="47.460750" lon="7.913229">
        <ele>468.084381</ele>
        <time>2021-11-14T16:58:22.579Z</time>
      </trkpt>
      <trkpt lat="47.460713" lon="7.913273">
        <ele>468.122885</ele>
        <time>2021-11-14T16:58:23.792Z</time>
      </trkpt>
      <trkpt lat="47.460667" lon="7.913326">
        <ele>468.170175</ele>
        <time>2021-11-14T16:58:24.683Z</time>
      </trkpt>
      <trkpt lat="47.460392" lon="7.913767">
        <ele>468.720082</ele>
        <time>2021-11-14T16:58:32.661Z</time>
      </trkpt>
      <trkpt lat="47.460317" lon="7.913896">
        <ele>468.936916</ele>
        <time>2021-11-14T16:58:35.006Z</time>
      </trkpt>
      <trkpt lat="47.460275" lon="7.913960">
        <ele>469.050586</ele>
        <time>2021-11-14T16:58:36.406Z</time>
      </trkpt>
      <trkpt lat="47.460201" lon="7.914138">
        <ele>469.316897</ele>
        <time>2021-11-14T16:58:40.134Z</time>
      </trkpt>
      <trkpt lat="47.460176" lon="7.914247">
        <ele>469.463590</ele>
        <time>2021-11-14T16:58:41.925Z</time>
      </trkpt>
      <trkpt lat="47.460169" lon="7.914287">
        <ele>469.516249</ele>
        <time>2021-11-14T16:58:42.530Z</time>
      </trkpt>
      <trkpt lat="47.460149" lon="7.914781">
        <ele>470.146964</ele>
        <time>2021-11-14T16:58:50.729Z</time>
      </trkpt>
      <trkpt lat="47.460145" lon="7.914955">
        <ele>470.368850</ele>
        <time>2021-11-14T16:58:53.105Z</time>
      </trkpt>
      <trkpt lat="47.460128" lon="7.915061">
        <ele>470.507693</ele>
        <time>2021-11-14T16:58:55.154Z</time>
      </trkpt>
      <trkpt lat="47.460080" lon="7.915335">
        <ele>470.868430</ele>
        <time>2021-11-14T16:58:59.382Z</time>
      </trkpt>
      <trkpt lat="47.459932" lon="7.915673">
        <ele>471.381651</ele>
        <time>2021-11-14T16:59:04.936Z</time>
      </trkpt>
      <trkpt lat="47.459878" lon="7.915750">
        <ele>471.523044</ele>
        <time>2021-11-14T16:59:06.791Z</time>
      </trkpt>
      <trkpt lat="47.459714" lon="7.915951">
        <ele>471.970697</ele>
        <time>2021-11-14T16:59:11.909Z</time>
      </trkpt>
      <trkpt lat="47.459166" lon="7.916411">
        <ele>473.430236</ele>
        <time>2021-11-14T16:59:26.265Z</time>
      </trkpt>
      <trkpt lat="47.458642" lon="7.917084">
        <ele>475.037762</ele>
        <time>2021-11-14T16:59:43.264Z</time>
      </trkpt>
      <trkpt lat="47.458598" lon="7.917139">
        <ele>475.171205</ele>
        <time>2021-11-14T16:59:44.976Z</time>
      </trkpt>
      <trkpt lat="47.458522" lon="7.917237">
        <ele>475.404759</ele>
        <time>2021-11-14T16:59:47.658Z</time>
      </trkpt>
      <trkpt lat="47.458384" lon="7.917415">
        <ele>475.828897</ele>
        <time>2021-11-14T16:59:51.433Z</time>
      </trkpt>
      <trkpt lat="47.458100" lon="7.917739">
        <ele>476.944332</ele>
        <time>2021-11-14T17:00:00.818Z</time>
      </trkpt>
      <trkpt lat="47.457956" lon="7.917906">
        <ele>477.524749</ele>
        <time>2021-11-14T17:00:06.146Z</time>
      </trkpt>
      <trkpt lat="47.457642" lon="7.918271">
        <ele>478.791505</ele>
        <time>2021-11-14T17:00:16.672Z</time>
      </trkpt>
      <trkpt lat="47.457242" lon="7.918756">
        <ele>480.432106</ele>
        <time>2021-11-14T17:00:30.929Z</time>
      </trkpt>
      <trkpt lat="47.456987" lon="7.919065">
        <ele>481.477737</ele>
        <time>2021-11-14T17:00:40.042Z</time>
      </trkpt>
      <trkpt lat="47.456385" lon="7.919748">
        <ele>484.979274</ele>
        <time>2021-11-14T17:01:04.601Z</time>
      </trkpt>
      <trkpt lat="47.456129" lon="7.920029">
        <ele>486.473920</ele>
        <time>2021-11-14T17:01:15.862Z</time>
      </trkpt>
      <trkpt lat="47.456040" lon="7.920152">
        <ele>487.045004</ele>
        <time>2021-11-14T17:01:20.248Z</time>
      </trkpt>
      <trkpt lat="47.455957" lon="7.920269">
        <ele>487.582575</ele>
        <time>2021-11-14T17:01:24.628Z</time>
      </trkpt>
      <trkpt lat="47.455855" lon="7.920456">
        <ele>488.344210</ele>
        <time>2021-11-14T17:01:29.706Z</time>
      </trkpt>
      <trkpt lat="47.455748" lon="7.920682">
        <ele>489.218807</ele>
        <time>2021-11-14T17:01:36.879Z</time>
      </trkpt>
      <trkpt lat="47.455440" lon="7.921283">
        <ele>491.628081</ele>
        <time>2021-11-14T17:01:54.423Z</time>
      </trkpt>
      <trkpt lat="47.454712" lon="7.922385">
        <ele>496.569712</ele>
        <time>2021-11-14T17:02:32.189Z</time>
      </trkpt>
      <trkpt lat="47.453985" lon="7.923101">
        <ele>500.284051</ele>
        <time>2021-11-14T17:02:56.987Z</time>
      </trkpt>
      <trkpt lat="47.453705" lon="7.923389">
        <ele>501.579735</ele>
        <time>2021-11-14T17:03:06.195Z</time>
      </trkpt>
      <trkpt lat="47.453630" lon="7.923466">
        <ele>501.926584</ele>
        <time>2021-11-14T17:03:09.180Z</time>
      </trkpt>
      <trkpt lat="47.453323" lon="7.923836">
        <ele>503.431105</ele>
        <time>2021-11-14T17:03:22.336Z</time>
      </trkpt>
      <trkpt lat="47.453061" lon="7.924274">
        <ele>504.933312</ele>
        <time>2021-11-14T17:03:34.658Z</time>
      </trkpt>
      <trkpt lat="47.452895" lon="7.924692">
        <ele>506.050147</ele>
        <time>2021-11-14T17:03:44.277Z</time>
      </trkpt>
      <trkpt lat="47.452841" lon="7.924858">
        <ele>506.446115</ele>
        <time>2021-11-14T17:03:47.493Z</time>
      </trkpt>
      <trkpt lat="47.452775" lon="7.925095">
        <ele>506.997069</ele>
        <time>2021-11-14T17:03:52.313Z</time>
      </trkpt>
      <trkpt lat="47.452753" lon="7.925193">
        <ele>507.219030</ele>
        <time>2021-11-14T17:03:54.570Z</time>
      </trkpt>
      <trkpt lat="47.452688" lon="7.925482">
        <ele>507.873713</ele>
        <time>2021-11-14T17:04:00.199Z</time>
      </trkpt>
      <trkpt lat="47.452590" lon="7.926029">
        <ele>509.090090</ele>
        <time>2021-11-14T17:04:10.505Z</time>
      </trkpt>
      <trkpt lat="47.452413" lon="7.926831">
        <ele>510.903535</ele>
        <time>2021-11-14T17:04:26.298Z</time>
      </trkpt>
      <trkpt lat="47.451879" lon="7.928656">
        <ele>517.385534</ele>
        <time>2021-11-14T17:04:58.854Z</time>
      </trkpt>
      <trkpt lat="47.451867" lon="7.928698">
        <ele>517.536723</ele>
        <time>2021-11-14T17:05:00.227Z</time>
      </trkpt>
      <trkpt lat="47.451764" lon="7.929065">
        <ele>518.854305</ele>
        <time>2021-11-14T17:05:14.371Z</time>
      </trkpt>
      <trkpt lat="47.451446" lon="7.929790">
        <ele>523.947645</ele>
        <time>2021-11-14T17:05:47.120Z</time>
      </trkpt>
      <trkpt lat="47.451050" lon="7.930364">
        <ele>530.050085</ele>
        <time>2021-11-14T17:06:23.512Z</time>
      </trkpt>
      <trkpt lat="47.451006" lon="7.930461">
        <ele>530.919322</ele>
        <time>2021-11-14T17:06:26.384Z</time>
      </trkpt>
      <trkpt lat="47.450968" lon="7.930596">
        <ele>532.007549</ele>
        <time>2021-11-14T17:06:35.809Z</time>
      </trkpt>
      <trkpt lat="47.450967" lon="7.930633">
        <ele>532.283121</ele>
        <time>2021-11-14T17:06:37.071Z</time>
      </trkpt>
      <trkpt lat="47.450961" lon="7.930883">
        <ele>534.144780</ele>
        <time>2021-11-14T17:06:46.508Z</time>
      </trkpt>
      <trkpt lat="47.451186" lon="7.931561">
        <ele>539.745571</ele>
        <time>2021-11-14T17:07:16.163Z</time>
      </trkpt>
      <trkpt lat="47.451193" lon="7.931724">
        <ele>540.384274</ele>
        <time>2021-11-14T17:07:20.151Z</time>
      </trkpt>
      <trkpt lat="47.451167" lon="7.931778">
        <ele>540.643503</ele>
        <time>2021-11-14T17:07:24.981Z</time>
      </trkpt>
      <trkpt lat="47.451114" lon="7.931844">
        <ele>541.044195</ele>
        <time>2021-11-14T17:07:25.634Z</time>
      </trkpt>
      <trkpt lat="47.450872" lon="7.931633">
        <ele>542.668810</ele>
        <time>2021-11-14T17:07:43.726Z</time>
      </trkpt>
      <trkpt lat="47.450538" lon="7.931342">
        <ele>544.910624</ele>
        <time>2021-11-14T17:08:03.549Z</time>
      </trkpt>
      <trkpt lat="47.450315" lon="7.931284">
        <ele>546.220020</ele>
        <time>2021-11-14T17:08:06.084Z</time>
      </trkpt>
      <trkpt lat="47.450049" lon="7.931360">
        <ele>547.786737</ele>
        <time>2021-11-14T17:08:13.445Z</time>
      </trkpt>
      <trkpt lat="47.448858" lon="7.932257">
        <ele>554.338983</ele>
        <time>2021-11-14T17:08:45.290Z</time>
      </trkpt>
      <trkpt lat="47.448660" lon="7.932571">
        <ele>555.651355</ele>
        <time>2021-11-14T17:08:55.682Z</time>
      </trkpt>
      <trkpt lat="47.448565" lon="7.932932">
        <ele>556.835472</ele>
        <time>2021-11-14T17:09:05.752Z</time>
      </trkpt>
      <trkpt lat="47.448531" lon="7.933279">
        <ele>557.907263</ele>
        <time>2021-11-14T17:09:16.448Z</time>
      </trkpt>
      <trkpt lat="47.448498" lon="7.933724">
        <ele>560.001419</ele>
        <time>2021-11-14T17:09:32.043Z</time>
      </trkpt>
      <trkpt lat="47.448301" lon="7.935459">
        <ele>569.204882</ele>
        <time>2021-11-14T17:10:32.036Z</time>
      </trkpt>
      <trkpt lat="47.448312" lon="7.935847">
        <ele>571.236437</ele>
        <time>2021-11-14T17:10:43.365Z</time>
      </trkpt>
      <trkpt lat="47.448315" lon="7.935953">
        <ele>571.791448</ele>
        <time>2021-11-14T17:10:45.453Z</time>
      </trkpt>
      <trkpt lat="47.448346" lon="7.936408">
        <ele>573.008264</ele>
        <time>2021-11-14T17:10:55.739Z</time>
      </trkpt>
      <trkpt lat="47.448362" lon="7.936645">
        <ele>573.527120</ele>
        <time>2021-11-14T17:11:00.581Z</time>
      </trkpt>
      <trkpt lat="47.448450" lon="7.937177">
        <ele>574.720215</ele>
        <time>2021-11-14T17:11:11.789Z</time>
      </trkpt>
      <trkpt lat="47.448600" lon="7.937601">
        <ele>575.762626</ele>
        <time>2021-11-14T17:11:21.033Z</time>
      </trkpt>
      <trkpt lat="47.448694" lon="7.937926">
        <ele>576.532652</ele>
        <time>2021-11-14T17:11:27.603Z</time>
      </trkpt>
      <trkpt lat="47.448743" lon="7.938101">
        <ele>576.945262</ele>
        <time>2021-11-14T17:11:29.844Z</time>
      </trkpt>
      <trkpt lat="47.448891" lon="7.938583">
        <ele>578.024750</ele>
        <time>2021-11-14T17:11:35.838Z</time>
      </trkpt>
      <trkpt lat="47.449074" lon="7.939072">
        <ele>578.577430</ele>
        <time>2021-11-14T17:11:42.127Z</time>
      </trkpt>
      <trkpt lat="47.449121" lon="7.939164">
        <ele>578.691451</ele>
        <time>2021-11-14T17:11:43.952Z</time>
      </trkpt>
      <trkpt lat="47.449095" lon="7.939194">
        <ele>578.739676</ele>
        <time>2021-11-14T17:11:44.370Z</time>
      </trkpt>
      <trkpt lat="47.448995" lon="7.939236">
        <ele>578.891694</ele>
        <time>2021-11-14T17:11:45.794Z</time>
      </trkpt>
      <trkpt lat="47.448737" lon="7.939187">
        <ele>579.272075</ele>
        <time>2021-11-14T17:11:50.751Z</time>
      </trkpt>
      <trkpt lat="47.448632" lon="7.939166">
        <ele>579.427018</ele>
        <time>2021-11-14T17:11:52.286Z</time>
      </trkpt>
      <trkpt lat="47.448566" lon="7.939145">
        <ele>579.525741</ele>
        <time>2021-11-14T17:11:53.510Z</time>
      </trkpt>
      <trkpt lat="47.448504" lon="7.939113">
        <ele>579.621770</ele>
        <time>2021-11-14T17:11:54.909Z</time>
      </trkpt>
      <trkpt lat="47.448323" lon="7.938940">
        <ele>579.936929</ele>
        <time>2021-11-14T17:11:59.136Z</time>
      </trkpt>
      <trkpt lat="47.448076" lon="7.938764">
        <ele>580.337873</ele>
        <time>2021-11-14T17:12:06.720Z</time>
      </trkpt>
      <trkpt lat="47.447884" lon="7.938706">
        <ele>580.705674</ele>
        <time>2021-11-14T17:12:12.158Z</time>
      </trkpt>
      <trkpt lat="47.447622" lon="7.938729">
        <ele>582.104228</ele>
        <time>2021-11-14T17:12:17.826Z</time>
      </trkpt>
      <trkpt lat="47.447579" lon="7.938758">
        <ele>582.356064</ele>
        <time>2021-11-14T17:12:19.673Z</time>
      </trkpt>
      <trkpt lat="47.447514" lon="7.938816">
        <ele>582.760599</ele>
        <time>2021-11-14T17:12:22.098Z</time>
      </trkpt>
      <trkpt lat="47.447375" lon="7.938987">
        <ele>583.724090</ele>
        <time>2021-11-14T17:12:26.168Z</time>
      </trkpt>
      <trkpt lat="47.447148" lon="7.939307">
        <ele>585.395274</ele>
        <time>2021-11-14T17:12:38.139Z</time>
      </trkpt>
      <trkpt lat="47.447088" lon="7.939400">
        <ele>585.858451</ele>
        <time>2021-11-14T17:12:41.492Z</time>
      </trkpt>
      <trkpt lat="47.447023" lon="7.939500">
        <ele>586.358274</ele>
        <time>2021-11-14T17:12:46.910Z</time>
      </trkpt>
      <trkpt lat="47.446911" lon="7.939640">
        <ele>587.139746</ele>
        <time>2021-11-14T17:12:51.729Z</time>
      </trkpt>
      <trkpt lat="47.446714" lon="7.939663">
        <ele>588.192748</ele>
        <time>2021-11-14T17:13:00.767Z</time>
      </trkpt>
      <trkpt lat="47.446350" lon="7.939484">
        <ele>590.243945</ele>
        <time>2021-11-14T17:13:17.453Z</time>
      </trkpt>
      <trkpt lat="47.446200" lon="7.939305">
        <ele>591.395620</ele>
        <time>2021-11-14T17:13:23.970Z</time>
      </trkpt>
      <trkpt lat="47.446136" lon="7.939210">
        <ele>591.937446</ele>
        <time>2021-11-14T17:13:29.149Z</time>
      </trkpt>
      <trkpt lat="47.445987" lon="7.938989">
        <ele>593.198391</ele>
        <time>2021-11-14T17:13:38.414Z</time>
      </trkpt>
      <trkpt lat="47.445739" lon="7.938730">
        <ele>595.012467</ele>
        <time>2021-11-14T17:13:52.624Z</time>
      </trkpt>
      <trkpt lat="47.445088" lon="7.938426">
        <ele>599.091449</ele>
        <time>2021-11-14T17:14:18.993Z</time>
      </trkpt>
      <trkpt lat="47.444935" lon="7.938269">
        <ele>600.204166</ele>
        <time>2021-11-14T17:14:25.275Z</time>
      </trkpt>
      <trkpt lat="47.444544" lon="7.937668">
        <ele>601.077482</ele>
        <time>2021-11-14T17:14:40.655Z</time>
      </trkpt>
      <trkpt lat="47.444304" lon="7.937471">
        <ele>601.172129</ele>
        <time>2021-11-14T17:14:45.736Z</time>
      </trkpt>
      <trkpt lat="47.444030" lon="7.937346">
        <ele>601.270998</ele>
        <time>2021-11-14T17:14:50.398Z</time>
      </trkpt>
      <trkpt lat="47.443821" lon="7.937284">
        <ele>601.344497</ele>
        <time>2021-11-14T17:14:53.288Z</time>
      </trkpt>
      <trkpt lat="47.443543" lon="7.937251">
        <ele>601.440660</ele>
        <time>2021-11-14T17:14:56.600Z</time>
      </trkpt>
      <trkpt lat="47.443323" lon="7.937236">
        <ele>601.516596</ele>
        <time>2021-11-14T17:14:58.974Z</time>
      </trkpt>
      <trkpt lat="47.442638" lon="7.937187">
        <ele>598.568993</ele>
        <time>2021-11-14T17:15:05.808Z</time>
      </trkpt>
      <trkpt lat="47.441541" lon="7.937289">
        <ele>593.154668</ele>
        <time>2021-11-14T17:15:15.824Z</time>
      </trkpt>
      <trkpt lat="47.441000" lon="7.937143">
        <ele>590.832320</ele>
        <time>2021-11-14T17:15:21.041Z</time>
      </trkpt>
      <trkpt lat="47.440806" lon="7.937210">
        <ele>590.020397</ele>
        <time>2021-11-14T17:15:22.852Z</time>
      </trkpt>
      <trkpt lat="47.440583" lon="7.937384">
        <ele>588.992774</ele>
        <time>2021-11-14T17:15:25.422Z</time>
      </trkpt>
      <trkpt lat="47.440535" lon="7.937445">
        <ele>588.734820</ele>
        <time>2021-11-14T17:15:25.955Z</time>
      </trkpt>
      <trkpt lat="47.440493" lon="7.937497">
        <ele>588.511561</ele>
        <time>2021-11-14T17:15:27.473Z</time>
      </trkpt>
      <trkpt lat="47.440276" lon="7.938174">
        <ele>586.446480</ele>
        <time>2021-11-14T17:15:32.693Z</time>
      </trkpt>
      <trkpt lat="47.440111" lon="7.938384">
        <ele>585.559196</ele>
        <time>2021-11-14T17:15:34.858Z</time>
      </trkpt>
      <trkpt lat="47.439973" lon="7.938391">
        <ele>585.160624</ele>
        <time>2021-11-14T17:15:36.517Z</time>
      </trkpt>
      <trkpt lat="47.439513" lon="7.938183">
        <ele>584.098801</ele>
        <time>2021-11-14T17:15:41.571Z</time>
      </trkpt>
      <trkpt lat="47.439305" lon="7.937977">
        <ele>583.546172</ele>
        <time>2021-11-14T17:15:44.474Z</time>
      </trkpt>
      <trkpt lat="47.439053" lon="7.937594">
        <ele>582.748419</ele>
        <time>2021-11-14T17:15:48.706Z</time>
      </trkpt>
      <trkpt lat="47.438795" lon="7.937030">
        <ele>581.731852</ele>
        <time>2021-11-14T17:15:53.662Z</time>
      </trkpt>
      <trkpt lat="47.438488" lon="7.936601">
        <ele>580.965041</ele>
        <time>2021-11-14T17:15:57.983Z</time>
      </trkpt>
      <trkpt lat="47.438097" lon="7.936295">
        <ele>580.265048</ele>
        <time>2021-11-14T17:16:02.556Z</time>
      </trkpt>
      <trkpt lat="47.437455" lon="7.935929">
        <ele>579.176334</ele>
        <time>2021-11-14T17:16:10.073Z</time>
      </trkpt>
      <trkpt lat="47.437163" lon="7.935805">
        <ele>578.695633</ele>
        <time>2021-11-14T17:16:14.259Z</time>
      </trkpt>
      <trkpt lat="47.436959" lon="7.935813">
        <ele>578.641899</ele>
        <time>2021-11-14T17:16:19.828Z</time>
      </trkpt>
      <trkpt lat="47.436817" lon="7.935819">
        <ele>578.782323</ele>
        <time>2021-11-14T17:16:21.340Z</time>
      </trkpt>
      <trkpt lat="47.436754" lon="7.935830">
        <ele>578.845031</ele>
        <time>2021-11-14T17:16:23.712Z</time>
      </trkpt>
      <trkpt lat="47.436645" lon="7.935783">
        <ele>578.957266</ele>
        <time>2021-11-14T17:16:26.906Z</time>
      </trkpt>
      <trkpt lat="47.436379" lon="7.935508">
        <ele>579.278118</ele>
        <time>2021-11-14T17:16:32.945Z</time>
      </trkpt>
      <trkpt lat="47.436041" lon="7.935466">
        <ele>579.613408</ele>
        <time>2021-11-14T17:16:39.097Z</time>
      </trkpt>
      <trkpt lat="47.435987" lon="7.935459">
        <ele>579.666991</ele>
        <time>2021-11-14T17:16:41.363Z</time>
      </trkpt>
      <trkpt lat="47.435945" lon="7.935453">
        <ele>579.708701</ele>
        <time>2021-11-14T17:16:42.102Z</time>
      </trkpt>
      <trkpt lat="47.435218" lon="7.935133">
        <ele>580.345157</ele>
        <time>2021-11-14T17:16:56.070Z</time>
      </trkpt>
      <trkpt lat="47.435139" lon="7.935085">
        <ele>580.362263</ele>
        <time>2021-11-14T17:16:57.210Z</time>
      </trkpt>
      <trkpt lat="47.435108" lon="7.935067">
        <ele>580.368934</ele>
        <time>2021-11-14T17:16:57.535Z</time>
      </trkpt>
      <trkpt lat="47.435021" lon="7.934988">
        <ele>580.389383</ele>
        <time>2021-11-14T17:16:59.161Z</time>
      </trkpt>
      <trkpt lat="47.434953" lon="7.934914">
        <ele>580.406294</ele>
        <time>2021-11-14T17:17:02.077Z</time>
      </trkpt>
      <trkpt lat="47.434806" lon="7.934720">
        <ele>580.445761</ele>
        <time>2021-11-14T17:17:04.280Z</time>
      </trkpt>
      <trkpt lat="47.434668" lon="7.934617">
        <ele>580.476723</ele>
        <time>2021-11-14T17:17:08.400Z</time>
      </trkpt>
      <trkpt lat="47.434614" lon="7.934590">
        <ele>580.488140</ele>
        <time>2021-11-14T17:17:08.986Z</time>
      </trkpt>
      <trkpt lat="47.434567" lon="7.934576">
        <ele>580.497742</ele>
        <time>2021-11-14T17:17:09.500Z</time>
      </trkpt>
      <trkpt lat="47.434298" lon="7.934609">
        <ele>580.551804</ele>
        <time>2021-11-14T17:17:13.108Z</time>
      </trkpt>
      <trkpt lat="47.433620" lon="7.934930">
        <ele>581.025972</ele>
        <time>2021-11-14T17:17:22.570Z</time>
      </trkpt>
      <trkpt lat="47.433512" lon="7.934950">
        <ele>581.453902</ele>
        <time>2021-11-14T17:17:23.751Z</time>
      </trkpt>
      <trkpt lat="47.433385" lon="7.935078">
        <ele>582.058216</ele>
        <time>2021-11-14T17:17:27.899Z</time>
      </trkpt>
      <trkpt lat="47.433187" lon="7.935304">
        <ele>583.041707</ele>
        <time>2021-11-14T17:17:33.860Z</time>
      </trkpt>
      <trkpt lat="47.433050" lon="7.935392">
        <ele>583.628983</ele>
        <time>2021-11-14T17:17:38.568Z</time>
      </trkpt>
      <trkpt lat="47.432965" lon="7.935043">
        <ele>584.615487</ele>
        <time>2021-11-14T17:17:47.943Z</time>
      </trkpt>
      <trkpt lat="47.432802" lon="7.934732">
        <ele>585.661818</ele>
        <time>2021-11-14T17:17:57.352Z</time>
      </trkpt>
      <trkpt lat="47.432647" lon="7.934240">
        <ele>587.105260</ele>
        <time>2021-11-14T17:18:11.917Z</time>
      </trkpt>
      <trkpt lat="47.432578" lon="7.933907">
        <ele>588.212578</ele>
        <time>2021-11-14T17:18:21.559Z</time>
      </trkpt>
      <trkpt lat="47.432569" lon="7.933827">
        <ele>588.566076</ele>
        <time>2021-11-14T17:18:23.234Z</time>
      </trkpt>
      <trkpt lat="47.432554" lon="7.933755">
        <ele>588.894461</ele>
        <time>2021-11-14T17:18:25.698Z</time>
      </trkpt>
      <trkpt lat="47.432488" lon="7.933576">
        <ele>589.783075</ele>
        <time>2021-11-14T17:18:30.581Z</time>
      </trkpt>
      <trkpt lat="47.432362" lon="7.933398">
        <ele>590.906094</ele>
        <time>2021-11-14T17:18:37.214Z</time>
      </trkpt>
      <trkpt lat="47.432257" lon="7.933273">
        <ele>591.774793</ele>
        <time>2021-11-14T17:18:43.196Z</time>
      </trkpt>
      <trkpt lat="47.431934" lon="7.932867">
        <ele>594.506772</ele>
        <time>2021-11-14T17:19:00.099Z</time>
      </trkpt>
      <trkpt lat="47.431916" lon="7.932769">
        <ele>594.949412</ele>
        <time>2021-11-14T17:19:03.683Z</time>
      </trkpt>
      <trkpt lat="47.431940" lon="7.932715">
        <ele>595.231050</ele>
        <time>2021-11-14T17:19:04.545Z</time>
      </trkpt>
      <trkpt lat="47.432246" lon="7.932289">
        <ele>597.939534</ele>
        <time>2021-11-14T17:19:22.768Z</time>
      </trkpt>
      <trkpt lat="47.432474" lon="7.931798">
        <ele>600.373846</ele>
        <time>2021-11-14T17:19:40.084Z</time>
      </trkpt>
      <trkpt lat="47.432491" lon="7.931730">
        <ele>600.647192</ele>
        <time>2021-11-14T17:19:41.779Z</time>
      </trkpt>
      <trkpt lat="47.432518" lon="7.931622">
        <ele>601.081331</ele>
        <time>2021-11-14T17:19:45.648Z</time>
      </trkpt>
      <trkpt lat="47.432664" lon="7.930471">
        <ele>605.496864</ele>
        <time>2021-11-14T17:20:14.954Z</time>
      </trkpt>
      <trkpt lat="47.432655" lon="7.930328">
        <ele>606.038379</ele>
        <time>2021-11-14T17:20:18.347Z</time>
      </trkpt>
      <trkpt lat="47.432626" lon="7.930198">
        <ele>606.554514</ele>
        <time>2021-11-14T17:20:21.260Z</time>
      </trkpt>
      <trkpt lat="47.432598" lon="7.930105">
        <ele>606.938337</ele>
        <time>2021-11-14T17:20:23.565Z</time>
      </trkpt>
      <trkpt lat="47.432548" lon="7.929945">
        <ele>607.602888</ele>
        <time>2021-11-14T17:20:27.973Z</time>
      </trkpt>
      <trkpt lat="47.432376" lon="7.929666">
        <ele>609.026198</ele>
        <time>2021-11-14T17:20:36.744Z</time>
      </trkpt>
      <trkpt lat="47.432320" lon="7.929632">
        <ele>609.363584</ele>
        <time>2021-11-14T17:20:39.627Z</time>
      </trkpt>
      <trkpt lat="47.432332" lon="7.929564">
        <ele>609.511523</ele>
        <time>2021-11-14T17:20:40.719Z</time>
      </trkpt>
      <trkpt lat="47.432341" lon="7.929083">
        <ele>610.524473</ele>
        <time>2021-11-14T17:20:51.138Z</time>
      </trkpt>
      <trkpt lat="47.432343" lon="7.928929">
        <ele>610.848721</ele>
        <time>2021-11-14T17:20:54.516Z</time>
      </trkpt>
      <trkpt lat="47.432392" lon="7.928678">
        <ele>611.398669</ele>
        <time>2021-11-14T17:21:00.014Z</time>
      </trkpt>
      <trkpt lat="47.432918" lon="7.927850">
        <ele>613.789811</ele>
        <time>2021-11-14T17:21:21.832Z</time>
      </trkpt>
      <trkpt lat="47.433296" lon="7.927408">
        <ele>614.823937</ele>
        <time>2021-11-14T17:21:30.520Z</time>
      </trkpt>
      <trkpt lat="47.433388" lon="7.927259">
        <ele>614.647141</ele>
        <time>2021-11-14T17:21:32.855Z</time>
      </trkpt>
      <trkpt lat="47.433455" lon="7.926970">
        <ele>614.379412</ele>
        <time>2021-11-14T17:21:36.435Z</time>
      </trkpt>
      <trkpt lat="47.433569" lon="7.926574">
        <ele>614.002254</ele>
        <time>2021-11-14T17:21:40.553Z</time>
      </trkpt>
      <trkpt lat="47.433985" lon="7.925315">
        <ele>612.774331</ele>
        <time>2021-11-14T17:21:50.828Z</time>
      </trkpt>
      <trkpt lat="47.434048" lon="7.924731">
        <ele>611.140379</ele>
        <time>2021-11-14T17:21:54.792Z</time>
      </trkpt>
      <trkpt lat="47.434048" lon="7.924524">
        <ele>610.418605</ele>
        <time>2021-11-14T17:21:56.115Z</time>
      </trkpt>
      <trkpt lat="47.434035" lon="7.924100">
        <ele>608.938669</ele>
        <time>2021-11-14T17:21:58.836Z</time>
      </trkpt>
      <trkpt lat="47.433902" lon="7.923204">
        <ele>605.740125</ele>
        <time>2021-11-14T17:22:04.527Z</time>
      </trkpt>
      <trkpt lat="47.433914" lon="7.922971">
        <ele>604.925339</ele>
        <time>2021-11-14T17:22:05.970Z</time>
      </trkpt>
      <trkpt lat="47.434253" lon="7.922015">
        <ele>600.925532</ele>
        <time>2021-11-14T17:22:12.639Z</time>
      </trkpt>
      <trkpt lat="47.434378" lon="7.921753">
        <ele>599.687485</ele>
        <time>2021-11-14T17:22:14.681Z</time>
      </trkpt>
      <trkpt lat="47.434524" lon="7.921435">
        <ele>598.203393</ele>
        <time>2021-11-14T17:22:17.101Z</time>
      </trkpt>
      <trkpt lat="47.434702" lon="7.921025">
        <ele>596.322149</ele>
        <time>2021-11-14T17:22:20.174Z</time>
      </trkpt>
      <trkpt lat="47.435252" lon="7.920039">
        <ele>591.449230</ele>
        <time>2021-11-14T17:22:28.138Z</time>
      </trkpt>
      <trkpt lat="47.435333" lon="7.919826">
        <ele>590.540047</ele>
        <time>2021-11-14T17:22:29.676Z</time>
      </trkpt>
      <trkpt lat="47.435403" lon="7.919605">
        <ele>589.632071</ele>
        <time>2021-11-14T17:22:31.211Z</time>
      </trkpt>
      <trkpt lat="47.435475" lon="7.919362">
        <ele>588.644988</ele>
        <time>2021-11-14T17:22:32.902Z</time>
      </trkpt>
      <trkpt lat="47.435658" lon="7.918713">
        <ele>586.028809</ele>
        <time>2021-11-14T17:22:37.324Z</time>
      </trkpt>
      <trkpt lat="47.435776" lon="7.918311">
        <ele>584.398308</ele>
        <time>2021-11-14T17:22:40.077Z</time>
      </trkpt>
      <trkpt lat="47.436025" lon="7.917438">
        <ele>581.235300</ele>
        <time>2021-11-14T17:22:46.067Z</time>
      </trkpt>
      <trkpt lat="47.436153" lon="7.916928">
        <ele>579.526652</ele>
        <time>2021-11-14T17:22:49.498Z</time>
      </trkpt>
      <trkpt lat="47.436405" lon="7.916185">
        <ele>576.915919</ele>
        <time>2021-11-14T17:22:54.912Z</time>
      </trkpt>
      <trkpt lat="47.436789" lon="7.915276">
        <ele>573.995972</ele>
        <time>2021-11-14T17:23:02.035Z</time>
      </trkpt>
      <trkpt lat="47.436788" lon="7.915208">
        <ele>573.855924</ele>
        <time>2021-11-14T17:23:02.457Z</time>
      </trkpt>
      <trkpt lat="47.436779" lon="7.915143">
        <ele>573.719311</ele>
        <time>2021-11-14T17:23:02.858Z</time>
      </trkpt>
      <trkpt lat="47.436426" lon="7.914382">
        <ele>571.819312</ele>
        <time>2021-11-14T17:23:09.528Z</time>
      </trkpt>
      <trkpt lat="47.436328" lon="7.913781">
        <ele>570.546366</ele>
        <time>2021-11-14T17:23:13.835Z</time>
      </trkpt>
      <trkpt lat="47.436332" lon="7.913599">
        <ele>570.171419</ele>
        <time>2021-11-14T17:23:15.032Z</time>
      </trkpt>
      <trkpt lat="47.436396" lon="7.913182">
        <ele>569.322846</ele>
        <time>2021-11-14T17:23:17.983Z</time>
      </trkpt>
      <trkpt lat="47.436408" lon="7.913110">
        <ele>569.231682</ele>
        <time>2021-11-14T17:23:18.497Z</time>
      </trkpt>
      <trkpt lat="47.436476" lon="7.912706">
        <ele>568.719859</ele>
        <time>2021-11-14T17:23:21.711Z</time>
      </trkpt>
      <trkpt lat="47.436515" lon="7.912405">
        <ele>568.343082</ele>
        <time>2021-11-14T17:23:23.990Z</time>
      </trkpt>
      <trkpt lat="47.436578" lon="7.912267">
        <ele>568.138400</ele>
        <time>2021-11-14T17:23:25.295Z</time>
      </trkpt>
      <trkpt lat="47.436616" lon="7.912213">
        <ele>568.042601</ele>
        <time>2021-11-14T17:23:25.843Z</time>
      </trkpt>
      <trkpt lat="47.436670" lon="7.912144">
        <ele>567.912876</ele>
        <time>2021-11-14T17:23:26.564Z</time>
      </trkpt>
      <trkpt lat="47.436758" lon="7.912084">
        <ele>567.736743</ele>
        <time>2021-11-14T17:23:27.741Z</time>
      </trkpt>
      <trkpt lat="47.436962" lon="7.911943">
        <ele>567.327445</ele>
        <time>2021-11-14T17:23:30.231Z</time>
      </trkpt>
      <trkpt lat="47.437154" lon="7.911831">
        <ele>566.952296</ele>
        <time>2021-11-14T17:23:32.696Z</time>
      </trkpt>
      <trkpt lat="47.437281" lon="7.911740">
        <ele>566.695786</ele>
        <time>2021-11-14T17:23:34.273Z</time>
      </trkpt>
      <trkpt lat="47.437939" lon="7.911215">
        <ele>565.835358</ele>
        <time>2021-11-14T17:23:43.122Z</time>
      </trkpt>
      <trkpt lat="47.438339" lon="7.910703">
        <ele>565.501102</ele>
        <time>2021-11-14T17:23:49.606Z</time>
      </trkpt>
      <trkpt lat="47.438659" lon="7.910501">
        <ele>565.281282</ele>
        <time>2021-11-14T17:23:54.076Z</time>
      </trkpt>
      <trkpt lat="47.438881" lon="7.910291">
        <ele>565.114780</ele>
        <time>2021-11-14T17:23:58.057Z</time>
      </trkpt>
      <trkpt lat="47.438918" lon="7.910246">
        <ele>565.084512</ele>
        <time>2021-11-14T17:23:58.803Z</time>
      </trkpt>
      <trkpt lat="47.439047" lon="7.910071">
        <ele>564.973906</ele>
        <time>2021-11-14T17:24:01.625Z</time>
      </trkpt>
      <trkpt lat="47.439145" lon="7.909911">
        <ele>565.073660</ele>
        <time>2021-11-14T17:24:03.865Z</time>
      </trkpt>
      <trkpt lat="47.439483" lon="7.909286">
        <ele>565.522710</ele>
        <time>2021-11-14T17:24:13.112Z</time>
      </trkpt>
      <trkpt lat="47.439518" lon="7.909224">
        <ele>565.568027</ele>
        <time>2021-11-14T17:24:14.001Z</time>
      </trkpt>
      <trkpt lat="47.439615" lon="7.909100">
        <ele>565.674415</ele>
        <time>2021-11-14T17:24:15.997Z</time>
      </trkpt>
      <trkpt lat="47.439774" lon="7.908833">
        <ele>565.874041</ele>
        <time>2021-11-14T17:24:20.402Z</time>
      </trkpt>
      <trkpt lat="47.440124" lon="7.908395">
        <ele>566.254477</ele>
        <time>2021-11-14T17:24:29.082Z</time>
      </trkpt>
      <trkpt lat="47.440306" lon="7.908217">
        <ele>566.435522</ele>
        <time>2021-11-14T17:24:34.269Z</time>
      </trkpt>
      <trkpt lat="47.440348" lon="7.908111">
        <ele>566.525881</ele>
        <time>2021-11-14T17:24:35.666Z</time>
      </trkpt>
      <trkpt lat="47.440484" lon="7.907616">
        <ele>566.960821</ele>
        <time>2021-11-14T17:24:43.903Z</time>
      </trkpt>
      <trkpt lat="47.440578" lon="7.907274">
        <ele>567.261341</ele>
        <time>2021-11-14T17:24:50.013Z</time>
      </trkpt>
      <trkpt lat="47.440645" lon="7.907088">
        <ele>567.432892</ele>
        <time>2021-11-14T17:24:52.696Z</time>
      </trkpt>
      <trkpt lat="47.440689" lon="7.906996">
        <ele>567.524618</ele>
        <time>2021-11-14T17:24:54.349Z</time>
      </trkpt>
      <trkpt lat="47.440759" lon="7.906942">
        <ele>567.619648</ele>
        <time>2021-11-14T17:24:56.488Z</time>
      </trkpt>
      <trkpt lat="47.440946" lon="7.906861">
        <ele>567.854182</ele>
        <time>2021-11-14T17:24:59.443Z</time>
      </trkpt>
      <trkpt lat="47.441212" lon="7.906790">
        <ele>568.179516</ele>
        <time>2021-11-14T17:25:05.081Z</time>
      </trkpt>
      <trkpt lat="47.441463" lon="7.906711">
        <ele>568.488389</ele>
        <time>2021-11-14T17:25:09.342Z</time>
      </trkpt>
      <trkpt lat="47.441570" lon="7.906678">
        <ele>568.619947</ele>
        <time>2021-11-14T17:25:10.898Z</time>
      </trkpt>
      <trkpt lat="47.441622" lon="7.906657">
        <ele>568.597354</ele>
        <time>2021-11-14T17:25:11.526Z</time>
      </trkpt>
      <trkpt lat="47.441743" lon="7.906608">
        <ele>568.538844</ele>
        <time>2021-11-14T17:25:13.375Z</time>
      </trkpt>
      <trkpt lat="47.441977" lon="7.906511">
        <ele>568.425504</ele>
        <time>2021-11-14T17:25:16.887Z</time>
      </trkpt>
      <trkpt lat="47.442196" lon="7.906411">
        <ele>568.318608</ele>
        <time>2021-11-14T17:25:20.530Z</time>
      </trkpt>
      <trkpt lat="47.442338" lon="7.906317">
        <ele>568.246049</ele>
        <time>2021-11-14T17:25:22.660Z</time>
      </trkpt>
      <trkpt lat="47.442586" lon="7.906135">
        <ele>568.116925</ele>
        <time>2021-11-14T17:25:26.951Z</time>
      </trkpt>
      <trkpt lat="47.443060" lon="7.905749">
        <ele>567.864552</ele>
        <time>2021-11-14T17:25:33.600Z</time>
      </trkpt>
      <trkpt lat="47.443437" lon="7.905338">
        <ele>566.933171</ele>
        <time>2021-11-14T17:25:38.962Z</time>
      </trkpt>
      <trkpt lat="47.443478" lon="7.905315">
        <ele>566.806166</ele>
        <time>2021-11-14T17:25:39.732Z</time>
      </trkpt>
      <trkpt lat="47.443616" lon="7.905326">
        <ele>566.405904</ele>
        <time>2021-11-14T17:25:41.253Z</time>
      </trkpt>
      <trkpt lat="47.443715" lon="7.905422">
        <ele>566.063016</ele>
        <time>2021-11-14T17:25:42.445Z</time>
      </trkpt>
      <trkpt lat="47.443887" lon="7.905861">
        <ele>565.069245</ele>
        <time>2021-11-14T17:25:46.146Z</time>
      </trkpt>
      <trkpt lat="47.444021" lon="7.905974">
        <ele>564.622468</ele>
        <time>2021-11-14T17:25:47.824Z</time>
      </trkpt>
      <trkpt lat="47.444060" lon="7.905957">
        <ele>564.504708</ele>
        <time>2021-11-14T17:25:48.582Z</time>
      </trkpt>
      <trkpt lat="47.444095" lon="7.905911">
        <ele>564.369083</ele>
        <time>2021-11-14T17:25:49.056Z</time>
      </trkpt>
      <trkpt lat="47.444124" lon="7.905848">
        <ele>564.219811</ele>
        <time>2021-11-14T17:25:49.518Z</time>
      </trkpt>
      <trkpt lat="47.444103" lon="7.905127">
        <ele>562.806240</ele>
        <time>2021-11-14T17:25:54.311Z</time>
      </trkpt>
      <trkpt lat="47.443812" lon="7.904620">
        <ele>559.525391</ele>
        <time>2021-11-14T17:25:58.539Z</time>
      </trkpt>
      <trkpt lat="47.443774" lon="7.904468">
        <ele>558.621036</ele>
        <time>2021-11-14T17:25:59.551Z</time>
      </trkpt>
      <trkpt lat="47.443987" lon="7.903658">
        <ele>553.771063</ele>
        <time>2021-11-14T17:26:04.731Z</time>
      </trkpt>
      <trkpt lat="47.444039" lon="7.903160">
        <ele>550.958991</ele>
        <time>2021-11-14T17:26:07.674Z</time>
      </trkpt>
      <trkpt lat="47.443979" lon="7.902634">
        <ele>547.982131</ele>
        <time>2021-11-14T17:26:10.756Z</time>
      </trkpt>
      <trkpt lat="47.443701" lon="7.901256">
        <ele>537.070102</ele>
        <time>2021-11-14T17:26:18.989Z</time>
      </trkpt>
      <trkpt lat="47.443601" lon="7.899993">
        <ele>527.349501</ele>
        <time>2021-11-14T17:26:26.294Z</time>
      </trkpt>
      <trkpt lat="47.443656" lon="7.899062">
        <ele>522.137641</ele>
        <time>2021-11-14T17:26:31.733Z</time>
      </trkpt>
      <trkpt lat="47.443973" lon="7.897319">
        <ele>512.236842</ele>
        <time>2021-11-14T17:26:42.638Z</time>
      </trkpt>
      <trkpt lat="47.444057" lon="7.896377">
        <ele>508.775799</ele>
        <time>2021-11-14T17:26:48.660Z</time>
      </trkpt>
      <trkpt lat="47.444186" lon="7.895774">
        <ele>506.472035</ele>
        <time>2021-11-14T17:26:52.700Z</time>
      </trkpt>
      <trkpt lat="47.444269" lon="7.895507">
        <ele>505.401640</ele>
        <time>2021-11-14T17:26:54.581Z</time>
      </trkpt>
      <trkpt lat="47.444374" lon="7.895190">
        <ele>504.115885</ele>
        <time>2021-11-14T17:26:56.833Z</time>
      </trkpt>
      <trkpt lat="47.444611" lon="7.894568">
        <ele>501.475408</ele>
        <time>2021-11-14T17:27:01.391Z</time>
      </trkpt>
      <trkpt lat="47.445231" lon="7.893511">
        <ele>496.227442</ele>
        <time>2021-11-14T17:27:10.128Z</time>
      </trkpt>
      <trkpt lat="47.445595" lon="7.891655">
        <ele>488.478200</ele>
        <time>2021-11-14T17:27:22.230Z</time>
      </trkpt>
      <trkpt lat="47.445742" lon="7.891213">
        <ele>486.393739</ele>
        <time>2021-11-14T17:27:25.279Z</time>
      </trkpt>
      <trkpt lat="47.446400" lon="7.890153">
        <ele>479.442668</ele>
        <time>2021-11-14T17:27:34.165Z</time>
      </trkpt>
      <trkpt lat="47.446569" lon="7.889962">
        <ele>477.245600</ele>
        <time>2021-11-14T17:27:36.048Z</time>
      </trkpt>
      <trkpt lat="47.446668" lon="7.889866">
        <ele>476.022771</ele>
        <time>2021-11-14T17:27:37.037Z</time>
      </trkpt>
      <trkpt lat="47.447331" lon="7.889272">
        <ele>468.015784</ele>
        <time>2021-11-14T17:27:43.624Z</time>
      </trkpt>
      <trkpt lat="47.447509" lon="7.889081">
        <ele>465.744172</ele>
        <time>2021-11-14T17:27:45.508Z</time>
      </trkpt>
      <trkpt lat="47.447650" lon="7.888831">
        <ele>463.470299</ele>
        <time>2021-11-14T17:27:47.386Z</time>
      </trkpt>
      <trkpt lat="47.447728" lon="7.888631">
        <ele>461.932857</ele>
        <time>2021-11-14T17:27:48.684Z</time>
      </trkpt>
      <trkpt lat="47.447781" lon="7.888460">
        <ele>460.701731</ele>
        <time>2021-11-14T17:27:49.749Z</time>
      </trkpt>
      <trkpt lat="47.447918" lon="7.888002">
        <ele>457.424015</ele>
        <time>2021-11-14T17:27:52.627Z</time>
      </trkpt>
      <trkpt lat="47.447924" lon="7.887980">
        <ele>457.268759</ele>
        <time>2021-11-14T17:27:52.760Z</time>
      </trkpt>
      <trkpt lat="47.447994" lon="7.887745">
        <ele>455.588117</ele>
        <time>2021-11-14T17:27:54.253Z</time>
      </trkpt>
      <trkpt lat="47.448053" lon="7.887573">
        <ele>454.325859</ele>
        <time>2021-11-14T17:27:55.363Z</time>
      </trkpt>
      <trkpt lat="47.448187" lon="7.887164">
        <ele>451.351401</ele>
        <time>2021-11-14T17:27:58.003Z</time>
      </trkpt>
      <trkpt lat="47.448252" lon="7.886934">
        <ele>449.719924</ele>
        <time>2021-11-14T17:27:59.487Z</time>
      </trkpt>
      <trkpt lat="47.448327" lon="7.886693">
        <ele>447.983614</ele>
        <time>2021-11-14T17:28:01.024Z</time>
      </trkpt>
      <trkpt lat="47.448449" lon="7.886310">
        <ele>445.513280</ele>
        <time>2021-11-14T17:28:03.630Z</time>
      </trkpt>
      <trkpt lat="47.448479" lon="7.886216">
        <ele>445.306838</ele>
        <time>2021-11-14T17:28:04.294Z</time>
      </trkpt>
      <trkpt lat="47.448509" lon="7.886022">
        <ele>444.911586</ele>
        <time>2021-11-14T17:28:05.587Z</time>
      </trkpt>
      <trkpt lat="47.448510" lon="7.885941">
        <ele>444.750683</ele>
        <time>2021-11-14T17:28:06.142Z</time>
      </trkpt>
      <trkpt lat="47.448503" lon="7.885850">
        <ele>444.568781</ele>
        <time>2021-11-14T17:28:06.802Z</time>
      </trkpt>
      <trkpt lat="47.448497" lon="7.885784">
        <ele>444.436518</ele>
        <time>2021-11-14T17:28:07.259Z</time>
      </trkpt>
      <trkpt lat="47.448623" lon="7.885730">
        <ele>444.051234</ele>
        <time>2021-11-14T17:28:08.600Z</time>
      </trkpt>
      <trkpt lat="47.448727" lon="7.885648">
        <ele>443.705086</ele>
        <time>2021-11-14T17:28:09.858Z</time>
      </trkpt>
      <trkpt lat="47.448759" lon="7.885611">
        <ele>443.585784</ele>
        <time>2021-11-14T17:28:10.275Z</time>
      </trkpt>
      <trkpt lat="47.448801" lon="7.885554">
        <ele>443.418357</ele>
        <time>2021-11-14T17:28:10.901Z</time>
      </trkpt>
      <trkpt lat="47.448867" lon="7.885429">
        <ele>443.103384</ele>
        <time>2021-11-14T17:28:12.036Z</time>
      </trkpt>
      <trkpt lat="47.449022" lon="7.885187">
        <ele>442.441385</ele>
        <time>2021-11-14T17:28:14.491Z</time>
      </trkpt>
      <trkpt lat="47.449068" lon="7.885121">
        <ele>442.253145</ele>
        <time>2021-11-14T17:28:15.165Z</time>
      </trkpt>
      <trkpt lat="47.449712" lon="7.884119">
        <ele>439.988733</ele>
        <time>2021-11-14T17:28:26.207Z</time>
      </trkpt>
      <trkpt lat="47.450274" lon="7.883264">
        <ele>438.954599</ele>
        <time>2021-11-14T17:28:35.848Z</time>
      </trkpt>
      <trkpt lat="47.450472" lon="7.882973">
        <ele>438.596569</ele>
        <time>2021-11-14T17:28:39.114Z</time>
      </trkpt>
      <trkpt lat="47.450548" lon="7.882846">
        <ele>438.449486</ele>
        <time>2021-11-14T17:28:40.477Z</time>
      </trkpt>
      <trkpt lat="47.450650" lon="7.882664">
        <ele>438.244474</ele>
        <time>2021-11-14T17:28:42.346Z</time>
      </trkpt>
      <trkpt lat="47.450733" lon="7.882508">
        <ele>438.072319</ele>
        <time>2021-11-14T17:28:43.900Z</time>
      </trkpt>
      <trkpt lat="47.450772" lon="7.882435">
        <ele>437.995890</ele>
        <time>2021-11-14T17:28:44.644Z</time>
      </trkpt>
      <trkpt lat="47.451051" lon="7.881948">
        <ele>437.479613</ele>
        <time>2021-11-14T17:28:49.673Z</time>
      </trkpt>
      <trkpt lat="47.451241" lon="7.881654">
        <ele>437.150673</ele>
        <time>2021-11-14T17:28:52.887Z</time>
      </trkpt>
      <trkpt lat="47.451309" lon="7.881545">
        <ele>437.030719</ele>
        <time>2021-11-14T17:28:54.085Z</time>
      </trkpt>
      <trkpt lat="47.451351" lon="7.881477">
        <ele>436.956226</ele>
        <time>2021-11-14T17:28:54.814Z</time>
      </trkpt>
      <trkpt lat="47.451581" lon="7.881111">
        <ele>436.552089</ele>
        <time>2021-11-14T17:28:58.864Z</time>
      </trkpt>
      <trkpt lat="47.451953" lon="7.880518">
        <ele>435.899963</ele>
        <time>2021-11-14T17:29:05.456Z</time>
      </trkpt>
      <trkpt lat="47.452247" lon="7.879980">
        <ele>435.555392</ele>
        <time>2021-11-14T17:29:11.391Z</time>
      </trkpt>
      <trkpt lat="47.452655" lon="7.879223">
        <ele>435.073179</ele>
        <time>2021-11-14T17:29:19.789Z</time>
      </trkpt>
      <trkpt lat="47.452813" lon="7.878981">
        <ele>434.905611</ele>
        <time>2021-11-14T17:29:22.825Z</time>
      </trkpt>
      <trkpt lat="47.453057" lon="7.878652">
        <ele>434.662369</ele>
        <time>2021-11-14T17:29:27.134Z</time>
      </trkpt>
      <trkpt lat="47.453302" lon="7.878355">
        <ele>434.436693</ele>
        <time>2021-11-14T17:29:31.178Z</time>
      </trkpt>
      <trkpt lat="47.453517" lon="7.878069">
        <ele>434.234636</ele>
        <time>2021-11-14T17:29:34.762Z</time>
      </trkpt>
      <trkpt lat="47.453945" lon="7.877554">
        <ele>433.849100</ele>
        <time>2021-11-14T17:29:41.616Z</time>
      </trkpt>
      <trkpt lat="47.454362" lon="7.877045">
        <ele>433.471307</ele>
        <time>2021-11-14T17:29:48.234Z</time>
      </trkpt>
      <trkpt lat="47.454502" lon="7.876895">
        <ele>433.350511</ele>
        <time>2021-11-14T17:29:50.533Z</time>
      </trkpt>
      <trkpt lat="47.455123" lon="7.876253">
        <ele>433.108424</ele>
        <time>2021-11-14T17:30:01.874Z</time>
      </trkpt>
      <trkpt lat="47.455446" lon="7.875966">
        <ele>432.996272</ele>
        <time>2021-11-14T17:30:08.255Z</time>
      </trkpt>
      <trkpt lat="47.455780" lon="7.875652">
        <ele>432.878477</ele>
        <time>2021-11-14T17:30:14.300Z</time>
      </trkpt>
      <trkpt lat="47.456403" lon="7.875046">
        <ele>431.829044</ele>
        <time>2021-11-14T17:30:22.895Z</time>
      </trkpt>
      <trkpt lat="47.456658" lon="7.874665">
        <ele>431.033150</ele>
        <time>2021-11-14T17:30:26.985Z</time>
      </trkpt>
      <trkpt lat="47.456714" lon="7.874531">
        <ele>430.799279</ele>
        <time>2021-11-14T17:30:28.364Z</time>
      </trkpt>
      <trkpt lat="47.456788" lon="7.874217">
        <ele>430.305603</ele>
        <time>2021-11-14T17:30:30.744Z</time>
      </trkpt>
      <trkpt lat="47.456816" lon="7.873911">
        <ele>429.847168</ele>
        <time>2021-11-14T17:30:32.939Z</time>
      </trkpt>
      <trkpt lat="47.456839" lon="7.873690">
        <ele>429.515204</ele>
        <time>2021-11-14T17:30:34.441Z</time>
      </trkpt>
      <trkpt lat="47.456956" lon="7.873025">
        <ele>428.317887</ele>
        <time>2021-11-14T17:30:39.129Z</time>
      </trkpt>
      <trkpt lat="47.457107" lon="7.872555">
        <ele>427.145086</ele>
        <time>2021-11-14T17:30:42.558Z</time>
      </trkpt>
      <trkpt lat="47.457598" lon="7.871461">
        <ele>424.185651</ele>
        <time>2021-11-14T17:30:51.278Z</time>
      </trkpt>
      <trkpt lat="47.457834" lon="7.870782">
        <ele>422.625767</ele>
        <time>2021-11-14T17:30:56.867Z</time>
      </trkpt>
      <trkpt lat="47.457897" lon="7.870571">
        <ele>422.327932</ele>
        <time>2021-11-14T17:30:58.494Z</time>
      </trkpt>
      <trkpt lat="47.458055" lon="7.870048">
        <ele>421.588267</ele>
        <time>2021-11-14T17:31:02.764Z</time>
      </trkpt>
      <trkpt lat="47.458252" lon="7.869378">
        <ele>420.644874</ele>
        <time>2021-11-14T17:31:08.312Z</time>
      </trkpt>
      <trkpt lat="47.458680" lon="7.868173">
        <ele>419.003008</ele>
        <time>2021-11-14T17:31:18.810Z</time>
      </trkpt>
      <trkpt lat="47.458844" lon="7.867795">
        <ele>418.552306</ele>
        <time>2021-11-14T17:31:22.321Z</time>
      </trkpt>
      <trkpt lat="47.459058" lon="7.867339">
        <ele>417.995285</ele>
        <time>2021-11-14T17:31:26.603Z</time>
      </trkpt>
      <trkpt lat="47.459152" lon="7.867074">
        <ele>417.694985</ele>
        <time>2021-11-14T17:31:28.858Z</time>
      </trkpt>
      <trkpt lat="47.459231" lon="7.866811">
        <ele>417.406193</ele>
        <time>2021-11-14T17:31:31.260Z</time>
      </trkpt>
      <trkpt lat="47.459383" lon="7.866214">
        <ele>416.766043</ele>
        <time>2021-11-14T17:31:36.251Z</time>
      </trkpt>
      <trkpt lat="47.459497" lon="7.865844">
        <ele>416.386738</ele>
        <time>2021-11-14T17:31:39.550Z</time>
      </trkpt>
      <trkpt lat="47.459563" lon="7.865651">
        <ele>416.186150</ele>
        <time>2021-11-14T17:31:41.115Z</time>
      </trkpt>
      <trkpt lat="47.459616" lon="7.865526">
        <ele>416.049310</ele>
        <time>2021-11-14T17:31:42.500Z</time>
      </trkpt>
      <trkpt lat="47.460001" lon="7.864512">
        <ele>414.970755</ele>
        <time>2021-11-14T17:31:51.653Z</time>
      </trkpt>
      <trkpt lat="47.460115" lon="7.864146">
        <ele>414.597029</ele>
        <time>2021-11-14T17:31:54.826Z</time>
      </trkpt>
      <trkpt lat="47.460271" lon="7.863810">
        <ele>414.203625</ele>
        <time>2021-11-14T17:31:57.985Z</time>
      </trkpt>
      <trkpt lat="47.460398" lon="7.863603">
        <ele>413.865743</ele>
        <time>2021-11-14T17:32:00.296Z</time>
      </trkpt>
      <trkpt lat="47.460527" lon="7.863440">
        <ele>413.562406</ele>
        <time>2021-11-14T17:32:02.278Z</time>
      </trkpt>
      <trkpt lat="47.460786" lon="7.863164">
        <ele>412.991683</ele>
        <time>2021-11-14T17:32:05.931Z</time>
      </trkpt>
      <trkpt lat="47.461098" lon="7.862848">
        <ele>412.315622</ele>
        <time>2021-11-14T17:32:10.129Z</time>
      </trkpt>
      <trkpt lat="47.461353" lon="7.862539">
        <ele>411.726252</ele>
        <time>2021-11-14T17:32:13.763Z</time>
      </trkpt>
      <trkpt lat="47.461527" lon="7.862242">
        <ele>411.251219</ele>
        <time>2021-11-14T17:32:16.619Z</time>
      </trkpt>
      <trkpt lat="47.461541" lon="7.862217">
        <ele>411.211980</ele>
        <time>2021-11-14T17:32:16.875Z</time>
      </trkpt>
      <trkpt lat="47.461855" lon="7.861499">
        <ele>410.087056</ele>
        <time>2021-11-14T17:32:23.110Z</time>
      </trkpt>
      <trkpt lat="47.462231" lon="7.860873">
        <ele>408.969369</ele>
        <time>2021-11-14T17:32:29.289Z</time>
      </trkpt>
      <trkpt lat="47.462285" lon="7.860769">
        <ele>408.794338</ele>
        <time>2021-11-14T17:32:30.202Z</time>
      </trkpt>
      <trkpt lat="47.462327" lon="7.860669">
        <ele>408.637203</ele>
        <time>2021-11-14T17:32:31.053Z</time>
      </trkpt>
      <trkpt lat="47.462442" lon="7.860255">
        <ele>408.039787</ele>
        <time>2021-11-14T17:32:34.420Z</time>
      </trkpt>
      <trkpt lat="47.462471" lon="7.860097">
        <ele>407.821261</ele>
        <time>2021-11-14T17:32:35.705Z</time>
      </trkpt>
      <trkpt lat="47.462535" lon="7.859721">
        <ele>407.401974</ele>
        <time>2021-11-14T17:32:38.695Z</time>
      </trkpt>
      <trkpt lat="47.462623" lon="7.859309">
        <ele>407.109624</ele>
        <time>2021-11-14T17:32:42.188Z</time>
      </trkpt>
      <trkpt lat="47.462691" lon="7.859060">
        <ele>406.927919</ele>
        <time>2021-11-14T17:32:44.363Z</time>
      </trkpt>
      <trkpt lat="47.462720" lon="7.858959">
        <ele>406.853673</ele>
        <time>2021-11-14T17:32:45.258Z</time>
      </trkpt>
      <trkpt lat="47.462764" lon="7.858828">
        <ele>406.754699</ele>
        <time>2021-11-14T17:32:46.438Z</time>
      </trkpt>
      <trkpt lat="47.462979" lon="7.858360">
        <ele>406.371852</ele>
        <time>2021-11-14T17:32:51.130Z</time>
      </trkpt>
      <trkpt lat="47.463081" lon="7.858188">
        <ele>406.217046</ele>
        <time>2021-11-14T17:32:53.106Z</time>
      </trkpt>
      <trkpt lat="47.463161" lon="7.858061">
        <ele>406.099596</ele>
        <time>2021-11-14T17:32:54.514Z</time>
      </trkpt>
      <trkpt lat="47.463762" lon="7.856925">
        <ele>405.226286</ele>
        <time>2021-11-14T17:33:07.419Z</time>
      </trkpt>
      <trkpt lat="47.463826" lon="7.856840">
        <ele>405.155464</ele>
        <time>2021-11-14T17:33:08.487Z</time>
      </trkpt>
      <trkpt lat="47.463900" lon="7.856772">
        <ele>405.083732</ele>
        <time>2021-11-14T17:33:09.595Z</time>
      </trkpt>
      <trkpt lat="47.464530" lon="7.856598">
        <ele>404.556030</ele>
        <time>2021-11-14T17:33:17.780Z</time>
      </trkpt>
      <trkpt lat="47.464600" lon="7.856587">
        <ele>404.498069</ele>
        <time>2021-11-14T17:33:18.623Z</time>
      </trkpt>
      <trkpt lat="47.464616" lon="7.856619">
        <ele>404.475913</ele>
        <time>2021-11-14T17:33:18.912Z</time>
      </trkpt>
      <trkpt lat="47.464696" lon="7.856697">
        <ele>404.397020</ele>
        <time>2021-11-14T17:33:20.103Z</time>
      </trkpt>
      <trkpt lat="47.464710" lon="7.856698">
        <ele>404.385479</ele>
        <time>2021-11-14T17:33:20.306Z</time>
      </trkpt>
      <trkpt lat="47.464723" lon="7.856699">
        <ele>404.374760</ele>
        <time>2021-11-14T17:33:20.454Z</time>
      </trkpt>
      <trkpt lat="47.464808" lon="7.856571">
        <ele>404.274885</ele>
        <time>2021-11-14T17:33:21.908Z</time>
      </trkpt>
      <trkpt lat="47.464813" lon="7.856540">
        <ele>404.257145</ele>
        <time>2021-11-14T17:33:22.154Z</time>
      </trkpt>
      <trkpt lat="47.464855" lon="7.856521">
        <ele>404.220128</ele>
        <time>2021-11-14T17:33:22.643Z</time>
      </trkpt>
      <trkpt lat="47.465400" lon="7.856122">
        <ele>403.244573</ele>
        <time>2021-11-14T17:33:29.815Z</time>
      </trkpt>
      <trkpt lat="47.465527" lon="7.856111">
        <ele>403.040481</ele>
        <time>2021-11-14T17:33:31.258Z</time>
      </trkpt>
      <trkpt lat="47.465550" lon="7.856132">
        <ele>402.997120</ele>
        <time>2021-11-14T17:33:31.534Z</time>
      </trkpt>
      <trkpt lat="47.465562" lon="7.856071">
        <ele>402.928219</ele>
        <time>2021-11-14T17:33:31.996Z</time>
      </trkpt>
      <trkpt lat="47.465649" lon="7.855662">
        <ele>402.463203</ele>
        <time>2021-11-14T17:33:35.342Z</time>
      </trkpt>
      <trkpt lat="47.465644" lon="7.855335">
        <ele>402.108468</ele>
        <time>2021-11-14T17:33:37.845Z</time>
      </trkpt>
      <trkpt lat="47.465640" lon="7.855285">
        <ele>402.053862</ele>
        <time>2021-11-14T17:33:38.204Z</time>
      </trkpt>
      <trkpt lat="47.465623" lon="7.855082">
        <ele>401.832018</ele>
        <time>2021-11-14T17:33:39.688Z</time>
      </trkpt>
      <trkpt lat="47.465586" lon="7.854717">
        <ele>401.431736</ele>
        <time>2021-11-14T17:33:42.493Z</time>
      </trkpt>
      <trkpt lat="47.465581" lon="7.854348">
        <ele>401.017667</ele>
        <time>2021-11-14T17:33:45.256Z</time>
      </trkpt>
      <trkpt lat="47.465598" lon="7.854230">
        <ele>400.880899</ele>
        <time>2021-11-14T17:33:46.143Z</time>
      </trkpt>
      <trkpt lat="47.465654" lon="7.853984">
        <ele>400.586648</ele>
        <time>2021-11-14T17:33:48.039Z</time>
      </trkpt>
      <trkpt lat="47.465661" lon="7.853953">
        <ele>400.549598</ele>
        <time>2021-11-14T17:33:48.294Z</time>
      </trkpt>
      <trkpt lat="47.465691" lon="7.853790">
        <ele>400.358096</ele>
        <time>2021-11-14T17:33:49.585Z</time>
      </trkpt>
      <trkpt lat="47.465756" lon="7.853300">
        <ele>399.792041</ele>
        <time>2021-11-14T17:33:53.406Z</time>
      </trkpt>
      <trkpt lat="47.465740" lon="7.853101">
        <ele>399.564865</ele>
        <time>2021-11-14T17:33:54.874Z</time>
      </trkpt>
      <trkpt lat="47.465662" lon="7.852762">
        <ele>399.158927</ele>
        <time>2021-11-14T17:33:57.659Z</time>
      </trkpt>
      <trkpt lat="47.465620" lon="7.852521">
        <ele>398.876798</ele>
        <time>2021-11-14T17:33:59.628Z</time>
      </trkpt>
      <trkpt lat="47.465583" lon="7.852271">
        <ele>398.586686</ele>
        <time>2021-11-14T17:34:01.662Z</time>
      </trkpt>
      <trkpt lat="47.465566" lon="7.852115">
        <ele>398.407562</ele>
        <time>2021-11-14T17:34:02.899Z</time>
      </trkpt>
      <trkpt lat="47.465577" lon="7.851947">
        <ele>398.240493</ele>
        <time>2021-11-14T17:34:04.280Z</time>
      </trkpt>
      <trkpt lat="47.465593" lon="7.851855">
        <ele>398.157908</ele>
        <time>2021-11-14T17:34:05.045Z</time>
      </trkpt>
      <trkpt lat="47.465657" lon="7.851668">
        <ele>397.975694</ele>
        <time>2021-11-14T17:34:06.652Z</time>
      </trkpt>
      <trkpt lat="47.465685" lon="7.851627">
        <ele>397.925029</ele>
        <time>2021-11-14T17:34:07.096Z</time>
      </trkpt>
      <trkpt lat="47.465715" lon="7.851587">
        <ele>397.873091</ele>
        <time>2021-11-14T17:34:07.559Z</time>
      </trkpt>
      <trkpt lat="47.465770" lon="7.851542">
        <ele>397.792265</ele>
        <time>2021-11-14T17:34:08.292Z</time>
      </trkpt>
      <trkpt lat="47.465781" lon="7.851575">
        <ele>397.760279</ele>
        <time>2021-11-14T17:34:08.601Z</time>
      </trkpt>
      <trkpt lat="47.465821" lon="7.851619">
        <ele>397.696176</ele>
        <time>2021-11-14T17:34:09.207Z</time>
      </trkpt>
      <trkpt lat="47.465846" lon="7.851625">
        <ele>397.663607</ele>
        <time>2021-11-14T17:34:09.523Z</time>
      </trkpt>
      <trkpt lat="47.465871" lon="7.851620">
        <ele>397.631165</ele>
        <time>2021-11-14T17:34:09.826Z</time>
      </trkpt>
      <trkpt lat="47.465896" lon="7.851603">
        <ele>397.595782</ele>
        <time>2021-11-14T17:34:10.144Z</time>
      </trkpt>
      <trkpt lat="47.465931" lon="7.851497">
        <ele>397.493227</ele>
        <time>2021-11-14T17:34:11.062Z</time>
      </trkpt>
      <trkpt lat="47.465925" lon="7.851458">
        <ele>397.458456</ele>
        <time>2021-11-14T17:34:11.369Z</time>
      </trkpt>
      <trkpt lat="47.465914" lon="7.851427">
        <ele>397.428019</ele>
        <time>2021-11-14T17:34:11.641Z</time>
      </trkpt>
      <trkpt lat="47.465853" lon="7.851380">
        <ele>397.339572</ele>
        <time>2021-11-14T17:34:12.438Z</time>
      </trkpt>
      <trkpt lat="47.465829" lon="7.851383">
        <ele>397.308599</ele>
        <time>2021-11-14T17:34:12.722Z</time>
      </trkpt>
      <trkpt lat="47.465714" lon="7.850917">
        <ele>396.877334</ele>
        <time>2021-11-14T17:34:16.664Z</time>
      </trkpt>
      <trkpt lat="47.465620" lon="7.850585">
        <ele>396.564419</ele>
        <time>2021-11-14T17:34:19.634Z</time>
      </trkpt>
      <trkpt lat="47.465558" lon="7.850405">
        <ele>396.388794</ele>
        <time>2021-11-14T17:34:21.263Z</time>
      </trkpt>
      <trkpt lat="47.465348" lon="7.849875">
        <ele>395.850545</ele>
        <time>2021-11-14T17:34:26.230Z</time>
      </trkpt>
      <trkpt lat="47.465152" lon="7.849351">
        <ele>395.315650</ele>
        <time>2021-11-14T17:34:30.975Z</time>
      </trkpt>
      <trkpt lat="47.464952" lon="7.848443">
        <ele>394.462669</ele>
        <time>2021-11-14T17:34:38.465Z</time>
      </trkpt>
      <trkpt lat="47.464909" lon="7.848219">
        <ele>394.254684</ele>
        <time>2021-11-14T17:34:40.310Z</time>
      </trkpt>
      <trkpt lat="47.464850" lon="7.847870">
        <ele>393.933360</ele>
        <time>2021-11-14T17:34:43.111Z</time>
      </trkpt>
      <trkpt lat="47.464820" lon="7.847644">
        <ele>393.727643</ele>
        <time>2021-11-14T17:34:45.022Z</time>
      </trkpt>
      <trkpt lat="47.464784" lon="7.847333">
        <ele>393.493318</ele>
        <time>2021-11-14T17:34:47.530Z</time>
      </trkpt>
      <trkpt lat="47.464771" lon="7.847028">
        <ele>393.290390</ele>
        <time>2021-11-14T17:34:50.026Z</time>
      </trkpt>
      <trkpt lat="47.464737" lon="7.846119">
        <ele>392.685873</ele>
        <time>2021-11-14T17:34:57.339Z</time>
      </trkpt>
      <trkpt lat="47.464585" lon="7.844988">
        <ele>391.920168</ele>
        <time>2021-11-14T17:35:07.136Z</time>
      </trkpt>
      <trkpt lat="47.464433" lon="7.844273">
        <ele>391.835622</ele>
        <time>2021-11-14T17:35:13.850Z</time>
      </trkpt>
      <trkpt lat="47.464386" lon="7.844088">
        <ele>391.827104</ele>
        <time>2021-11-14T17:35:15.499Z</time>
      </trkpt>
      <trkpt lat="47.464354" lon="7.843960">
        <ele>391.821223</ele>
        <time>2021-11-14T17:35:16.902Z</time>
      </trkpt>
      <trkpt lat="47.464234" lon="7.843434">
        <ele>391.797297</ele>
        <time>2021-11-14T17:35:22.074Z</time>
      </trkpt>
      <trkpt lat="47.464176" lon="7.843178">
        <ele>391.785661</ele>
        <time>2021-11-14T17:35:24.491Z</time>
      </trkpt>
      <trkpt lat="47.464165" lon="7.843130">
        <ele>391.783476</ele>
        <time>2021-11-14T17:35:25.026Z</time>
      </trkpt>
      <trkpt lat="47.464075" lon="7.842774">
        <ele>391.767096</ele>
        <time>2021-11-14T17:35:29.917Z</time>
      </trkpt>
      <trkpt lat="47.464053" lon="7.842690">
        <ele>391.763213</ele>
        <time>2021-11-14T17:35:30.640Z</time>
      </trkpt>
      <trkpt lat="47.463971" lon="7.842355">
        <ele>391.756004</ele>
        <time>2021-11-14T17:35:35.571Z</time>
      </trkpt>
      <trkpt lat="47.463922" lon="7.842123">
        <ele>391.793558</ele>
        <time>2021-11-14T17:35:37.901Z</time>
      </trkpt>
      <trkpt lat="47.463874" lon="7.841863">
        <ele>391.835201</ele>
        <time>2021-11-14T17:35:42.107Z</time>
      </trkpt>
      <trkpt lat="47.463685" lon="7.841203">
        <ele>391.945947</ele>
        <time>2021-11-14T17:35:50.497Z</time>
      </trkpt>
      <trkpt lat="47.463616" lon="7.840992">
        <ele>391.982162</ele>
        <time>2021-11-14T17:35:53.444Z</time>
      </trkpt>
      <trkpt lat="47.463588" lon="7.840904">
        <ele>391.997189</ele>
        <time>2021-11-14T17:35:54.336Z</time>
      </trkpt>
      <trkpt lat="47.463287" lon="7.840028">
        <ele>392.149017</ele>
        <time>2021-11-14T17:36:03.078Z</time>
      </trkpt>
      <trkpt lat="47.463133" lon="7.839561">
        <ele>391.877777</ele>
        <time>2021-11-14T17:36:07.650Z</time>
      </trkpt>
      <trkpt lat="47.463043" lon="7.839292">
        <ele>391.686512</ele>
        <time>2021-11-14T17:36:10.101Z</time>
      </trkpt>
      <trkpt lat="47.462982" lon="7.839106">
        <ele>391.554772</ele>
        <time>2021-11-14T17:36:12.496Z</time>
      </trkpt>
      <trkpt lat="47.462967" lon="7.839047">
        <ele>391.514603</ele>
        <time>2021-11-14T17:36:12.981Z</time>
      </trkpt>
      <trkpt lat="47.462936" lon="7.838934">
        <ele>391.436890</ele>
        <time>2021-11-14T17:36:13.926Z</time>
      </trkpt>
      <trkpt lat="47.462883" lon="7.838488">
        <ele>391.148314</ele>
        <time>2021-11-14T17:36:17.880Z</time>
      </trkpt>
      <trkpt lat="47.462873" lon="7.838016">
        <ele>390.847380</ele>
        <time>2021-11-14T17:36:21.759Z</time>
      </trkpt>
      <trkpt lat="47.462871" lon="7.837954">
        <ele>390.807825</ele>
        <time>2021-11-14T17:36:22.207Z</time>
      </trkpt>
      <trkpt lat="47.462869" lon="7.837866">
        <ele>390.751714</ele>
        <time>2021-11-14T17:36:22.826Z</time>
      </trkpt>
      <trkpt lat="47.462865" lon="7.837711">
        <ele>390.652867</ele>
        <time>2021-11-14T17:36:24.131Z</time>
      </trkpt>
      <trkpt lat="47.462856" lon="7.837506">
        <ele>390.521953</ele>
        <time>2021-11-14T17:36:25.971Z</time>
      </trkpt>
      <trkpt lat="47.462851" lon="7.837404">
        <ele>390.455632</ele>
        <time>2021-11-14T17:36:26.679Z</time>
      </trkpt>
      <trkpt lat="47.462748" lon="7.836556">
        <ele>389.832482</ele>
        <time>2021-11-14T17:36:33.276Z</time>
      </trkpt>
      <trkpt lat="47.462730" lon="7.836472">
        <ele>389.768749</ele>
        <time>2021-11-14T17:36:34.130Z</time>
      </trkpt>
      <trkpt lat="47.462700" lon="7.836337">
        <ele>389.665969</ele>
        <time>2021-11-14T17:36:35.311Z</time>
      </trkpt>
      <trkpt lat="47.462666" lon="7.836201">
        <ele>389.561095</ele>
        <time>2021-11-14T17:36:36.518Z</time>
      </trkpt>
      <trkpt lat="47.462586" lon="7.835900">
        <ele>389.327172</ele>
        <time>2021-11-14T17:36:39.169Z</time>
      </trkpt>
      <trkpt lat="47.462388" lon="7.834991">
        <ele>388.636439</ele>
        <time>2021-11-14T17:36:47.633Z</time>
      </trkpt>
      <trkpt lat="47.462375" lon="7.834910">
        <ele>388.576225</ele>
        <time>2021-11-14T17:36:48.286Z</time>
      </trkpt>
      <trkpt lat="47.462357" lon="7.834782">
        <ele>388.483598</ele>
        <time>2021-11-14T17:36:49.288Z</time>
      </trkpt>
      <trkpt lat="47.462317" lon="7.834216">
        <ele>388.085385</ele>
        <time>2021-11-14T17:36:54.097Z</time>
      </trkpt>
      <trkpt lat="47.462296" lon="7.833933">
        <ele>387.886167</ele>
        <time>2021-11-14T17:36:56.482Z</time>
      </trkpt>
      <trkpt lat="47.462285" lon="7.833721">
        <ele>387.737385</ele>
        <time>2021-11-14T17:36:58.104Z</time>
      </trkpt>
      <trkpt lat="47.462217" lon="7.832953">
        <ele>387.195391</ele>
        <time>2021-11-14T17:37:04.463Z</time>
      </trkpt>
      <trkpt lat="47.462179" lon="7.832744">
        <ele>387.043948</ele>
        <time>2021-11-14T17:37:06.167Z</time>
      </trkpt>
      <trkpt lat="47.462262" lon="7.832704">
        <ele>386.953597</ele>
        <time>2021-11-14T17:37:07.613Z</time>
      </trkpt>
      <trkpt lat="47.462246" lon="7.832587">
        <ele>386.870069</ele>
        <time>2021-11-14T17:37:09.050Z</time>
      </trkpt>
      <trkpt lat="47.462233" lon="7.832513">
        <ele>386.816568</ele>
        <time>2021-11-14T17:37:09.985Z</time>
      </trkpt>
      <trkpt lat="47.462192" lon="7.832386">
        <ele>386.718088</ele>
        <time>2021-11-14T17:37:11.678Z</time>
      </trkpt>
      <trkpt lat="47.462176" lon="7.832337">
        <ele>386.680011</ele>
        <time>2021-11-14T17:37:12.341Z</time>
      </trkpt>
      <trkpt lat="47.462149" lon="7.832256">
        <ele>386.604001</ele>
        <time>2021-11-14T17:37:13.415Z</time>
      </trkpt>
      <trkpt lat="47.461985" lon="7.831682">
        <ele>386.078768</ele>
        <time>2021-11-14T17:37:20.820Z</time>
      </trkpt>
      <trkpt lat="47.461795" lon="7.830905">
        <ele>385.382341</ele>
        <time>2021-11-14T17:37:30.406Z</time>
      </trkpt>
      <trkpt lat="47.461749" lon="7.830678">
        <ele>385.182600</ele>
        <time>2021-11-14T17:37:33.076Z</time>
      </trkpt>
      <trkpt lat="47.461602" lon="7.829950">
        <ele>384.542208</ele>
        <time>2021-11-14T17:37:41.499Z</time>
      </trkpt>
      <trkpt lat="47.461622" lon="7.829595">
        <ele>384.175484</ele>
        <time>2021-11-14T17:37:45.463Z</time>
      </trkpt>
      <trkpt lat="47.461625" lon="7.829509">
        <ele>384.078181</ele>
        <time>2021-11-14T17:37:46.324Z</time>
      </trkpt>
      <trkpt lat="47.461676" lon="7.828959">
        <ele>383.450903</ele>
        <time>2021-11-14T17:37:52.407Z</time>
      </trkpt>
      <trkpt lat="47.461722" lon="7.828676">
        <ele>383.122023</ele>
        <time>2021-11-14T17:37:55.586Z</time>
      </trkpt>
      <trkpt lat="47.461803" lon="7.828145">
        <ele>382.506950</ele>
        <time>2021-11-14T17:38:01.460Z</time>
      </trkpt>
      <trkpt lat="47.461984" lon="7.826457">
        <ele>380.995697</ele>
        <time>2021-11-14T17:38:20.085Z</time>
      </trkpt>
      <trkpt lat="47.462040" lon="7.826135">
        <ele>380.804457</ele>
        <time>2021-11-14T17:38:24.295Z</time>
      </trkpt>
      <trkpt lat="47.462100" lon="7.825934">
        <ele>380.678077</ele>
        <time>2021-11-14T17:38:26.878Z</time>
      </trkpt>
      <trkpt lat="47.462225" lon="7.825725">
        <ele>380.517575</ele>
        <time>2021-11-14T17:38:30.610Z</time>
      </trkpt>
      <trkpt lat="47.462420" lon="7.825612">
        <ele>380.339397</ele>
        <time>2021-11-14T17:38:34.414Z</time>
      </trkpt>
      <trkpt lat="47.462519" lon="7.825555">
        <ele>380.249014</ele>
        <time>2021-11-14T17:38:36.531Z</time>
      </trkpt>
      <trkpt lat="47.462604" lon="7.825402">
        <ele>380.135111</ele>
        <time>2021-11-14T17:38:39.148Z</time>
      </trkpt>
      <trkpt lat="47.462617" lon="7.825344">
        <ele>380.099965</ele>
        <time>2021-11-14T17:38:39.804Z</time>
      </trkpt>
      <trkpt lat="47.462626" lon="7.825283">
        <ele>380.064053</ele>
        <time>2021-11-14T17:38:40.572Z</time>
      </trkpt>
      <trkpt lat="47.462608" lon="7.825120">
        <ele>379.969056</ele>
        <time>2021-11-14T17:38:42.800Z</time>
      </trkpt>
      <trkpt lat="47.462540" lon="7.824993">
        <ele>379.889654</ele>
        <time>2021-11-14T17:38:44.953Z</time>
      </trkpt>
      <trkpt lat="47.462517" lon="7.824972">
        <ele>379.879350</ele>
        <time>2021-11-14T17:38:45.466Z</time>
      </trkpt>
      <trkpt lat="47.462476" lon="7.824944">
        <ele>379.862134</ele>
        <time>2021-11-14T17:38:46.280Z</time>
      </trkpt>
      <trkpt lat="47.462402" lon="7.824900">
        <ele>379.831729</ele>
        <time>2021-11-14T17:38:47.660Z</time>
      </trkpt>
      <trkpt lat="47.462349" lon="7.824857">
        <ele>379.808684</ele>
        <time>2021-11-14T17:38:48.885Z</time>
      </trkpt>
      <trkpt lat="47.462317" lon="7.824823">
        <ele>379.793663</ele>
        <time>2021-11-14T17:38:49.657Z</time>
      </trkpt>
      <trkpt lat="47.462262" lon="7.824736">
        <ele>379.762964</ele>
        <time>2021-11-14T17:38:51.244Z</time>
      </trkpt>
      <trkpt lat="47.462242" lon="7.824692">
        <ele>379.749298</ele>
        <time>2021-11-14T17:38:51.943Z</time>
      </trkpt>
      <trkpt lat="47.462217" lon="7.824625">
        <ele>379.729574</ele>
        <time>2021-11-14T17:38:52.923Z</time>
      </trkpt>
      <trkpt lat="47.462137" lon="7.823536">
        <ele>379.447242</ele>
        <time>2021-11-14T17:39:07.152Z</time>
      </trkpt>
      <trkpt lat="47.462017" lon="7.821859">
        <ele>378.816266</ele>
        <time>2021-11-14T17:39:28.510Z</time>
      </trkpt>
      <trkpt lat="47.461957" lon="7.821317">
        <ele>378.537500</ele>
        <time>2021-11-14T17:39:35.062Z</time>
      </trkpt>
      <trkpt lat="47.461915" lon="7.820994">
        <ele>378.370551</ele>
        <time>2021-11-14T17:39:38.880Z</time>
      </trkpt>
      <trkpt lat="47.461874" lon="7.820724">
        <ele>378.230093</ele>
        <time>2021-11-14T17:39:42.163Z</time>
      </trkpt>
      <trkpt lat="47.461850" lon="7.820572">
        <ele>378.150867</ele>
        <time>2021-11-14T17:39:44.012Z</time>
      </trkpt>
      <trkpt lat="47.461826" lon="7.820279">
        <ele>378.001061</ele>
        <time>2021-11-14T17:39:47.473Z</time>
      </trkpt>
      <trkpt lat="47.461829" lon="7.820032">
        <ele>377.875671</ele>
        <time>2021-11-14T17:39:50.407Z</time>
      </trkpt>
      <trkpt lat="47.461829" lon="7.819984">
        <ele>377.853773</ele>
        <time>2021-11-14T17:39:50.930Z</time>
      </trkpt>
      <trkpt lat="47.461852" lon="7.819816">
        <ele>377.782654</ele>
        <time>2021-11-14T17:39:52.963Z</time>
      </trkpt>
      <trkpt lat="47.461962" lon="7.819234">
        <ele>377.531918</ele>
        <time>2021-11-14T17:40:00.243Z</time>
      </trkpt>
      <trkpt lat="47.461960" lon="7.819120">
        <ele>377.484603</ele>
        <time>2021-11-14T17:40:01.611Z</time>
      </trkpt>
      <trkpt lat="47.462012" lon="7.818948">
        <ele>377.406429</ele>
        <time>2021-11-14T17:40:03.202Z</time>
      </trkpt>
      <trkpt lat="47.462122" lon="7.818441">
        <ele>377.185504</ele>
        <time>2021-11-14T17:40:07.843Z</time>
      </trkpt>
      <trkpt lat="47.462262" lon="7.817447">
        <ele>376.764233</ele>
        <time>2021-11-14T17:40:17.196Z</time>
      </trkpt>
      <trkpt lat="47.462434" lon="7.816598">
        <ele>376.705976</ele>
        <time>2021-11-14T17:40:25.541Z</time>
      </trkpt>
      <trkpt lat="47.462785" lon="7.815763">
        <ele>376.644403</ele>
        <time>2021-11-14T17:40:35.024Z</time>
      </trkpt>
      <trkpt lat="47.462859" lon="7.815548">
        <ele>376.629295</ele>
        <time>2021-11-14T17:40:38.120Z</time>
      </trkpt>
      <trkpt lat="47.462865" lon="7.815524">
        <ele>376.627693</ele>
        <time>2021-11-14T17:40:38.425Z</time>
      </trkpt>
      <trkpt lat="47.462867" lon="7.815468">
        <ele>376.624181</ele>
        <time>2021-11-14T17:40:38.901Z</time>
      </trkpt>
      <trkpt lat="47.462863" lon="7.815440">
        <ele>376.622389</ele>
        <time>2021-11-14T17:40:39.151Z</time>
      </trkpt>
      <trkpt lat="47.462847" lon="7.815402">
        <ele>376.619585</ele>
        <time>2021-11-14T17:40:39.452Z</time>
      </trkpt>
      <trkpt lat="47.462235" lon="7.815118">
        <ele>376.589080</ele>
        <time>2021-11-14T17:40:49.962Z</time>
      </trkpt>
      <trkpt lat="47.462171" lon="7.815069">
        <ele>376.588045</ele>
        <time>2021-11-14T17:40:50.734Z</time>
      </trkpt>
      <trkpt lat="47.462206" lon="7.814978">
        <ele>376.587028</ele>
        <time>2021-11-14T17:40:51.733Z</time>
      </trkpt>
      <trkpt lat="47.462241" lon="7.814875">
        <ele>376.585908</ele>
        <time>2021-11-14T17:40:53.245Z</time>
      </trkpt>
      <trkpt lat="47.462367" lon="7.814455">
        <ele>376.581445</ele>
        <time>2021-11-14T17:40:57.491Z</time>
      </trkpt>
      <trkpt lat="47.462396" lon="7.814329">
        <ele>376.580153</ele>
        <time>2021-11-14T17:40:59.259Z</time>
      </trkpt>
      <trkpt lat="47.462564" lon="7.813594">
        <ele>376.572617</ele>
        <time>2021-11-14T17:41:06.413Z</time>
      </trkpt>
      <trkpt lat="47.462613" lon="7.813401">
        <ele>376.570615</ele>
        <time>2021-11-14T17:41:08.714Z</time>
      </trkpt>
      <trkpt lat="47.462640" lon="7.813294">
        <ele>376.569505</ele>
        <time>2021-11-14T17:41:09.958Z</time>
      </trkpt>
      <trkpt lat="47.462698" lon="7.813056">
        <ele>376.554160</ele>
        <time>2021-11-14T17:41:12.205Z</time>
      </trkpt>
      <trkpt lat="47.462732" lon="7.812921">
        <ele>376.540727</ele>
        <time>2021-11-14T17:41:13.859Z</time>
      </trkpt>
      <trkpt lat="47.462817" lon="7.812574">
        <ele>376.506315</ele>
        <time>2021-11-14T17:41:17.708Z</time>
      </trkpt>
      <trkpt lat="47.462828" lon="7.812529">
        <ele>376.501853</ele>
        <time>2021-11-14T17:41:18.166Z</time>
      </trkpt>
      <trkpt lat="47.462865" lon="7.812376">
        <ele>376.486702</ele>
        <time>2021-11-14T17:41:19.860Z</time>
      </trkpt>
      <trkpt lat="47.462989" lon="7.811854">
        <ele>376.435113</ele>
        <time>2021-11-14T17:41:25.072Z</time>
      </trkpt>
      <trkpt lat="47.463020" lon="7.811691">
        <ele>376.419325</ele>
        <time>2021-11-14T17:41:26.622Z</time>
      </trkpt>
      <trkpt lat="47.463020" lon="7.811691">
        <ele>376.419325</ele>
        <time>2021-11-14T17:41:26.638Z</time>
      </trkpt>
      <trkpt lat="47.463026" lon="7.811593">
        <ele>376.410150</ele>
        <time>2021-11-14T17:41:27.548Z</time>
      </trkpt>
      <trkpt lat="47.463049" lon="7.811451">
        <ele>376.396536</ele>
        <time>2021-11-14T17:41:28.863Z</time>
      </trkpt>
      <trkpt lat="47.463053" lon="7.811430">
        <ele>376.394501</ele>
        <time>2021-11-14T17:41:29.087Z</time>
      </trkpt>
      <trkpt lat="47.463199" lon="7.810823">
        <ele>376.334430</ele>
        <time>2021-11-14T17:41:35.069Z</time>
      </trkpt>
      <trkpt lat="47.463301" lon="7.810602">
        <ele>376.340971</ele>
        <time>2021-11-14T17:41:37.587Z</time>
      </trkpt>
      <trkpt lat="47.463469" lon="7.810568">
        <ele>376.384497</ele>
        <time>2021-11-14T17:41:40.217Z</time>
      </trkpt>
      <trkpt lat="47.463647" lon="7.810559">
        <ele>376.430216</ele>
        <time>2021-11-14T17:41:43.231Z</time>
      </trkpt>
      <trkpt lat="47.463695" lon="7.810412">
        <ele>376.458546</ele>
        <time>2021-11-14T17:41:44.943Z</time>
      </trkpt>
      <trkpt lat="47.463753" lon="7.810251">
        <ele>376.490205</ele>
        <time>2021-11-14T17:41:46.874Z</time>
      </trkpt>
      <trkpt lat="47.463689" lon="7.810134">
        <ele>376.516324</ele>
        <time>2021-11-14T17:41:49.347Z</time>
      </trkpt>
      <trkpt lat="47.463652" lon="7.810060">
        <ele>376.532296</ele>
        <time>2021-11-14T17:41:50.576Z</time>
      </trkpt>
      <trkpt lat="47.463616" lon="7.809990">
        <ele>376.547559</ele>
        <time>2021-11-14T17:41:51.853Z</time>
      </trkpt>
      <trkpt lat="47.463603" lon="7.809961">
        <ele>376.553598</ele>
        <time>2021-11-14T17:41:52.426Z</time>
      </trkpt>
      <trkpt lat="47.463403" lon="7.809601">
        <ele>376.634461</ele>
        <time>2021-11-14T17:41:59.261Z</time>
      </trkpt>
      <trkpt lat="47.463347" lon="7.809533">
        <ele>376.653059</ele>
        <time>2021-11-14T17:42:01.161Z</time>
      </trkpt>
      <trkpt lat="47.463122" lon="7.809317">
        <ele>376.721914</ele>
        <time>2021-11-14T17:42:06.568Z</time>
      </trkpt>
      <trkpt lat="47.463007" lon="7.809215">
        <ele>376.756334</ele>
        <time>2021-11-14T17:42:09.701Z</time>
      </trkpt>
      <trkpt lat="47.462918" lon="7.809150">
        <ele>376.781813</ele>
        <time>2021-11-14T17:42:11.000Z</time>
      </trkpt>
      <trkpt lat="47.462879" lon="7.809121">
        <ele>376.792974</ele>
        <time>2021-11-14T17:42:11.963Z</time>
      </trkpt>
      <trkpt lat="47.462185" lon="7.808547">
        <ele>376.996237</ele>
        <time>2021-11-14T17:42:24.311Z</time>
      </trkpt>
      <trkpt lat="47.462087" lon="7.808494">
        <ele>377.022911</ele>
        <time>2021-11-14T17:42:26.249Z</time>
      </trkpt>
      <trkpt lat="47.462189" lon="7.808427">
        <ele>377.051441</ele>
        <time>2021-11-14T17:42:27.697Z</time>
      </trkpt>
      <trkpt lat="47.463004" lon="7.808201">
        <ele>377.290760</ele>
        <time>2021-11-14T17:42:41.057Z</time>
      </trkpt>
      <trkpt lat="47.463084" lon="7.808172">
        <ele>377.338689</ele>
        <time>2021-11-14T17:42:42.279Z</time>
      </trkpt>
      <trkpt lat="47.463139" lon="7.808153">
        <ele>377.371554</ele>
        <time>2021-11-14T17:42:43.364Z</time>
      </trkpt>
      <trkpt lat="47.463234" lon="7.808119">
        <ele>377.428428</ele>
        <time>2021-11-14T17:42:44.665Z</time>
      </trkpt>
      <trkpt lat="47.463497" lon="7.808007">
        <ele>377.587681</ele>
        <time>2021-11-14T17:42:49.303Z</time>
      </trkpt>
      <trkpt lat="47.463812" lon="7.807759">
        <ele>377.795322</ele>
        <time>2021-11-14T17:42:54.942Z</time>
      </trkpt>
      <trkpt lat="47.463974" lon="7.807443">
        <ele>377.951331</ele>
        <time>2021-11-14T17:42:59.710Z</time>
      </trkpt>
      <trkpt lat="47.464656" lon="7.805873">
        <ele>378.321850</ele>
        <time>2021-11-14T17:43:23.400Z</time>
      </trkpt>
      <trkpt lat="47.464756" lon="7.805345">
        <ele>378.339926</ele>
        <time>2021-11-14T17:43:28.666Z</time>
      </trkpt>
      <trkpt lat="47.464762" lon="7.804988">
        <ele>378.351699</ele>
        <time>2021-11-14T17:43:32.185Z</time>
      </trkpt>
      <trkpt lat="47.464766" lon="7.804635">
        <ele>378.363338</ele>
        <time>2021-11-14T17:43:35.115Z</time>
      </trkpt>
      <trkpt lat="47.464804" lon="7.804045">
        <ele>378.188087</ele>
        <time>2021-11-14T17:43:40.225Z</time>
      </trkpt>
      <trkpt lat="47.464850" lon="7.803652">
        <ele>377.811732</ele>
        <time>2021-11-14T17:43:43.408Z</time>
      </trkpt>
      <trkpt lat="47.464951" lon="7.803046">
        <ele>377.222786</ele>
        <time>2021-11-14T17:43:48.408Z</time>
      </trkpt>
      <trkpt lat="47.465087" lon="7.801961">
        <ele>376.181528</ele>
        <time>2021-11-14T17:43:56.717Z</time>
      </trkpt>
      <trkpt lat="47.465091" lon="7.801374">
        <ele>375.604180</ele>
        <time>2021-11-14T17:44:01.332Z</time>
      </trkpt>
      <trkpt lat="47.464765" lon="7.799380">
        <ele>373.478013</ele>
        <time>2021-11-14T17:44:17.462Z</time>
      </trkpt>
      <trkpt lat="47.464772" lon="7.798903">
        <ele>372.971087</ele>
        <time>2021-11-14T17:44:21.053Z</time>
      </trkpt>
      <trkpt lat="47.464820" lon="7.798651">
        <ele>372.672704</ele>
        <time>2021-11-14T17:44:23.052Z</time>
      </trkpt>
      <trkpt lat="47.464909" lon="7.798314">
        <ele>372.260363</ele>
        <time>2021-11-14T17:44:25.729Z</time>
      </trkpt>
      <trkpt lat="47.465142" lon="7.797798">
        <ele>371.553169</ele>
        <time>2021-11-14T17:44:30.422Z</time>
      </trkpt>
      <trkpt lat="47.465357" lon="7.797287">
        <ele>370.867216</ele>
        <time>2021-11-14T17:44:35.147Z</time>
      </trkpt>
      <trkpt lat="47.465466" lon="7.796874">
        <ele>370.361933</ele>
        <time>2021-11-14T17:44:38.417Z</time>
      </trkpt>
      <trkpt lat="47.465491" lon="7.796513">
        <ele>369.989167</ele>
        <time>2021-11-14T17:44:41.143Z</time>
      </trkpt>
      <trkpt lat="47.465539" lon="7.795835">
        <ele>369.460281</ele>
        <time>2021-11-14T17:44:46.543Z</time>
      </trkpt>
      <trkpt lat="47.465548" lon="7.795165">
        <ele>368.940375</ele>
        <time>2021-11-14T17:44:52.154Z</time>
      </trkpt>
      <trkpt lat="47.465562" lon="7.794871">
        <ele>368.711717</ele>
        <time>2021-11-14T17:44:54.440Z</time>
      </trkpt>
      <trkpt lat="47.465644" lon="7.794171">
        <ele>368.160547</ele>
        <time>2021-11-14T17:45:00.399Z</time>
      </trkpt>
      <trkpt lat="47.465734" lon="7.793759">
        <ele>367.976504</ele>
        <time>2021-11-14T17:45:04.036Z</time>
      </trkpt>
      <trkpt lat="47.465837" lon="7.793287">
        <ele>367.903543</ele>
        <time>2021-11-14T17:45:08.346Z</time>
      </trkpt>
      <trkpt lat="47.465907" lon="7.792914">
        <ele>367.846598</ele>
        <time>2021-11-14T17:45:11.611Z</time>
      </trkpt>
      <trkpt lat="47.466109" lon="7.792088">
        <ele>367.717385</ele>
        <time>2021-11-14T17:45:20.950Z</time>
      </trkpt>
      <trkpt lat="47.466412" lon="7.790700">
        <ele>367.622708</ele>
        <time>2021-11-14T17:45:36.302Z</time>
      </trkpt>
      <trkpt lat="47.466432" lon="7.790596">
        <ele>367.622985</ele>
        <time>2021-11-14T17:45:38.164Z</time>
      </trkpt>
      <trkpt lat="47.466514" lon="7.790156">
        <ele>367.624156</ele>
        <time>2021-11-14T17:45:42.901Z</time>
      </trkpt>
      <trkpt lat="47.466603" lon="7.789598">
        <ele>367.625627</ele>
        <time>2021-11-14T17:45:49.027Z</time>
      </trkpt>
      <trkpt lat="47.466719" lon="7.788592">
        <ele>367.427110</ele>
        <time>2021-11-14T17:45:58.013Z</time>
      </trkpt>
      <trkpt lat="47.466734" lon="7.788459">
        <ele>367.336676</ele>
        <time>2021-11-14T17:45:59.438Z</time>
      </trkpt>
      <trkpt lat="47.466939" lon="7.786723">
        <ele>366.154739</ele>
        <time>2021-11-14T17:46:13.447Z</time>
      </trkpt>
      <trkpt lat="47.466949" lon="7.786640">
        <ele>366.098195</ele>
        <time>2021-11-14T17:46:14.142Z</time>
      </trkpt>
      <trkpt lat="47.466956" lon="7.786579">
        <ele>366.056698</ele>
        <time>2021-11-14T17:46:14.585Z</time>
      </trkpt>
      <trkpt lat="47.467094" lon="7.785323">
        <ele>365.217412</ele>
        <time>2021-11-14T17:46:25.559Z</time>
      </trkpt>
      <trkpt lat="47.467119" lon="7.785066">
        <ele>365.047121</ele>
        <time>2021-11-14T17:46:27.754Z</time>
      </trkpt>
      <trkpt lat="47.467092" lon="7.784779">
        <ele>364.857077</ele>
        <time>2021-11-14T17:46:30.180Z</time>
      </trkpt>
      <trkpt lat="47.467074" lon="7.784580">
        <ele>364.725399</ele>
        <time>2021-11-14T17:46:31.902Z</time>
      </trkpt>
      <trkpt lat="47.467114" lon="7.784127">
        <ele>364.425774</ele>
        <time>2021-11-14T17:46:35.647Z</time>
      </trkpt>
      <trkpt lat="47.467275" lon="7.783266">
        <ele>363.465823</ele>
        <time>2021-11-14T17:46:43.065Z</time>
      </trkpt>
      <trkpt lat="47.467308" lon="7.783125">
        <ele>363.226159</ele>
        <time>2021-11-14T17:46:44.199Z</time>
      </trkpt>
      <trkpt lat="47.467374" lon="7.782864">
        <ele>362.778568</ele>
        <time>2021-11-14T17:46:46.419Z</time>
      </trkpt>
      <trkpt lat="47.467411" lon="7.782717">
        <ele>362.526620</ele>
        <time>2021-11-14T17:46:47.616Z</time>
      </trkpt>
      <trkpt lat="47.467673" lon="7.781405">
        <ele>360.329258</ele>
        <time>2021-11-14T17:46:57.250Z</time>
      </trkpt>
      <trkpt lat="47.467837" lon="7.780341">
        <ele>357.884135</ele>
        <time>2021-11-14T17:47:04.515Z</time>
      </trkpt>
      <trkpt lat="47.467858" lon="7.780201">
        <ele>357.526032</ele>
        <time>2021-11-14T17:47:05.426Z</time>
      </trkpt>
      <trkpt lat="47.468054" lon="7.778980">
        <ele>354.392244</ele>
        <time>2021-11-14T17:47:13.764Z</time>
      </trkpt>
      <trkpt lat="47.468174" lon="7.778263">
        <ele>352.921602</ele>
        <time>2021-11-14T17:47:18.698Z</time>
      </trkpt>
      <trkpt lat="47.468193" lon="7.778169">
        <ele>352.821409</ele>
        <time>2021-11-14T17:47:19.329Z</time>
      </trkpt>
      <trkpt lat="47.468501" lon="7.776957">
        <ele>351.499147</ele>
        <time>2021-11-14T17:47:28.767Z</time>
      </trkpt>
      <trkpt lat="47.468600" lon="7.776294">
        <ele>350.805772</ele>
        <time>2021-11-14T17:47:34.500Z</time>
      </trkpt>
      <trkpt lat="47.468932" lon="7.773715">
        <ele>352.935658</ele>
        <time>2021-11-14T17:48:13.322Z</time>
      </trkpt>
      <trkpt lat="47.468986" lon="7.773126">
        <ele>353.273891</ele>
        <time>2021-11-14T17:48:22.987Z</time>
      </trkpt>
      <trkpt lat="47.468989" lon="7.772749">
        <ele>353.168820</ele>
        <time>2021-11-14T17:48:28.252Z</time>
      </trkpt>
      <trkpt lat="47.468967" lon="7.772389">
        <ele>353.068085</ele>
        <time>2021-11-14T17:48:32.683Z</time>
      </trkpt>
      <trkpt lat="47.468873" lon="7.771700">
        <ele>352.872200</ele>
        <time>2021-11-14T17:48:39.255Z</time>
      </trkpt>
      <trkpt lat="47.468826" lon="7.771365">
        <ele>352.776852</ele>
        <time>2021-11-14T17:48:41.968Z</time>
      </trkpt>
      <trkpt lat="47.468999" lon="7.771285">
        <ele>352.702127</ele>
        <time>2021-11-14T17:48:43.973Z</time>
      </trkpt>
      <trkpt lat="47.469111" lon="7.771200">
        <ele>352.650232</ele>
        <time>2021-11-14T17:48:45.459Z</time>
      </trkpt>
      <trkpt lat="47.469171" lon="7.771143">
        <ele>352.620835</ele>
        <time>2021-11-14T17:48:46.132Z</time>
      </trkpt>
      <trkpt lat="47.469300" lon="7.771016">
        <ele>352.281615</ele>
        <time>2021-11-14T17:48:47.808Z</time>
      </trkpt>
      <trkpt lat="47.469570" lon="7.770605">
        <ele>350.955655</ele>
        <time>2021-11-14T17:48:51.664Z</time>
      </trkpt>
      <trkpt lat="47.469747" lon="7.770161">
        <ele>349.763085</ele>
        <time>2021-11-14T17:48:55.063Z</time>
      </trkpt>
      <trkpt lat="47.469786" lon="7.769986">
        <ele>349.336768</ele>
        <time>2021-11-14T17:48:56.331Z</time>
      </trkpt>
      <trkpt lat="47.469806" lon="7.769893">
        <ele>349.110977</ele>
        <time>2021-11-14T17:48:56.923Z</time>
      </trkpt>
      <trkpt lat="47.469837" lon="7.769674">
        <ele>348.593307</ele>
        <time>2021-11-14T17:48:58.428Z</time>
      </trkpt>
      <trkpt lat="47.469884" lon="7.769306">
        <ele>347.726839</ele>
        <time>2021-11-14T17:49:00.876Z</time>
      </trkpt>
      <trkpt lat="47.469983" lon="7.768339">
        <ele>345.906737</ele>
        <time>2021-11-14T17:49:07.568Z</time>
      </trkpt>
      <trkpt lat="47.470012" lon="7.767986">
        <ele>345.457722</ele>
        <time>2021-11-14T17:49:10.223Z</time>
      </trkpt>
      <trkpt lat="47.470032" lon="7.767728">
        <ele>345.129809</ele>
        <time>2021-11-14T17:49:12.057Z</time>
      </trkpt>
      <trkpt lat="47.470034" lon="7.767703">
        <ele>345.098021</ele>
        <time>2021-11-14T17:49:12.246Z</time>
      </trkpt>
      <trkpt lat="47.470087" lon="7.766902">
        <ele>344.081760</ele>
        <time>2021-11-14T17:49:18.641Z</time>
      </trkpt>
      <trkpt lat="47.470120" lon="7.766825">
        <ele>343.966637</ele>
        <time>2021-11-14T17:49:19.381Z</time>
      </trkpt>
      <trkpt lat="47.470149" lon="7.766753">
        <ele>343.860807</ele>
        <time>2021-11-14T17:49:20.040Z</time>
      </trkpt>
      <trkpt lat="47.470181" lon="7.766714">
        <ele>343.783359</ele>
        <time>2021-11-14T17:49:20.525Z</time>
      </trkpt>
      <trkpt lat="47.470212" lon="7.766722">
        <ele>343.724577</ele>
        <time>2021-11-14T17:49:20.881Z</time>
      </trkpt>
      <trkpt lat="47.470242" lon="7.766716">
        <ele>343.668028</ele>
        <time>2021-11-14T17:49:21.253Z</time>
      </trkpt>
      <trkpt lat="47.470270" lon="7.766695">
        <ele>343.609387</ele>
        <time>2021-11-14T17:49:21.618Z</time>
      </trkpt>
      <trkpt lat="47.470293" lon="7.766664">
        <ele>343.551266</ele>
        <time>2021-11-14T17:49:22.048Z</time>
      </trkpt>
      <trkpt lat="47.470307" lon="7.766623">
        <ele>343.493265</ele>
        <time>2021-11-14T17:49:22.424Z</time>
      </trkpt>
      <trkpt lat="47.470313" lon="7.766578">
        <ele>343.435348</ele>
        <time>2021-11-14T17:49:23.052Z</time>
      </trkpt>
      <trkpt lat="47.470246" lon="7.766437">
        <ele>343.217720</ele>
        <time>2021-11-14T17:49:24.403Z</time>
      </trkpt>
      <trkpt lat="47.470215" lon="7.766429">
        <ele>343.158938</ele>
        <time>2021-11-14T17:49:24.773Z</time>
      </trkpt>
      <trkpt lat="47.470191" lon="7.766370">
        <ele>343.074706</ele>
        <time>2021-11-14T17:49:25.324Z</time>
      </trkpt>
      <trkpt lat="47.470150" lon="7.766224">
        <ele>342.954686</ele>
        <time>2021-11-14T17:49:26.662Z</time>
      </trkpt>
      <trkpt lat="47.470139" lon="7.766059">
        <ele>342.828819</ele>
        <time>2021-11-14T17:49:28.338Z</time>
      </trkpt>
      <trkpt lat="47.470162" lon="7.765840">
        <ele>342.660570</ele>
        <time>2021-11-14T17:49:30.015Z</time>
      </trkpt>
      <trkpt lat="47.470203" lon="7.765481">
        <ele>342.384173</ele>
        <time>2021-11-14T17:49:33.131Z</time>
      </trkpt>
      <trkpt lat="47.470213" lon="7.765394">
        <ele>342.317178</ele>
        <time>2021-11-14T17:49:33.751Z</time>
      </trkpt>
      <trkpt lat="47.470230" lon="7.765246">
        <ele>342.203214</ele>
        <time>2021-11-14T17:49:34.897Z</time>
      </trkpt>
      <trkpt lat="47.470323" lon="7.764439">
        <ele>341.581741</ele>
        <time>2021-11-14T17:49:41.570Z</time>
      </trkpt>
      <trkpt lat="47.470330" lon="7.764383">
        <ele>341.538508</ele>
        <time>2021-11-14T17:49:41.948Z</time>
      </trkpt>
      <trkpt lat="47.470377" lon="7.763914">
        <ele>341.178576</ele>
        <time>2021-11-14T17:49:46.050Z</time>
      </trkpt>
      <trkpt lat="47.470406" lon="7.763555">
        <ele>340.983814</ele>
        <time>2021-11-14T17:49:48.878Z</time>
      </trkpt>
      <trkpt lat="47.470433" lon="7.763337">
        <ele>340.902238</ele>
        <time>2021-11-14T17:49:50.653Z</time>
      </trkpt>
      <trkpt lat="47.470461" lon="7.763125">
        <ele>340.822730</ele>
        <time>2021-11-14T17:49:52.416Z</time>
      </trkpt>
      <trkpt lat="47.470687" lon="7.762459">
        <ele>340.548436</ele>
        <time>2021-11-14T17:49:59.334Z</time>
      </trkpt>
      <trkpt lat="47.470716" lon="7.762408">
        <ele>340.523905</ele>
        <time>2021-11-14T17:49:59.853Z</time>
      </trkpt>
      <trkpt lat="47.471003" lon="7.761888">
        <ele>340.276810</ele>
        <time>2021-11-14T17:50:06.279Z</time>
      </trkpt>
      <trkpt lat="47.471053" lon="7.761797">
        <ele>340.233646</ele>
        <time>2021-11-14T17:50:07.470Z</time>
      </trkpt>
      <trkpt lat="47.471113" lon="7.761649">
        <ele>340.170125</ele>
        <time>2021-11-14T17:50:09.516Z</time>
      </trkpt>
      <trkpt lat="47.471270" lon="7.761194">
        <ele>339.799838</ele>
        <time>2021-11-14T17:50:14.349Z</time>
      </trkpt>
      <trkpt lat="47.471311" lon="7.760992">
        <ele>339.576874</ele>
        <time>2021-11-14T17:50:16.094Z</time>
      </trkpt>
      <trkpt lat="47.471314" lon="7.760905">
        <ele>339.484783</ele>
        <time>2021-11-14T17:50:16.913Z</time>
      </trkpt>
      <trkpt lat="47.471180" lon="7.760462">
        <ele>338.971713</ele>
        <time>2021-11-14T17:50:20.859Z</time>
      </trkpt>
      <trkpt lat="47.471136" lon="7.760336">
        <ele>338.821787</ele>
        <time>2021-11-14T17:50:21.957Z</time>
      </trkpt>
      <trkpt lat="47.471129" lon="7.760229">
        <ele>338.708143</ele>
        <time>2021-11-14T17:50:22.853Z</time>
      </trkpt>
      <trkpt lat="47.471196" lon="7.759924">
        <ele>338.369113</ele>
        <time>2021-11-14T17:50:25.315Z</time>
      </trkpt>
      <trkpt lat="47.471202" lon="7.759897">
        <ele>338.339067</ele>
        <time>2021-11-14T17:50:25.523Z</time>
      </trkpt>
      <trkpt lat="47.471272" lon="7.759692">
        <ele>338.096269</ele>
        <time>2021-11-14T17:50:27.259Z</time>
      </trkpt>
      <trkpt lat="47.471350" lon="7.759462">
        <ele>337.824240</ele>
        <time>2021-11-14T17:50:29.090Z</time>
      </trkpt>
      <trkpt lat="47.471447" lon="7.759511">
        <ele>337.663938</ele>
        <time>2021-11-14T17:50:30.178Z</time>
      </trkpt>
      <trkpt lat="47.471498" lon="7.759525">
        <ele>337.582817</ele>
        <time>2021-11-14T17:50:30.769Z</time>
      </trkpt>
      <trkpt lat="47.471636" lon="7.759559">
        <ele>337.364022</ele>
        <time>2021-11-14T17:50:32.211Z</time>
      </trkpt>
      <trkpt lat="47.471986" lon="7.759588">
        <ele>336.334714</ele>
        <time>2021-11-14T17:50:35.828Z</time>
      </trkpt>
      <trkpt lat="47.472143" lon="7.759609">
        <ele>335.825029</ele>
        <time>2021-11-14T17:50:37.391Z</time>
      </trkpt>
      <trkpt lat="47.472224" lon="7.759637">
        <ele>335.556084</ele>
        <time>2021-11-14T17:50:38.278Z</time>
      </trkpt>
      <trkpt lat="47.472362" lon="7.759703">
        <ele>335.087164</ele>
        <time>2021-11-14T17:50:39.714Z</time>
      </trkpt>
      <trkpt lat="47.472497" lon="7.759804">
        <ele>334.598040</ele>
        <time>2021-11-14T17:50:41.203Z</time>
      </trkpt>
      <trkpt lat="47.472569" lon="7.759848">
        <ele>334.346169</ele>
        <time>2021-11-14T17:50:42.013Z</time>
      </trkpt>
      <trkpt lat="47.472620" lon="7.759830">
        <ele>334.176648</ele>
        <time>2021-11-14T17:50:42.530Z</time>
      </trkpt>
      <trkpt lat="47.472654" lon="7.759799">
        <ele>334.047518</ele>
        <time>2021-11-14T17:50:42.941Z</time>
      </trkpt>
      <trkpt lat="47.472673" lon="7.759770">
        <ele>333.959253</ele>
        <time>2021-11-14T17:50:43.198Z</time>
      </trkpt>
      <trkpt lat="47.472721" lon="7.759684">
        <ele>333.715511</ele>
        <time>2021-11-14T17:50:43.904Z</time>
      </trkpt>
      <trkpt lat="47.472910" lon="7.759412">
        <ele>332.862995</ele>
        <time>2021-11-14T17:50:46.545Z</time>
      </trkpt>
      <trkpt lat="47.472958" lon="7.759389">
        <ele>332.699864</ele>
        <time>2021-11-14T17:50:47.013Z</time>
      </trkpt>
      <trkpt lat="47.473017" lon="7.759397">
        <ele>332.508304</ele>
        <time>2021-11-14T17:50:47.601Z</time>
      </trkpt>
      <trkpt lat="47.473147" lon="7.759438">
        <ele>332.078541</ele>
        <time>2021-11-14T17:50:48.961Z</time>
      </trkpt>
      <trkpt lat="47.473193" lon="7.759452">
        <ele>331.926699</ele>
        <time>2021-11-14T17:50:49.449Z</time>
      </trkpt>
      <trkpt lat="47.473230" lon="7.759464">
        <ele>331.804229</ele>
        <time>2021-11-14T17:50:49.844Z</time>
      </trkpt>
      <trkpt lat="47.473405" lon="7.759519">
        <ele>331.325993</ele>
        <time>2021-11-14T17:50:51.654Z</time>
      </trkpt>
      <trkpt lat="47.473501" lon="7.759549">
        <ele>331.149845</ele>
        <time>2021-11-14T17:50:52.689Z</time>
      </trkpt>
      <trkpt lat="47.473605" lon="7.759576">
        <ele>330.960285</ele>
        <time>2021-11-14T17:50:53.857Z</time>
      </trkpt>
      <trkpt lat="47.473843" lon="7.759664">
        <ele>330.519871</ele>
        <time>2021-11-14T17:50:56.440Z</time>
      </trkpt>
      <trkpt lat="47.473929" lon="7.759701">
        <ele>330.359083</ele>
        <time>2021-11-14T17:50:57.467Z</time>
      </trkpt>
      <trkpt lat="47.473985" lon="7.759729">
        <ele>330.252962</ele>
        <time>2021-11-14T17:50:58.068Z</time>
      </trkpt>
      <trkpt lat="47.474199" lon="7.759893">
        <ele>329.820293</ele>
        <time>2021-11-14T17:51:00.805Z</time>
      </trkpt>
      <trkpt lat="47.474306" lon="7.759972">
        <ele>329.605609</ele>
        <time>2021-11-14T17:51:02.153Z</time>
      </trkpt>
      <trkpt lat="47.474320" lon="7.759982">
        <ele>329.577699</ele>
        <time>2021-11-14T17:51:02.310Z</time>
      </trkpt>
      <trkpt lat="47.474441" lon="7.760070">
        <ele>329.335645</ele>
        <time>2021-11-14T17:51:03.958Z</time>
      </trkpt>
      <trkpt lat="47.474480" lon="7.760098">
        <ele>329.257822</ele>
        <time>2021-11-14T17:51:04.465Z</time>
      </trkpt>
      <trkpt lat="47.474806" lon="7.760337">
        <ele>328.604652</ele>
        <time>2021-11-14T17:51:08.858Z</time>
      </trkpt>
      <trkpt lat="47.474882" lon="7.760143">
        <ele>328.332562</ele>
        <time>2021-11-14T17:51:10.727Z</time>
      </trkpt>
      <trkpt lat="47.474883" lon="7.760139">
        <ele>328.327387</ele>
        <time>2021-11-14T17:51:10.751Z</time>
      </trkpt>
      <trkpt lat="47.475348" lon="7.758845">
        <ele>327.540529</ele>
        <time>2021-11-14T17:51:23.283Z</time>
      </trkpt>
      <trkpt lat="47.475392" lon="7.758644">
        <ele>327.436089</ele>
        <time>2021-11-14T17:51:25.042Z</time>
      </trkpt>
      <trkpt lat="47.475409" lon="7.758564">
        <ele>327.394635</ele>
        <time>2021-11-14T17:51:25.820Z</time>
      </trkpt>
      <trkpt lat="47.475449" lon="7.758380">
        <ele>327.299091</ele>
        <time>2021-11-14T17:51:27.571Z</time>
      </trkpt>
      <trkpt lat="47.475488" lon="7.758203">
        <ele>327.207064</ele>
        <time>2021-11-14T17:51:29.093Z</time>
      </trkpt>
      <trkpt lat="47.475520" lon="7.758077">
        <ele>327.140528</ele>
        <time>2021-11-14T17:51:30.289Z</time>
      </trkpt>
      <trkpt lat="47.475557" lon="7.757925">
        <ele>327.060667</ele>
        <time>2021-11-14T17:51:31.788Z</time>
      </trkpt>
      <trkpt lat="47.475603" lon="7.757741">
        <ele>326.963689</ele>
        <time>2021-11-14T17:51:33.534Z</time>
      </trkpt>
      <trkpt lat="47.475737" lon="7.757382">
        <ele>326.916349</ele>
        <time>2021-11-14T17:51:37.281Z</time>
      </trkpt>
      <trkpt lat="47.475904" lon="7.756920">
        <ele>326.933631</ele>
        <time>2021-11-14T17:51:41.864Z</time>
      </trkpt>
      <trkpt lat="47.476212" lon="7.756308">
        <ele>326.958801</ele>
        <time>2021-11-14T17:51:49.161Z</time>
      </trkpt>
      <trkpt lat="47.476445" lon="7.755868">
        <ele>326.977239</ele>
        <time>2021-11-14T17:51:55.964Z</time>
      </trkpt>
      <trkpt lat="47.476484" lon="7.755798">
        <ele>326.980231</ele>
        <time>2021-11-14T17:51:57.419Z</time>
      </trkpt>
      <trkpt lat="47.476692" lon="7.755399">
        <ele>327.029861</ele>
        <time>2021-11-14T17:52:03.025Z</time>
      </trkpt>
      <trkpt lat="47.476783" lon="7.755264">
        <ele>327.121129</ele>
        <time>2021-11-14T17:52:05.057Z</time>
      </trkpt>
      <trkpt lat="47.476974" lon="7.755024">
        <ele>327.298604</ele>
        <time>2021-11-14T17:52:09.494Z</time>
      </trkpt>
      <trkpt lat="47.477048" lon="7.754949">
        <ele>327.362130</ele>
        <time>2021-11-14T17:52:10.718Z</time>
      </trkpt>
      <trkpt lat="47.477137" lon="7.754852">
        <ele>327.440419</ele>
        <time>2021-11-14T17:52:12.574Z</time>
      </trkpt>
      <trkpt lat="47.477223" lon="7.754751">
        <ele>327.518183</ele>
        <time>2021-11-14T17:52:13.916Z</time>
      </trkpt>
      <trkpt lat="47.477267" lon="7.754687">
        <ele>327.561883</ele>
        <time>2021-11-14T17:52:15.570Z</time>
      </trkpt>
      <trkpt lat="47.477301" lon="7.754559">
        <ele>327.627716</ele>
        <time>2021-11-14T17:52:17.214Z</time>
      </trkpt>
      <trkpt lat="47.477350" lon="7.754380">
        <ele>327.720161</ele>
        <time>2021-11-14T17:52:19.507Z</time>
      </trkpt>
      <trkpt lat="47.477452" lon="7.754002">
        <ele>327.914991</ele>
        <time>2021-11-14T17:52:24.809Z</time>
      </trkpt>
      <trkpt lat="47.477528" lon="7.753761">
        <ele>328.042292</ele>
        <time>2021-11-14T17:52:27.617Z</time>
      </trkpt>
      <trkpt lat="47.477874" lon="7.753054">
        <ele>328.604402</ele>
        <time>2021-11-14T17:52:39.250Z</time>
      </trkpt>
      <trkpt lat="47.477934" lon="7.752929">
        <ele>328.732983</ele>
        <time>2021-11-14T17:52:40.667Z</time>
      </trkpt>
      <trkpt lat="47.478014" lon="7.752783">
        <ele>328.890613</ele>
        <time>2021-11-14T17:52:43.915Z</time>
      </trkpt>
      <trkpt lat="47.478161" lon="7.752537">
        <ele>329.165996</ele>
        <time>2021-11-14T17:52:46.866Z</time>
      </trkpt>
      <trkpt lat="47.478207" lon="7.752396">
        <ele>329.297303</ele>
        <time>2021-11-14T17:52:48.755Z</time>
      </trkpt>
      <trkpt lat="47.478264" lon="7.751962">
        <ele>329.668089</ele>
        <time>2021-11-14T17:52:52.826Z</time>
      </trkpt>
      <trkpt lat="47.478384" lon="7.751580">
        <ele>330.021370</ele>
        <time>2021-11-14T17:52:59.111Z</time>
      </trkpt>
      <trkpt lat="47.478691" lon="7.751221">
        <ele>330.508448</ele>
        <time>2021-11-14T17:53:08.741Z</time>
      </trkpt>
      <trkpt lat="47.478818" lon="7.751073">
        <ele>330.753963</ele>
        <time>2021-11-14T17:53:12.406Z</time>
      </trkpt>
      <trkpt lat="47.478894" lon="7.750920">
        <ele>330.948860</ele>
        <time>2021-11-14T17:53:16.482Z</time>
      </trkpt>
      <trkpt lat="47.479129" lon="7.750447">
        <ele>331.551423</ele>
        <time>2021-11-14T17:53:28.746Z</time>
      </trkpt>
      <trkpt lat="47.479338" lon="7.750333">
        <ele>331.889712</ele>
        <time>2021-11-14T17:53:32.604Z</time>
      </trkpt>
      <trkpt lat="47.479402" lon="7.750327">
        <ele>331.987103</ele>
        <time>2021-11-14T17:53:33.599Z</time>
      </trkpt>
      <trkpt lat="47.479511" lon="7.750321">
        <ele>332.152755</ele>
        <time>2021-11-14T17:53:38.464Z</time>
      </trkpt>
      <trkpt lat="47.480127" lon="7.750289">
        <ele>333.088848</ele>
        <time>2021-11-14T17:53:46.405Z</time>
      </trkpt>
      <trkpt lat="47.480235" lon="7.750248">
        <ele>333.189160</ele>
        <time>2021-11-14T17:53:50.104Z</time>
      </trkpt>
      <trkpt lat="47.480296" lon="7.750222">
        <ele>333.034046</ele>
        <time>2021-11-14T17:53:50.691Z</time>
      </trkpt>
      <trkpt lat="47.480540" lon="7.750098">
        <ele>332.403648</ele>
        <time>2021-11-14T17:53:54.633Z</time>
      </trkpt>
      <trkpt lat="47.480659" lon="7.750034">
        <ele>332.094261</ele>
        <time>2021-11-14T17:53:55.901Z</time>
      </trkpt>
      <trkpt lat="47.481025" lon="7.749823">
        <ele>331.134460</ele>
        <time>2021-11-14T17:54:00.453Z</time>
      </trkpt>
      <trkpt lat="47.481177" lon="7.749723">
        <ele>330.727991</ele>
        <time>2021-11-14T17:54:02.325Z</time>
      </trkpt>
      <trkpt lat="47.481292" lon="7.749655">
        <ele>330.425383</ele>
        <time>2021-11-14T17:54:03.489Z</time>
      </trkpt>
      <trkpt lat="47.481543" lon="7.749455">
        <ele>329.728791</ele>
        <time>2021-11-14T17:54:06.411Z</time>
      </trkpt>
      <trkpt lat="47.481759" lon="7.749275">
        <ele>329.123050</ele>
        <time>2021-11-14T17:54:08.776Z</time>
      </trkpt>
      <trkpt lat="47.481794" lon="7.749243">
        <ele>329.022519</ele>
        <time>2021-11-14T17:54:09.169Z</time>
      </trkpt>
      <trkpt lat="47.481894" lon="7.749135">
        <ele>328.674194</ele>
        <time>2021-11-14T17:54:10.267Z</time>
      </trkpt>
      <trkpt lat="47.482027" lon="7.748951">
        <ele>328.054716</ele>
        <time>2021-11-14T17:54:12.097Z</time>
      </trkpt>
      <trkpt lat="47.482244" lon="7.748624">
        <ele>327.000961</ele>
        <time>2021-11-14T17:54:15.069Z</time>
      </trkpt>
      <trkpt lat="47.482282" lon="7.748562">
        <ele>326.808509</ele>
        <time>2021-11-14T17:54:15.752Z</time>
      </trkpt>
      <trkpt lat="47.482360" lon="7.748410">
        <ele>326.369678</ele>
        <time>2021-11-14T17:54:16.982Z</time>
      </trkpt>
      <trkpt lat="47.482518" lon="7.748063">
        <ele>325.407621</ele>
        <time>2021-11-14T17:54:19.852Z</time>
      </trkpt>
      <trkpt lat="47.482512" lon="7.748007">
        <ele>325.277252</ele>
        <time>2021-11-14T17:54:20.221Z</time>
      </trkpt>
      <trkpt lat="47.482614" lon="7.747938">
        <ele>324.895674</ele>
        <time>2021-11-14T17:54:21.384Z</time>
      </trkpt>
      <trkpt lat="47.482770" lon="7.747781">
        <ele>324.253790</ele>
        <time>2021-11-14T17:54:23.357Z</time>
      </trkpt>
      <trkpt lat="47.482853" lon="7.747696">
        <ele>323.910366</ele>
        <time>2021-11-14T17:54:24.369Z</time>
      </trkpt>
      <trkpt lat="47.483011" lon="7.747520">
        <ele>323.237512</ele>
        <time>2021-11-14T17:54:26.454Z</time>
      </trkpt>
      <trkpt lat="47.483152" lon="7.747308">
        <ele>322.617777</ele>
        <time>2021-11-14T17:54:28.596Z</time>
      </trkpt>
      <trkpt lat="47.483410" lon="7.746842">
        <ele>321.775765</ele>
        <time>2021-11-14T17:54:32.989Z</time>
      </trkpt>
      <trkpt lat="47.483497" lon="7.746673">
        <ele>321.478822</ele>
        <time>2021-11-14T17:54:34.525Z</time>
      </trkpt>
      <trkpt lat="47.483614" lon="7.746441">
        <ele>321.074212</ele>
        <time>2021-11-14T17:54:36.675Z</time>
      </trkpt>
      <trkpt lat="47.483713" lon="7.746215">
        <ele>320.697770</ele>
        <time>2021-11-14T17:54:38.647Z</time>
      </trkpt>
      <trkpt lat="47.483804" lon="7.745885">
        <ele>320.199601</ele>
        <time>2021-11-14T17:54:41.429Z</time>
      </trkpt>
      <trkpt lat="47.483854" lon="7.745616">
        <ele>319.809653</ele>
        <time>2021-11-14T17:54:43.496Z</time>
      </trkpt>
      <trkpt lat="47.483913" lon="7.745229">
        <ele>319.255143</ele>
        <time>2021-11-14T17:54:46.459Z</time>
      </trkpt>
      <trkpt lat="47.483929" lon="7.745053">
        <ele>319.006930</ele>
        <time>2021-11-14T17:54:47.769Z</time>
      </trkpt>
      <trkpt lat="47.483992" lon="7.744594">
        <ele>318.510983</ele>
        <time>2021-11-14T17:54:51.257Z</time>
      </trkpt>
      <trkpt lat="47.484001" lon="7.744530">
        <ele>318.442096</ele>
        <time>2021-11-14T17:54:51.730Z</time>
      </trkpt>
      <trkpt lat="47.484090" lon="7.744165">
        <ele>318.033194</ele>
        <time>2021-11-14T17:54:54.726Z</time>
      </trkpt>
      <trkpt lat="47.484222" lon="7.743858">
        <ele>317.649755</ele>
        <time>2021-11-14T17:54:57.656Z</time>
      </trkpt>
      <trkpt lat="47.484603" lon="7.743451">
        <ele>316.917019</ele>
        <time>2021-11-14T17:55:03.126Z</time>
      </trkpt>
      <trkpt lat="47.484808" lon="7.743185">
        <ele>316.491869</ele>
        <time>2021-11-14T17:55:06.245Z</time>
      </trkpt>
      <trkpt lat="47.485062" lon="7.742828">
        <ele>315.965280</ele>
        <time>2021-11-14T17:55:10.287Z</time>
      </trkpt>
      <trkpt lat="47.485225" lon="7.742596">
        <ele>315.640700</ele>
        <time>2021-11-14T17:55:12.910Z</time>
      </trkpt>
      <trkpt lat="47.485965" lon="7.741433">
        <ele>314.091466</ele>
        <time>2021-11-14T17:55:25.472Z</time>
      </trkpt>
      <trkpt lat="47.486112" lon="7.741219">
        <ele>313.795521</ele>
        <time>2021-11-14T17:55:27.836Z</time>
      </trkpt>
      <trkpt lat="47.486369" lon="7.741026">
        <ele>313.505373</ele>
        <time>2021-11-14T17:55:31.028Z</time>
      </trkpt>
      <trkpt lat="47.486469" lon="7.741035">
        <ele>313.439004</ele>
        <time>2021-11-14T17:55:32.461Z</time>
      </trkpt>
      <trkpt lat="47.486493" lon="7.740755">
        <ele>313.312651</ele>
        <time>2021-11-14T17:55:34.631Z</time>
      </trkpt>
      <trkpt lat="47.486498" lon="7.740674">
        <ele>313.276238</ele>
        <time>2021-11-14T17:55:35.205Z</time>
      </trkpt>
      <trkpt lat="47.486546" lon="7.739919">
        <ele>312.936753</ele>
        <time>2021-11-14T17:55:42.004Z</time>
      </trkpt>
      <trkpt lat="47.486574" lon="7.739389">
        <ele>312.698763</ele>
        <time>2021-11-14T17:55:46.959Z</time>
      </trkpt>
      <trkpt lat="47.486588" lon="7.739167">
        <ele>312.598948</ele>
        <time>2021-11-14T17:55:49.008Z</time>
      </trkpt>
      <trkpt lat="47.486599" lon="7.738994">
        <ele>312.521159</ele>
        <time>2021-11-14T17:55:50.556Z</time>
      </trkpt>
      <trkpt lat="47.486652" lon="7.738745">
        <ele>312.430300</ele>
        <time>2021-11-14T17:55:53.408Z</time>
      </trkpt>
      <trkpt lat="47.486688" lon="7.738613">
        <ele>312.474265</ele>
        <time>2021-11-14T17:55:54.711Z</time>
      </trkpt>
      <trkpt lat="47.486696" lon="7.738489">
        <ele>312.512738</ele>
        <time>2021-11-14T17:55:55.858Z</time>
      </trkpt>
      <trkpt lat="47.486689" lon="7.738358">
        <ele>312.553325</ele>
        <time>2021-11-14T17:55:57.290Z</time>
      </trkpt>
      <trkpt lat="47.486827" lon="7.738319">
        <ele>312.617539</ele>
        <time>2021-11-14T17:55:59.613Z</time>
      </trkpt>
      <trkpt lat="47.487288" lon="7.738117">
        <ele>312.837284</ele>
        <time>2021-11-14T17:56:07.562Z</time>
      </trkpt>
      <trkpt lat="47.487552" lon="7.737858">
        <ele>312.982055</ele>
        <time>2021-11-14T17:56:13.142Z</time>
      </trkpt>
      <trkpt lat="47.487621" lon="7.737779">
        <ele>313.021929</ele>
        <time>2021-11-14T17:56:14.862Z</time>
      </trkpt>
      <trkpt lat="47.487864" lon="7.737500">
        <ele>313.162502</ele>
        <time>2021-11-14T17:56:20.745Z</time>
      </trkpt>
      <trkpt lat="47.488046" lon="7.737266">
        <ele>313.220041</ele>
        <time>2021-11-14T17:56:25.433Z</time>
      </trkpt>
      <trkpt lat="47.488606" lon="7.735964">
        <ele>312.885317</ele>
        <time>2021-11-14T17:56:41.050Z</time>
      </trkpt>
      <trkpt lat="47.488804" lon="7.735382">
        <ele>312.744000</ele>
        <time>2021-11-14T17:56:46.443Z</time>
      </trkpt>
      <trkpt lat="47.488949" lon="7.734979">
        <ele>312.558415</ele>
        <time>2021-11-14T17:56:50.087Z</time>
      </trkpt>
      <trkpt lat="47.489032" lon="7.734791">
        <ele>312.293581</ele>
        <time>2021-11-14T17:56:51.780Z</time>
      </trkpt>
      <trkpt lat="47.489918" lon="7.732395">
        <ele>309.143859</ele>
        <time>2021-11-14T17:57:12.257Z</time>
      </trkpt>
      <trkpt lat="47.489972" lon="7.732312">
        <ele>309.029369</ele>
        <time>2021-11-14T17:57:13.075Z</time>
      </trkpt>
      <trkpt lat="47.491123" lon="7.730521">
        <ele>306.622778</ele>
        <time>2021-11-14T17:57:32.671Z</time>
      </trkpt>
      <trkpt lat="47.491189" lon="7.730425">
        <ele>306.508592</ele>
        <time>2021-11-14T17:57:33.763Z</time>
      </trkpt>
      <trkpt lat="47.491229" lon="7.730369">
        <ele>306.440651</ele>
        <time>2021-11-14T17:57:34.448Z</time>
      </trkpt>
      <trkpt lat="47.491274" lon="7.730304">
        <ele>306.363062</ele>
        <time>2021-11-14T17:57:35.221Z</time>
      </trkpt>
      <trkpt lat="47.491352" lon="7.730195">
        <ele>306.230692</ele>
        <time>2021-11-14T17:57:36.539Z</time>
      </trkpt>
      <trkpt lat="47.491749" lon="7.729641">
        <ele>305.557411</ele>
        <time>2021-11-14T17:57:42.981Z</time>
      </trkpt>
      <trkpt lat="47.491764" lon="7.729620">
        <ele>305.531933</ele>
        <time>2021-11-14T17:57:43.224Z</time>
      </trkpt>
      <trkpt lat="47.492018" lon="7.729265">
        <ele>305.100854</ele>
        <time>2021-11-14T17:57:47.353Z</time>
      </trkpt>
      <trkpt lat="47.492160" lon="7.729079">
        <ele>304.866871</ele>
        <time>2021-11-14T17:57:49.556Z</time>
      </trkpt>
      <trkpt lat="47.492253" lon="7.728955">
        <ele>304.712416</ele>
        <time>2021-11-14T17:57:51.016Z</time>
      </trkpt>
      <trkpt lat="47.492640" lon="7.728394">
        <ele>304.225720</ele>
        <time>2021-11-14T17:57:57.628Z</time>
      </trkpt>
      <trkpt lat="47.493051" lon="7.727844">
        <ele>303.743343</ele>
        <time>2021-11-14T17:58:04.493Z</time>
      </trkpt>
      <trkpt lat="47.493304" lon="7.727627">
        <ele>303.488778</ele>
        <time>2021-11-14T17:58:08.065Z</time>
      </trkpt>
      <trkpt lat="47.493736" lon="7.727441">
        <ele>303.097105</ele>
        <time>2021-11-14T17:58:13.861Z</time>
      </trkpt>
      <trkpt lat="47.493928" lon="7.727382">
        <ele>303.025640</ele>
        <time>2021-11-14T17:58:16.441Z</time>
      </trkpt>
      <trkpt lat="47.495388" lon="7.727405">
        <ele>302.501380</ele>
        <time>2021-11-14T17:58:37.000Z</time>
      </trkpt>
      <trkpt lat="47.495736" lon="7.727409">
        <ele>302.316707</ele>
        <time>2021-11-14T17:58:41.606Z</time>
      </trkpt>
      <trkpt lat="47.495777" lon="7.727410">
        <ele>302.289949</ele>
        <time>2021-11-14T17:58:42.157Z</time>
      </trkpt>
      <trkpt lat="47.495921" lon="7.727411">
        <ele>302.195983</ele>
        <time>2021-11-14T17:58:44.010Z</time>
      </trkpt>
      <trkpt lat="47.496039" lon="7.727411">
        <ele>302.118984</ele>
        <time>2021-11-14T17:58:45.535Z</time>
      </trkpt>
      <trkpt lat="47.496162" lon="7.727414">
        <ele>302.038712</ele>
        <time>2021-11-14T17:58:47.132Z</time>
      </trkpt>
      <trkpt lat="47.496367" lon="7.727420">
        <ele>301.904916</ele>
        <time>2021-11-14T17:58:49.724Z</time>
      </trkpt>
      <trkpt lat="47.496689" lon="7.727441">
        <ele>301.694596</ele>
        <time>2021-11-14T17:58:53.777Z</time>
      </trkpt>
      <trkpt lat="47.498171" lon="7.727736">
        <ele>300.827224</ele>
        <time>2021-11-14T17:59:12.883Z</time>
      </trkpt>
      <trkpt lat="47.499222" lon="7.727694">
        <ele>300.254153</ele>
        <time>2021-11-14T17:59:27.245Z</time>
      </trkpt>
      <trkpt lat="47.500808" lon="7.727366">
        <ele>299.103445</ele>
        <time>2021-11-14T17:59:48.732Z</time>
      </trkpt>
      <trkpt lat="47.501683" lon="7.727114">
        <ele>297.590895</ele>
        <time>2021-11-14T17:59:58.246Z</time>
      </trkpt>
      <trkpt lat="47.502070" lon="7.727002">
        <ele>296.877972</ele>
        <time>2021-11-14T18:00:02.578Z</time>
      </trkpt>
      <trkpt lat="47.502089" lon="7.726997">
        <ele>296.843083</ele>
        <time>2021-11-14T18:00:02.833Z</time>
      </trkpt>
      <trkpt lat="47.502204" lon="7.726964">
        <ele>296.631298</ele>
        <time>2021-11-14T18:00:04.315Z</time>
      </trkpt>
      <trkpt lat="47.502189" lon="7.726824">
        <ele>296.458168</ele>
        <time>2021-11-14T18:00:05.362Z</time>
      </trkpt>
      <trkpt lat="47.502177" lon="7.726706">
        <ele>296.312421</ele>
        <time>2021-11-14T18:00:06.224Z</time>
      </trkpt>
      <trkpt lat="47.502177" lon="7.726706">
        <ele>296.312421</ele>
        <time>2021-11-14T18:00:06.237Z</time>
      </trkpt>
      <trkpt lat="47.502122" lon="7.726303">
        <ele>295.810261</ele>
        <time>2021-11-14T18:00:09.613Z</time>
      </trkpt>
      <trkpt lat="47.502115" lon="7.726246">
        <ele>295.770213</ele>
        <time>2021-11-14T18:00:10.024Z</time>
      </trkpt>
      <trkpt lat="47.502048" lon="7.725782">
        <ele>295.571426</ele>
        <time>2021-11-14T18:00:13.762Z</time>
      </trkpt>
      <trkpt lat="47.502031" lon="7.725427">
        <ele>295.422323</ele>
        <time>2021-11-14T18:00:16.587Z</time>
      </trkpt>
      <trkpt lat="47.502031" lon="7.725298">
        <ele>295.368278</ele>
        <time>2021-11-14T18:00:17.681Z</time>
      </trkpt>
      <trkpt lat="47.502029" lon="7.725074">
        <ele>295.274424</ele>
        <time>2021-11-14T18:00:19.334Z</time>
      </trkpt>
      <trkpt lat="47.502040" lon="7.724902">
        <ele>295.202041</ele>
        <time>2021-11-14T18:00:21.293Z</time>
      </trkpt>
      <trkpt lat="47.502055" lon="7.724669">
        <ele>295.103982</ele>
        <time>2021-11-14T18:00:23.273Z</time>
      </trkpt>
      <trkpt lat="47.502172" lon="7.724685">
        <ele>295.031114</ele>
        <time>2021-11-14T18:00:25.175Z</time>
      </trkpt>
      <trkpt lat="47.502179" lon="7.724686">
        <ele>295.026753</ele>
        <time>2021-11-14T18:00:25.334Z</time>
      </trkpt>
      <trkpt lat="47.502205" lon="7.724690">
        <ele>295.010542</ele>
        <time>2021-11-14T18:00:25.894Z</time>
      </trkpt>
      <trkpt lat="47.502283" lon="7.724703">
        <ele>294.961864</ele>
        <time>2021-11-14T18:00:27.659Z</time>
      </trkpt>
      <trkpt lat="47.502584" lon="7.724671">
        <ele>294.774716</ele>
        <time>2021-11-14T18:00:34.412Z</time>
      </trkpt>
      <trkpt lat="47.502794" lon="7.724635">
        <ele>294.650319</ele>
        <time>2021-11-14T18:00:39.464Z</time>
      </trkpt>
      <trkpt lat="47.503201" lon="7.724541">
        <ele>294.457870</ele>
        <time>2021-11-14T18:00:48.954Z</time>
      </trkpt>
      <trkpt lat="47.503333" lon="7.724502">
        <ele>294.394983</ele>
        <time>2021-11-14T18:00:51.847Z</time>
      </trkpt>
      <trkpt lat="47.503457" lon="7.724469">
        <ele>294.336122</ele>
        <time>2021-11-14T18:00:54.461Z</time>
      </trkpt>
      <trkpt lat="47.503494" lon="7.724462">
        <ele>294.318695</ele>
        <time>2021-11-14T18:00:55.269Z</time>
      </trkpt>
      <trkpt lat="47.503945" lon="7.724377">
        <ele>294.106289</ele>
        <time>2021-11-14T18:01:03.516Z</time>
      </trkpt>
      <trkpt lat="47.504048" lon="7.724357">
        <ele>294.057756</ele>
        <time>2021-11-14T18:01:05.236Z</time>
      </trkpt>
      <trkpt lat="47.504396" lon="7.724291">
        <ele>293.893843</ele>
        <time>2021-11-14T18:01:11.149Z</time>
      </trkpt>
      <trkpt lat="47.504514" lon="7.724269">
        <ele>293.838278</ele>
        <time>2021-11-14T18:01:13.168Z</time>
      </trkpt>
      <trkpt lat="47.504610" lon="7.724250">
        <ele>293.663409</ele>
        <time>2021-11-14T18:01:14.833Z</time>
      </trkpt>
      <trkpt lat="47.504856" lon="7.724220">
        <ele>293.149035</ele>
        <time>2021-11-14T18:01:18.743Z</time>
      </trkpt>
      <trkpt lat="47.505012" lon="7.724231">
        <ele>292.823579</ele>
        <time>2021-11-14T18:01:21.298Z</time>
      </trkpt>
      <trkpt lat="47.505073" lon="7.724246">
        <ele>292.694720</ele>
        <time>2021-11-14T18:01:22.190Z</time>
      </trkpt>
      <trkpt lat="47.505161" lon="7.724267">
        <ele>292.508970</ele>
        <time>2021-11-14T18:01:23.610Z</time>
      </trkpt>
      <trkpt lat="47.505365" lon="7.724317">
        <ele>292.078068</ele>
        <time>2021-11-14T18:01:26.963Z</time>
      </trkpt>
      <trkpt lat="47.505646" lon="7.724350">
        <ele>291.490655</ele>
        <time>2021-11-14T18:01:31.262Z</time>
      </trkpt>
      <trkpt lat="47.505783" lon="7.724344">
        <ele>291.205037</ele>
        <time>2021-11-14T18:01:33.297Z</time>
      </trkpt>
      <trkpt lat="47.505851" lon="7.724341">
        <ele>291.063269</ele>
        <time>2021-11-14T18:01:34.378Z</time>
      </trkpt>
      <trkpt lat="47.505891" lon="7.724339">
        <ele>290.979866</ele>
        <time>2021-11-14T18:01:34.974Z</time>
      </trkpt>
      <trkpt lat="47.505930" lon="7.724337">
        <ele>290.898545</ele>
        <time>2021-11-14T18:01:35.577Z</time>
      </trkpt>
      <trkpt lat="47.506453" lon="7.724284">
        <ele>289.837473</ele>
        <time>2021-11-14T18:01:43.545Z</time>
      </trkpt>
      <trkpt lat="47.506607" lon="7.724268">
        <ele>289.552285</ele>
        <time>2021-11-14T18:01:45.862Z</time>
      </trkpt>
      <trkpt lat="47.506921" lon="7.724257">
        <ele>288.972063</ele>
        <time>2021-11-14T18:01:50.859Z</time>
      </trkpt>
      <trkpt lat="47.506945" lon="7.724261">
        <ele>288.927448</ele>
        <time>2021-11-14T18:01:51.239Z</time>
      </trkpt>
      <trkpt lat="47.507064" lon="7.724278">
        <ele>288.706595</ele>
        <time>2021-11-14T18:01:53.115Z</time>
      </trkpt>
      <trkpt lat="47.507444" lon="7.724343">
        <ele>287.999942</ele>
        <time>2021-11-14T18:01:59.239Z</time>
      </trkpt>
      <trkpt lat="47.507810" lon="7.724326">
        <ele>287.323489</ele>
        <time>2021-11-14T18:02:05.221Z</time>
      </trkpt>
      <trkpt lat="47.508175" lon="7.724311">
        <ele>286.711256</ele>
        <time>2021-11-14T18:02:11.261Z</time>
      </trkpt>
      <trkpt lat="47.508425" lon="7.724317">
        <ele>286.509362</ele>
        <time>2021-11-14T18:02:15.486Z</time>
      </trkpt>
      <trkpt lat="47.508629" lon="7.724301">
        <ele>286.344407</ele>
        <time>2021-11-14T18:02:18.855Z</time>
      </trkpt>
      <trkpt lat="47.508823" lon="7.724215">
        <ele>286.180885</ele>
        <time>2021-11-14T18:02:21.337Z</time>
      </trkpt>
      <trkpt lat="47.509150" lon="7.724070">
        <ele>285.905253</ele>
        <time>2021-11-14T18:02:25.512Z</time>
      </trkpt>
      <trkpt lat="47.509672" lon="7.723906">
        <ele>285.474367</ele>
        <time>2021-11-14T18:02:32.436Z</time>
      </trkpt>
      <trkpt lat="47.509849" lon="7.723882">
        <ele>285.330847</ele>
        <time>2021-11-14T18:02:36.039Z</time>
      </trkpt>
      <trkpt lat="47.510349" lon="7.724011">
        <ele>285.333976</ele>
        <time>2021-11-14T18:02:47.007Z</time>
      </trkpt>
      <trkpt lat="47.510952" lon="7.724263">
        <ele>285.368941</ele>
        <time>2021-11-14T18:03:01.067Z</time>
      </trkpt>
      <trkpt lat="47.511606" lon="7.724590">
        <ele>285.407463</ele>
        <time>2021-11-14T18:03:13.537Z</time>
      </trkpt>
      <trkpt lat="47.511791" lon="7.724622">
        <ele>285.609788</ele>
        <time>2021-11-14T18:03:17.106Z</time>
      </trkpt>
      <trkpt lat="47.511979" lon="7.724618">
        <ele>285.817670</ele>
        <time>2021-11-14T18:03:20.949Z</time>
      </trkpt>
      <trkpt lat="47.512214" lon="7.724543">
        <ele>286.083463</ele>
        <time>2021-11-14T18:03:27.017Z</time>
      </trkpt>
      <trkpt lat="47.512277" lon="7.724501">
        <ele>286.159854</ele>
        <time>2021-11-14T18:03:28.117Z</time>
      </trkpt>
      <trkpt lat="47.512857" lon="7.723931">
        <ele>286.929541</ele>
        <time>2021-11-14T18:03:48.873Z</time>
      </trkpt>
      <trkpt lat="47.512888" lon="7.724074">
        <ele>287.041695</ele>
        <time>2021-11-14T18:03:50.972Z</time>
      </trkpt>
      <trkpt lat="47.512910" lon="7.724174">
        <ele>287.120234</ele>
        <time>2021-11-14T18:03:52.826Z</time>
      </trkpt>
      <trkpt lat="47.512976" lon="7.724418">
        <ele>287.316516</ele>
        <time>2021-11-14T18:03:56.220Z</time>
      </trkpt>
      <trkpt lat="47.513078" lon="7.724821">
        <ele>287.548486</ele>
        <time>2021-11-14T18:04:02.133Z</time>
      </trkpt>
      <trkpt lat="47.513150" lon="7.725105">
        <ele>287.691178</ele>
        <time>2021-11-14T18:04:04.507Z</time>
      </trkpt>
      <trkpt lat="47.513193" lon="7.725244">
        <ele>287.763094</ele>
        <time>2021-11-14T18:04:07.504Z</time>
      </trkpt>
      <trkpt lat="47.513232" lon="7.725318">
        <ele>287.807246</ele>
        <time>2021-11-14T18:04:08.659Z</time>
      </trkpt>
      <trkpt lat="47.513538" lon="7.725582">
        <ele>288.053899</ele>
        <time>2021-11-14T18:04:15.758Z</time>
      </trkpt>
      <trkpt lat="47.513681" lon="7.725617">
        <ele>288.154841</ele>
        <time>2021-11-14T18:04:18.085Z</time>
      </trkpt>
      <trkpt lat="47.514143" lon="7.725538">
        <ele>288.478736</ele>
        <time>2021-11-14T18:04:27.721Z</time>
      </trkpt>
      <trkpt lat="47.515140" lon="7.725368">
        <ele>287.234832</ele>
        <time>2021-11-14T18:04:39.637Z</time>
      </trkpt>
      <trkpt lat="47.515697" lon="7.725255">
        <ele>286.187618</ele>
        <time>2021-11-14T18:04:45.439Z</time>
      </trkpt>
      <trkpt lat="47.515959" lon="7.725102">
        <ele>285.663006</ele>
        <time>2021-11-14T18:04:48.422Z</time>
      </trkpt>
      <trkpt lat="47.516416" lon="7.724623">
        <ele>284.535069</ele>
        <time>2021-11-14T18:04:54.379Z</time>
      </trkpt>
      <trkpt lat="47.517269" lon="7.723372">
        <ele>282.018630</ele>
        <time>2021-11-14T18:05:07.443Z</time>
      </trkpt>
      <trkpt lat="47.517885" lon="7.722793">
        <ele>280.961598</ele>
        <time>2021-11-14T18:05:15.776Z</time>
      </trkpt>
      <trkpt lat="47.518038" lon="7.722700">
        <ele>280.772453</ele>
        <time>2021-11-14T18:05:17.656Z</time>
      </trkpt>
      <trkpt lat="47.518237" lon="7.722578">
        <ele>280.526134</ele>
        <time>2021-11-14T18:05:20.274Z</time>
      </trkpt>
      <trkpt lat="47.519305" lon="7.722165">
        <ele>279.579911</ele>
        <time>2021-11-14T18:05:33.874Z</time>
      </trkpt>
      <trkpt lat="47.520760" lon="7.721667">
        <ele>280.468305</ele>
        <time>2021-11-14T18:05:57.872Z</time>
      </trkpt>
      <trkpt lat="47.521121" lon="7.721544">
        <ele>281.816870</ele>
        <time>2021-11-14T18:06:07.313Z</time>
      </trkpt>
      <trkpt lat="47.521455" lon="7.721426">
        <ele>283.589552</ele>
        <time>2021-11-14T18:06:18.485Z</time>
      </trkpt>
      <trkpt lat="47.521722" lon="7.721283">
        <ele>285.055336</ele>
        <time>2021-11-14T18:06:28.083Z</time>
      </trkpt>
      <trkpt lat="47.521846" lon="7.721211">
        <ele>285.742944</ele>
        <time>2021-11-14T18:06:34.358Z</time>
      </trkpt>
      <trkpt lat="47.521984" lon="7.721168">
        <ele>286.470975</ele>
        <time>2021-11-14T18:06:39.112Z</time>
      </trkpt>
      <trkpt lat="47.522249" lon="7.721165">
        <ele>287.839087</ele>
        <time>2021-11-14T18:06:51.168Z</time>
      </trkpt>
      <trkpt lat="47.522498" lon="7.721207">
        <ele>289.132870</ele>
        <time>2021-11-14T18:07:01.806Z</time>
      </trkpt>
      <trkpt lat="47.522682" lon="7.721170">
        <ele>290.101743</ele>
        <time>2021-11-14T18:07:09.257Z</time>
      </trkpt>
      <trkpt lat="47.522888" lon="7.721170">
        <ele>291.206478</ele>
        <time>2021-11-14T18:07:18.991Z</time>
      </trkpt>
      <trkpt lat="47.523111" lon="7.721224">
        <ele>292.418265</ele>
        <time>2021-11-14T18:07:27.355Z</time>
      </trkpt>
      <trkpt lat="47.523300" lon="7.721328">
        <ele>293.499547</ele>
        <time>2021-11-14T18:07:36.679Z</time>
      </trkpt>
      <trkpt lat="47.523671" lon="7.721634">
        <ele>295.776937</ele>
        <time>2021-11-14T18:07:52.596Z</time>
      </trkpt>
      <trkpt lat="47.523902" lon="7.721670">
        <ele>297.022583</ele>
        <time>2021-11-14T18:08:01.411Z</time>
      </trkpt>
      <trkpt lat="47.524263" lon="7.721598">
        <ele>298.976031</ele>
        <time>2021-11-14T18:08:12.754Z</time>
      </trkpt>
      <trkpt lat="47.524632" lon="7.721805">
        <ele>299.515219</ele>
        <time>2021-11-14T18:08:22.113Z</time>
      </trkpt>
      <trkpt lat="47.524884" lon="7.722022">
        <ele>299.555942</ele>
        <time>2021-11-14T18:08:27.361Z</time>
      </trkpt>
      <trkpt lat="47.525258" lon="7.722384">
        <ele>299.618359</ele>
        <time>2021-11-14T18:08:33.499Z</time>
      </trkpt>
      <trkpt lat="47.525373" lon="7.722545">
        <ele>299.640467</ele>
        <time>2021-11-14T18:08:35.506Z</time>
      </trkpt>
      <trkpt lat="47.526099" lon="7.723563">
        <ele>299.275756</ele>
        <time>2021-11-14T18:08:46.904Z</time>
      </trkpt>
      <trkpt lat="47.526744" lon="7.724750">
        <ele>298.121003</ele>
        <time>2021-11-14T18:08:58.840Z</time>
      </trkpt>
      <trkpt lat="47.526894" lon="7.725042">
        <ele>297.842934</ele>
        <time>2021-11-14T18:09:01.876Z</time>
      </trkpt>
      <trkpt lat="47.527862" lon="7.727114">
        <ele>298.242355</ele>
        <time>2021-11-14T18:09:30.089Z</time>
      </trkpt>
      <trkpt lat="47.528009" lon="7.727429">
        <ele>298.310198</ele>
        <time>2021-11-14T18:09:34.982Z</time>
      </trkpt>
      <trkpt lat="47.528065" lon="7.727556">
        <ele>298.292012</ele>
        <time>2021-11-14T18:09:36.803Z</time>
      </trkpt>
      <trkpt lat="47.528164" lon="7.727824">
        <ele>298.255387</ele>
        <time>2021-11-14T18:09:40.319Z</time>
      </trkpt>
      <trkpt lat="47.528320" lon="7.728136">
        <ele>298.208841</ele>
        <time>2021-11-14T18:09:44.580Z</time>
      </trkpt>
      <trkpt lat="47.528408" lon="7.728307">
        <ele>298.183064</ele>
        <time>2021-11-14T18:09:46.644Z</time>
      </trkpt>
      <trkpt lat="47.528552" lon="7.728411">
        <ele>298.154617</ele>
        <time>2021-11-14T18:09:48.948Z</time>
      </trkpt>
      <trkpt lat="47.528614" lon="7.728431">
        <ele>298.143350</ele>
        <time>2021-11-14T18:09:49.870Z</time>
      </trkpt>
      <trkpt lat="47.528688" lon="7.728441">
        <ele>298.130156</ele>
        <time>2021-11-14T18:09:50.825Z</time>
      </trkpt>
      <trkpt lat="47.528715" lon="7.728334">
        <ele>298.116461</ele>
        <time>2021-11-14T18:09:51.827Z</time>
      </trkpt>
      <trkpt lat="47.528746" lon="7.728265">
        <ele>298.106524</ele>
        <time>2021-11-14T18:09:52.609Z</time>
      </trkpt>
      <trkpt lat="47.528803" lon="7.728159">
        <ele>298.090278</ele>
        <time>2021-11-14T18:09:53.866Z</time>
      </trkpt>
      <trkpt lat="47.528848" lon="7.728118">
        <ele>298.080897</ele>
        <time>2021-11-14T18:09:54.583Z</time>
      </trkpt>
      <trkpt lat="47.528941" lon="7.728048">
        <ele>298.062374</ele>
        <time>2021-11-14T18:09:55.887Z</time>
      </trkpt>
      <trkpt lat="47.529206" lon="7.727883">
        <ele>298.011331</ele>
        <time>2021-11-14T18:09:59.579Z</time>
      </trkpt>
      <trkpt lat="47.529269" lon="7.727844">
        <ele>297.999207</ele>
        <time>2021-11-14T18:10:00.371Z</time>
      </trkpt>
      <trkpt lat="47.529976" lon="7.727410">
        <ele>297.228279</ele>
        <time>2021-11-14T18:10:09.544Z</time>
      </trkpt>
      <trkpt lat="47.530372" lon="7.727161">
        <ele>296.790960</ele>
        <time>2021-11-14T18:10:14.675Z</time>
      </trkpt>
      <trkpt lat="47.530756" lon="7.726844">
        <ele>296.344074</ele>
        <time>2021-11-14T18:10:20.002Z</time>
      </trkpt>
      <trkpt lat="47.531031" lon="7.726569">
        <ele>296.088537</ele>
        <time>2021-11-14T18:10:24.165Z</time>
      </trkpt>
      <trkpt lat="47.531193" lon="7.726888">
        <ele>295.952348</ele>
        <time>2021-11-14T18:10:27.602Z</time>
      </trkpt>
      <trkpt lat="47.531296" lon="7.727089">
        <ele>295.866255</ele>
        <time>2021-11-14T18:10:29.936Z</time>
      </trkpt>
      <trkpt lat="47.531623" lon="7.727725">
        <ele>295.593508</ele>
        <time>2021-11-14T18:10:37.148Z</time>
      </trkpt>
      <trkpt lat="47.531815" lon="7.728165">
        <ele>295.414764</ele>
        <time>2021-11-14T18:10:41.897Z</time>
      </trkpt>
      <trkpt lat="47.531944" lon="7.728603">
        <ele>295.260064</ele>
        <time>2021-11-14T18:10:46.234Z</time>
      </trkpt>
      <trkpt lat="47.532193" lon="7.730459">
        <ele>295.230536</ele>
        <time>2021-11-14T18:11:04.507Z</time>
      </trkpt>
      <trkpt lat="47.532405" lon="7.731493">
        <ele>295.231362</ele>
        <time>2021-11-14T18:11:16.464Z</time>
      </trkpt>
      <trkpt lat="47.532473" lon="7.731703">
        <ele>295.240042</ele>
        <time>2021-11-14T18:11:18.932Z</time>
      </trkpt>
      <trkpt lat="47.532665" lon="7.732105">
        <ele>295.258393</ele>
        <time>2021-11-14T18:11:24.416Z</time>
      </trkpt>
      <trkpt lat="47.532776" lon="7.732283">
        <ele>295.267423</ele>
        <time>2021-11-14T18:11:26.991Z</time>
      </trkpt>
      <trkpt lat="47.532853" lon="7.732416">
        <ele>295.273952</ele>
        <time>2021-11-14T18:11:28.907Z</time>
      </trkpt>
      <trkpt lat="47.532961" lon="7.732599">
        <ele>295.283009</ele>
        <time>2021-11-14T18:11:31.198Z</time>
      </trkpt>
      <trkpt lat="47.533220" lon="7.733022">
        <ele>295.304290</ele>
        <time>2021-11-14T18:11:36.733Z</time>
      </trkpt>
      <trkpt lat="47.533324" lon="7.733190">
        <ele>295.312784</ele>
        <time>2021-11-14T18:11:39.036Z</time>
      </trkpt>
      <trkpt lat="47.533436" lon="7.733399">
        <ele>295.258509</ele>
        <time>2021-11-14T18:11:41.381Z</time>
      </trkpt>
      <trkpt lat="47.533577" lon="7.733712">
        <ele>295.074858</ele>
        <time>2021-11-14T18:11:44.894Z</time>
      </trkpt>
      <trkpt lat="47.533685" lon="7.734026">
        <ele>294.902862</ele>
        <time>2021-11-14T18:11:48.007Z</time>
      </trkpt>
      <trkpt lat="47.533860" lon="7.734479">
        <ele>294.648130</ele>
        <time>2021-11-14T18:11:52.501Z</time>
      </trkpt>
      <trkpt lat="47.534301" lon="7.735625">
        <ele>294.027304</ele>
        <time>2021-11-14T18:12:03.332Z</time>
      </trkpt>
      <trkpt lat="47.534450" lon="7.736026">
        <ele>294.181412</ele>
        <time>2021-11-14T18:12:07.110Z</time>
      </trkpt>
      <trkpt lat="47.534670" lon="7.736644">
        <ele>294.416636</ele>
        <time>2021-11-14T18:12:13.133Z</time>
      </trkpt>
      <trkpt lat="47.534765" lon="7.736911">
        <ele>294.518250</ele>
        <time>2021-11-14T18:12:15.798Z</time>
      </trkpt>
      <trkpt lat="47.534932" lon="7.737371">
        <ele>294.694096</ele>
        <time>2021-11-14T18:12:21.538Z</time>
      </trkpt>
      <trkpt lat="47.535216" lon="7.738157">
        <ele>295.998794</ele>
        <time>2021-11-14T18:12:35.215Z</time>
      </trkpt>
      <trkpt lat="47.534755" lon="7.738529">
        <ele>299.574414</ele>
        <time>2021-11-14T18:12:55.439Z</time>
      </trkpt>
      <trkpt lat="47.534011" lon="7.739126">
        <ele>305.337675</ele>
        <time>2021-11-14T18:13:37.235Z</time>
      </trkpt>
      <trkpt lat="47.533446" lon="7.739598">
        <ele>309.474822</ele>
        <time>2021-11-14T18:14:09.155Z</time>
      </trkpt>
      <trkpt lat="47.533226" lon="7.739781">
        <ele>311.006960</ele>
        <time>2021-11-14T18:14:20.491Z</time>
      </trkpt>
      <trkpt lat="47.533191" lon="7.739816">
        <ele>311.263391</ele>
        <time>2021-11-14T18:14:23.743Z</time>
      </trkpt>
      <trkpt lat="47.533352" lon="7.740430">
        <ele>313.963788</ele>
        <time>2021-11-14T18:14:42.426Z</time>
      </trkpt>
      <trkpt lat="47.533707" lon="7.742025">
        <ele>318.280360</ele>
        <time>2021-11-14T18:15:14.711Z</time>
      </trkpt>
      <trkpt lat="47.533870" lon="7.743466">
        <ele>318.699315</ele>
        <time>2021-11-14T18:15:26.789Z</time>
      </trkpt>
      <trkpt lat="47.534043" lon="7.744207">
        <ele>318.818202</ele>
        <time>2021-11-14T18:15:33.872Z</time>
      </trkpt>
      <trkpt lat="47.534097" lon="7.744343">
        <ele>318.797833</ele>
        <time>2021-11-14T18:15:35.320Z</time>
      </trkpt>
      <trkpt lat="47.534179" lon="7.744495">
        <ele>318.772714</ele>
        <time>2021-11-14T18:15:37.199Z</time>
      </trkpt>
      <trkpt lat="47.534370" lon="7.744709">
        <ele>318.726919</ele>
        <time>2021-11-14T18:15:40.493Z</time>
      </trkpt>
      <trkpt lat="47.534429" lon="7.744856">
        <ele>318.704841</ele>
        <time>2021-11-14T18:15:42.255Z</time>
      </trkpt>
      <trkpt lat="47.534874" lon="7.746551">
        <ele>318.561857</ele>
        <time>2021-11-14T18:15:59.805Z</time>
      </trkpt>
      <trkpt lat="47.535912" lon="7.749669">
        <ele>319.233084</ele>
        <time>2021-11-14T18:16:38.145Z</time>
      </trkpt>
      <trkpt lat="47.537134" lon="7.752309">
        <ele>320.071900</ele>
        <time>2021-11-14T18:17:12.298Z</time>
      </trkpt>
      <trkpt lat="47.537371" lon="7.752851">
        <ele>320.280060</ele>
        <time>2021-11-14T18:17:18.947Z</time>
      </trkpt>
      <trkpt lat="47.537564" lon="7.753073">
        <ele>320.396736</ele>
        <time>2021-11-14T18:17:22.762Z</time>
      </trkpt>
      <trkpt lat="47.537715" lon="7.753194">
        <ele>320.941355</ele>
        <time>2021-11-14T18:17:26.607Z</time>
      </trkpt>
      <trkpt lat="47.538052" lon="7.753460">
        <ele>322.240607</ele>
        <time>2021-11-14T18:17:35.691Z</time>
      </trkpt>
      <trkpt lat="47.538359" lon="7.753900">
        <ele>323.694061</ele>
        <time>2021-11-14T18:17:46.923Z</time>
      </trkpt>
      <trkpt lat="47.538494" lon="7.754103">
        <ele>324.348586</ele>
        <time>2021-11-14T18:17:52.728Z</time>
      </trkpt>
      <trkpt lat="47.538723" lon="7.754445">
        <ele>325.455017</ele>
        <time>2021-11-14T18:18:02.920Z</time>
      </trkpt>
      <trkpt lat="47.538792" lon="7.754549">
        <ele>325.789951</ele>
        <time>2021-11-14T18:18:06.782Z</time>
      </trkpt>
      <trkpt lat="47.539079" lon="7.754976">
        <ele>327.533193</ele>
        <time>2021-11-14T18:18:22.481Z</time>
      </trkpt>
      <trkpt lat="47.539230" lon="7.755294">
        <ele>328.918960</ele>
        <time>2021-11-14T18:18:33.141Z</time>
      </trkpt>
      <trkpt lat="47.539346" lon="7.755736">
        <ele>330.609257</ele>
        <time>2021-11-14T18:18:46.432Z</time>
      </trkpt>
      <trkpt lat="47.539595" lon="7.757548">
        <ele>336.069245</ele>
        <time>2021-11-14T18:19:30.354Z</time>
      </trkpt>
      <trkpt lat="47.539722" lon="7.758107">
        <ele>336.157846</ele>
        <time>2021-11-14T18:19:39.361Z</time>
      </trkpt>
      <trkpt lat="47.539949" lon="7.758688">
        <ele>336.258687</ele>
        <time>2021-11-14T18:19:46.574Z</time>
      </trkpt>
      <trkpt lat="47.540447" lon="7.759585">
        <ele>336.069382</ele>
        <time>2021-11-14T18:19:55.097Z</time>
      </trkpt>
      <trkpt lat="47.540567" lon="7.759901">
        <ele>334.648589</ele>
        <time>2021-11-14T18:19:57.484Z</time>
      </trkpt>
      <trkpt lat="47.540921" lon="7.761599">
        <ele>327.684563</ele>
        <time>2021-11-14T18:20:08.606Z</time>
      </trkpt>
      <trkpt lat="47.541004" lon="7.762306">
        <ele>324.168771</ele>
        <time>2021-11-14T18:20:12.827Z</time>
      </trkpt>
      <trkpt lat="47.541023" lon="7.762922">
        <ele>320.215280</ele>
        <time>2021-11-14T18:20:16.410Z</time>
      </trkpt>
      <trkpt lat="47.541219" lon="7.763853">
        <ele>313.962826</ele>
        <time>2021-11-14T18:20:22.033Z</time>
      </trkpt>
      <trkpt lat="47.541334" lon="7.764020">
        <ele>312.433361</ele>
        <time>2021-11-14T18:20:23.500Z</time>
      </trkpt>
      <trkpt lat="47.541377" lon="7.764045">
        <ele>311.994647</ele>
        <time>2021-11-14T18:20:23.873Z</time>
      </trkpt>
      <trkpt lat="47.541364" lon="7.764150">
        <ele>311.310235</ele>
        <time>2021-11-14T18:20:24.484Z</time>
      </trkpt>
      <trkpt lat="47.541443" lon="7.764512">
        <ele>308.881784</ele>
        <time>2021-11-14T18:20:26.795Z</time>
      </trkpt>
      <trkpt lat="47.541552" lon="7.764869">
        <ele>307.431571</ele>
        <time>2021-11-14T18:20:29.088Z</time>
      </trkpt>
      <trkpt lat="47.541697" lon="7.765479">
        <ele>305.037934</ele>
        <time>2021-11-14T18:20:32.971Z</time>
      </trkpt>
      <trkpt lat="47.542317" lon="7.768533">
        <ele>296.885321</ele>
        <time>2021-11-14T18:20:54.444Z</time>
      </trkpt>
      <trkpt lat="47.542450" lon="7.769311">
        <ele>295.784616</ele>
        <time>2021-11-14T18:21:02.274Z</time>
      </trkpt>
      <trkpt lat="47.542720" lon="7.770771">
        <ele>295.713968</ele>
        <time>2021-11-14T18:21:18.857Z</time>
      </trkpt>
      <trkpt lat="47.542788" lon="7.771172">
        <ele>295.827124</ele>
        <time>2021-11-14T18:21:23.755Z</time>
      </trkpt>
      <trkpt lat="47.542886" lon="7.771752">
        <ele>295.990756</ele>
        <time>2021-11-14T18:21:30.755Z</time>
      </trkpt>
      <trkpt lat="47.543108" lon="7.773069">
        <ele>296.185368</ele>
        <time>2021-11-14T18:21:45.730Z</time>
      </trkpt>
      <trkpt lat="47.543145" lon="7.773277">
        <ele>296.203027</ele>
        <time>2021-11-14T18:21:47.860Z</time>
      </trkpt>
      <trkpt lat="47.543350" lon="7.774507">
        <ele>296.307039</ele>
        <time>2021-11-14T18:22:00.161Z</time>
      </trkpt>
      <trkpt lat="47.543402" lon="7.775016">
        <ele>296.464680</ele>
        <time>2021-11-14T18:22:05.211Z</time>
      </trkpt>
      <trkpt lat="47.543449" lon="7.775478">
        <ele>296.713909</ele>
        <time>2021-11-14T18:22:09.901Z</time>
      </trkpt>
      <trkpt lat="47.543482" lon="7.776095">
        <ele>297.044069</ele>
        <time>2021-11-14T18:22:16.609Z</time>
      </trkpt>
      <trkpt lat="47.543527" lon="7.776532">
        <ele>297.279876</ele>
        <time>2021-11-14T18:22:21.768Z</time>
      </trkpt>
      <trkpt lat="47.543707" lon="7.777394">
        <ele>297.810285</ele>
        <time>2021-11-14T18:22:34.054Z</time>
      </trkpt>
      <trkpt lat="47.543933" lon="7.778374">
        <ele>300.715824</ele>
        <time>2021-11-14T18:22:52.381Z</time>
      </trkpt>
      <trkpt lat="47.544100" lon="7.779438">
        <ele>303.780633</ele>
        <time>2021-11-14T18:23:16.581Z</time>
      </trkpt>
      <trkpt lat="47.544461" lon="7.782254">
        <ele>313.940339</ele>
        <time>2021-11-14T18:24:37.183Z</time>
      </trkpt>
      <trkpt lat="47.544469" lon="7.782455">
        <ele>314.686600</ele>
        <time>2021-11-14T18:24:42.216Z</time>
      </trkpt>
      <trkpt lat="47.544474" lon="7.782623">
        <ele>314.993507</ele>
        <time>2021-11-14T18:24:44.604Z</time>
      </trkpt>
      <trkpt lat="47.544490" lon="7.783060">
        <ele>314.156660</ele>
        <time>2021-11-14T18:24:48.495Z</time>
      </trkpt>
      <trkpt lat="47.544555" lon="7.783372">
        <ele>313.532295</ele>
        <time>2021-11-14T18:24:50.980Z</time>
      </trkpt>
      <trkpt lat="47.544627" lon="7.783499">
        <ele>313.215163</ele>
        <time>2021-11-14T18:24:52.377Z</time>
      </trkpt>
      <trkpt lat="47.544950" lon="7.784008">
        <ele>311.879315</ele>
        <time>2021-11-14T18:24:59.189Z</time>
      </trkpt>
      <trkpt lat="47.545054" lon="7.784227">
        <ele>311.367304</ele>
        <time>2021-11-14T18:25:01.762Z</time>
      </trkpt>
      <trkpt lat="47.545240" lon="7.784746">
        <ele>310.243701</ele>
        <time>2021-11-14T18:25:06.916Z</time>
      </trkpt>
      <trkpt lat="47.545250" lon="7.784778">
        <ele>310.176274</ele>
        <time>2021-11-14T18:25:07.190Z</time>
      </trkpt>
      <trkpt lat="47.545624" lon="7.785548">
        <ele>306.937586</ele>
        <time>2021-11-14T18:25:15.353Z</time>
      </trkpt>
      <trkpt lat="47.545672" lon="7.785654">
        <ele>306.481947</ele>
        <time>2021-11-14T18:25:16.362Z</time>
      </trkpt>
      <trkpt lat="47.545856" lon="7.785973">
        <ele>304.984120</ele>
        <time>2021-11-14T18:25:20.203Z</time>
      </trkpt>
      <trkpt lat="47.546102" lon="7.786217">
        <ele>303.418545</ele>
        <time>2021-11-14T18:25:24.188Z</time>
      </trkpt>
      <trkpt lat="47.546417" lon="7.786331">
        <ele>301.703741</ele>
        <time>2021-11-14T18:25:28.762Z</time>
      </trkpt>
      <trkpt lat="47.546464" lon="7.786335">
        <ele>301.454781</ele>
        <time>2021-11-14T18:25:29.524Z</time>
      </trkpt>
      <trkpt lat="47.546526" lon="7.786353">
        <ele>301.120669</ele>
        <time>2021-11-14T18:25:30.521Z</time>
      </trkpt>
      <trkpt lat="47.546913" lon="7.786470">
        <ele>300.390914</ele>
        <time>2021-11-14T18:25:36.679Z</time>
      </trkpt>
      <trkpt lat="47.546952" lon="7.786540">
        <ele>300.368023</ele>
        <time>2021-11-14T18:25:37.616Z</time>
      </trkpt>
      <trkpt lat="47.546959" lon="7.786598">
        <ele>300.353163</ele>
        <time>2021-11-14T18:25:38.318Z</time>
      </trkpt>
      <trkpt lat="47.546897" lon="7.787133">
        <ele>300.216263</ele>
        <time>2021-11-14T18:25:45.655Z</time>
      </trkpt>
      <trkpt lat="47.546797" lon="7.787941">
        <ele>300.009089</ele>
        <time>2021-11-14T18:25:57.771Z</time>
      </trkpt>
      <trkpt lat="47.546695" lon="7.788763">
        <ele>299.884269</ele>
        <time>2021-11-14T18:26:10.280Z</time>
      </trkpt>
      <trkpt lat="47.546673" lon="7.788921">
        <ele>299.990000</ele>
        <time>2021-11-14T18:26:12.907Z</time>
      </trkpt>
      <trkpt lat="47.546584" lon="7.789579">
        <ele>300.429815</ele>
        <time>2021-11-14T18:26:23.289Z</time>
      </trkpt>
      <trkpt lat="47.546253" lon="7.791998">
        <ele>301.724891</ele>
        <time>2021-11-14T18:27:04.989Z</time>
      </trkpt>
      <trkpt lat="47.546027" lon="7.793254">
        <ele>302.002963</ele>
        <time>2021-11-14T18:27:23.996Z</time>
      </trkpt>
      <trkpt lat="47.545969" lon="7.793663">
        <ele>302.092369</ele>
        <time>2021-11-14T18:27:29.090Z</time>
      </trkpt>
      <trkpt lat="47.545959" lon="7.793829">
        <ele>302.128021</ele>
        <time>2021-11-14T18:27:31.195Z</time>
      </trkpt>
      <trkpt lat="47.545921" lon="7.794468">
        <ele>301.979272</ele>
        <time>2021-11-14T18:27:38.907Z</time>
      </trkpt>
      <trkpt lat="47.545947" lon="7.794710">
        <ele>301.913297</ele>
        <time>2021-11-14T18:27:41.724Z</time>
      </trkpt>
      <trkpt lat="47.546019" lon="7.795020">
        <ele>301.825031</ele>
        <time>2021-11-14T18:27:45.773Z</time>
      </trkpt>
      <trkpt lat="47.546165" lon="7.795511">
        <ele>301.680579</ele>
        <time>2021-11-14T18:27:52.686Z</time>
      </trkpt>
      <trkpt lat="47.546170" lon="7.795612">
        <ele>301.653313</ele>
        <time>2021-11-14T18:27:53.730Z</time>
      </trkpt>
      <trkpt lat="47.546154" lon="7.795747">
        <ele>301.616411</ele>
        <time>2021-11-14T18:27:55.536Z</time>
      </trkpt>
      <trkpt lat="47.546105" lon="7.795928">
        <ele>301.563906</ele>
        <time>2021-11-14T18:27:58.723Z</time>
      </trkpt>
      <trkpt lat="47.546038" lon="7.796107">
        <ele>301.508799</ele>
        <time>2021-11-14T18:28:01.033Z</time>
      </trkpt>
      <trkpt lat="47.545889" lon="7.796500">
        <ele>301.425990</ele>
        <time>2021-11-14T18:28:07.941Z</time>
      </trkpt>
      <trkpt lat="47.545791" lon="7.796742">
        <ele>301.436749</ele>
        <time>2021-11-14T18:28:11.460Z</time>
      </trkpt>
      <trkpt lat="47.545788" lon="7.796748">
        <ele>301.437034</ele>
        <time>2021-11-14T18:28:11.616Z</time>
      </trkpt>
      <trkpt lat="47.545728" lon="7.796950">
        <ele>301.445447</ele>
        <time>2021-11-14T18:28:14.937Z</time>
      </trkpt>
      <trkpt lat="47.545689" lon="7.797076">
        <ele>301.450732</ele>
        <time>2021-11-14T18:28:16.388Z</time>
      </trkpt>
      <trkpt lat="47.545670" lon="7.797142">
        <ele>301.453467</ele>
        <time>2021-11-14T18:28:17.433Z</time>
      </trkpt>
      <trkpt lat="47.545645" lon="7.797258">
        <ele>301.458109</ele>
        <time>2021-11-14T18:28:19.238Z</time>
      </trkpt>
      <trkpt lat="47.545637" lon="7.797310">
        <ele>301.460143</ele>
        <time>2021-11-14T18:28:20.585Z</time>
      </trkpt>
      <trkpt lat="47.545558" lon="7.798144">
        <ele>301.492249</ele>
        <time>2021-11-14T18:28:31.834Z</time>
      </trkpt>
      <trkpt lat="47.545511" lon="7.798680">
        <ele>301.512855</ele>
        <time>2021-11-14T18:28:39.902Z</time>
      </trkpt>
      <trkpt lat="47.545581" lon="7.798713">
        <ele>301.517004</ele>
        <time>2021-11-14T18:28:41.389Z</time>
      </trkpt>
      <trkpt lat="47.545731" lon="7.798810">
        <ele>301.493106</ele>
        <time>2021-11-14T18:28:45.452Z</time>
      </trkpt>
      <trkpt lat="47.545807" lon="7.798846">
        <ele>301.454364</ele>
        <time>2021-11-14T18:28:46.790Z</time>
      </trkpt>
      <trkpt lat="47.546418" lon="7.798980">
        <ele>301.154463</ele>
        <time>2021-11-14T18:28:58.845Z</time>
      </trkpt>
      <trkpt lat="47.547540" lon="7.799538">
        <ele>300.615120</ele>
        <time>2021-11-14T18:29:19.486Z</time>
      </trkpt>
      <trkpt lat="47.547912" lon="7.799646">
        <ele>300.524357</ele>
        <time>2021-11-14T18:29:26.866Z</time>
      </trkpt>
      <trkpt lat="47.548459" lon="7.799691">
        <ele>300.393187</ele>
        <time>2021-11-14T18:29:37.804Z</time>
      </trkpt>
      <trkpt lat="47.548535" lon="7.799720">
        <ele>300.374396</ele>
        <time>2021-11-14T18:29:39.324Z</time>
      </trkpt>
      <trkpt lat="47.548514" lon="7.799795">
        <ele>300.361274</ele>
        <time>2021-11-14T18:29:40.388Z</time>
      </trkpt>
      <trkpt lat="47.548519" lon="7.799896">
        <ele>300.344908</ele>
        <time>2021-11-14T18:29:41.743Z</time>
      </trkpt>
      <trkpt lat="47.548545" lon="7.800404">
        <ele>300.262575</ele>
        <time>2021-11-14T18:29:48.534Z</time>
      </trkpt>
      <trkpt lat="47.548560" lon="7.800672">
        <ele>300.219116</ele>
        <time>2021-11-14T18:29:52.225Z</time>
      </trkpt>
      <trkpt lat="47.548569" lon="7.800838">
        <ele>300.203718</ele>
        <time>2021-11-14T18:29:54.487Z</time>
      </trkpt>
      <trkpt lat="47.548576" lon="7.800968">
        <ele>300.191760</ele>
        <time>2021-11-14T18:29:56.245Z</time>
      </trkpt>
      <trkpt lat="47.548596" lon="7.801213">
        <ele>300.169131</ele>
        <time>2021-11-14T18:29:59.623Z</time>
      </trkpt>
      <trkpt lat="47.548607" lon="7.801690">
        <ele>300.125367</ele>
        <time>2021-11-14T18:30:06.123Z</time>
      </trkpt>
      <trkpt lat="47.548626" lon="7.802129">
        <ele>300.085030</ele>
        <time>2021-11-14T18:30:12.043Z</time>
      </trkpt>
      <trkpt lat="47.548746" lon="7.802147">
        <ele>300.068645</ele>
        <time>2021-11-14T18:30:14.458Z</time>
      </trkpt>
      <trkpt lat="47.548827" lon="7.802160">
        <ele>300.057576</ele>
        <time>2021-11-14T18:30:16.074Z</time>
      </trkpt>
      <trkpt lat="47.548877" lon="7.802168">
        <ele>300.050744</ele>
        <time>2021-11-14T18:30:17.038Z</time>
      </trkpt>
      <trkpt lat="47.549410" lon="7.802226">
        <ele>299.978140</ele>
        <time>2021-11-14T18:30:27.451Z</time>
      </trkpt>
      <trkpt lat="47.549481" lon="7.802234">
        <ele>299.959344</ele>
        <time>2021-11-14T18:30:28.792Z</time>
      </trkpt>
      <trkpt lat="47.549879" lon="7.802247">
        <ele>299.823119</ele>
        <time>2021-11-14T18:30:36.265Z</time>
      </trkpt>
      <trkpt lat="47.550146" lon="7.802262">
        <ele>299.731689</ele>
        <time>2021-11-14T18:30:41.328Z</time>
      </trkpt>
      <trkpt lat="47.550134" lon="7.803051">
        <ele>299.549416</ele>
        <time>2021-11-14T18:30:51.553Z</time>
      </trkpt>
      <trkpt lat="47.550196" lon="7.803120">
        <ele>299.522882</ele>
        <time>2021-11-14T18:30:53.012Z</time>
      </trkpt>
      <trkpt lat="47.550981" lon="7.803132">
        <ele>299.429939</ele>
        <time>2021-11-14T18:31:07.658Z</time>
      </trkpt>
      <trkpt lat="47.551163" lon="7.803129">
        <ele>299.472121</ele>
        <time>2021-11-14T18:31:11.062Z</time>
      </trkpt>
      <trkpt lat="47.551598" lon="7.803160">
        <ele>299.573052</ele>
        <time>2021-11-14T18:31:19.654Z</time>
      </trkpt>
      <trkpt lat="47.551666" lon="7.803144">
        <ele>299.589008</ele>
        <time>2021-11-14T18:31:24.399Z</time>
      </trkpt>
      <trkpt lat="47.551732" lon="7.803125">
        <ele>299.604590</ele>
        <time>2021-11-14T18:31:29.066Z</time>
      </trkpt>
      <trkpt lat="47.551744" lon="7.803277">
        <ele>299.628528</ele>
        <time>2021-11-14T18:31:30.760Z</time>
      </trkpt>
      <trkpt lat="47.551751" lon="7.803369">
        <ele>299.643010</ele>
        <time>2021-11-14T18:31:31.833Z</time>
      </trkpt>
      <trkpt lat="47.551692" lon="7.803510">
        <ele>299.668959</ele>
        <time>2021-11-14T18:31:34.428Z</time>
      </trkpt>
      <trkpt lat="47.551741" lon="7.804294">
        <ele>299.824950</ele>
        <time>2021-11-14T18:31:47.445Z</time>
      </trkpt>
      <trkpt lat="47.551744" lon="7.804473">
        <ele>299.909470</ele>
        <time>2021-11-14T18:31:49.965Z</time>
      </trkpt>
      <trkpt lat="47.551731" lon="7.804667">
        <ele>300.001494</ele>
        <time>2021-11-14T18:31:53.945Z</time>
      </trkpt>
      <trkpt lat="47.551709" lon="7.805000">
        <ele>300.159431</ele>
        <time>2021-11-14T18:31:58.437Z</time>
      </trkpt>
      <trkpt lat="47.551681" lon="7.805477">
        <ele>300.385440</ele>
        <time>2021-11-14T18:32:06.173Z</time>
      </trkpt>
      <trkpt lat="47.551671" lon="7.806117">
        <ele>300.687620</ele>
        <time>2021-11-14T18:32:16.262Z</time>
      </trkpt>
      <trkpt lat="47.551651" lon="7.806246">
        <ele>300.750098</ele>
        <time>2021-11-14T18:32:19.164Z</time>
      </trkpt>
      <trkpt lat="47.551895" lon="7.806278">
        <ele>300.921414</ele>
        <time>2021-11-14T18:32:22.690Z</time>
      </trkpt>
      <trkpt lat="47.552015" lon="7.806307">
        <ele>301.006449</ele>
        <time>2021-11-14T18:32:25.561Z</time>
      </trkpt>
      <trkpt lat="47.552068" lon="7.806445">
        <ele>301.009731</ele>
        <time>2021-11-14T18:32:27.018Z</time>
      </trkpt>
      <trkpt lat="47.552398" lon="7.808880">
        <ele>300.417600</ele>
        <time>2021-11-14T18:32:49.160Z</time>
      </trkpt>
      <trkpt lat="47.552566" lon="7.810386">
        <ele>299.737380</ele>
        <time>2021-11-14T18:33:02.172Z</time>
      </trkpt>
      <trkpt lat="47.552711" lon="7.812955">
        <ele>298.597435</ele>
        <time>2021-11-14T18:33:24.780Z</time>
      </trkpt>
      <trkpt lat="47.552844" lon="7.816432">
        <ele>297.405562</ele>
        <time>2021-11-14T18:33:55.272Z</time>
      </trkpt>
      <trkpt lat="47.552948" lon="7.819358">
        <ele>297.761426</ele>
        <time>2021-11-14T18:34:26.495Z</time>
      </trkpt>
      <trkpt lat="47.552921" lon="7.820051">
        <ele>298.036192</ele>
        <time>2021-11-14T18:34:34.744Z</time>
      </trkpt>
      <trkpt lat="47.552896" lon="7.820699">
        <ele>298.352278</ele>
        <time>2021-11-14T18:34:42.580Z</time>
      </trkpt>
      <trkpt lat="47.552567" lon="7.824508">
        <ele>300.245380</ele>
        <time>2021-11-14T18:35:29.072Z</time>
      </trkpt>
      <trkpt lat="47.552491" lon="7.827227">
        <ele>301.621032</ele>
        <time>2021-11-14T18:36:00.812Z</time>
      </trkpt>
      <trkpt lat="47.552515" lon="7.828094">
        <ele>302.443074</ele>
        <time>2021-11-14T18:36:12.521Z</time>
      </trkpt>
      <trkpt lat="47.552477" lon="7.828294">
        <ele>302.691783</ele>
        <time>2021-11-14T18:36:15.139Z</time>
      </trkpt>
      <trkpt lat="47.552421" lon="7.828481">
        <ele>302.936670</ele>
        <time>2021-11-14T18:36:18.070Z</time>
      </trkpt>
      <trkpt lat="47.552404" lon="7.828582">
        <ele>303.061271</ele>
        <time>2021-11-14T18:36:19.754Z</time>
      </trkpt>
      <trkpt lat="47.552416" lon="7.828822">
        <ele>303.349343</ele>
        <time>2021-11-14T18:36:22.988Z</time>
      </trkpt>
      <trkpt lat="47.552554" lon="7.829266">
        <ele>303.934466</ele>
        <time>2021-11-14T18:36:30.340Z</time>
      </trkpt>
      <trkpt lat="47.552645" lon="7.830686">
        <ele>306.074103</ele>
        <time>2021-11-14T18:36:53.646Z</time>
      </trkpt>
      <trkpt lat="47.552690" lon="7.832598">
        <ele>309.837820</ele>
        <time>2021-11-14T18:37:29.123Z</time>
      </trkpt>
      <trkpt lat="47.552616" lon="7.832891">
        <ele>310.431676</ele>
        <time>2021-11-14T18:37:34.487Z</time>
      </trkpt>
      <trkpt lat="47.552556" lon="7.832977">
        <ele>310.653145</ele>
        <time>2021-11-14T18:37:37.218Z</time>
      </trkpt>
      <trkpt lat="47.552511" lon="7.833072">
        <ele>310.860957</ele>
        <time>2021-11-14T18:37:39.244Z</time>
      </trkpt>
      <trkpt lat="47.552467" lon="7.833198">
        <ele>311.114971</ele>
        <time>2021-11-14T18:37:41.645Z</time>
      </trkpt>
      <trkpt lat="47.552452" lon="7.833284">
        <ele>311.274015</ele>
        <time>2021-11-14T18:37:43.256Z</time>
      </trkpt>
      <trkpt lat="47.552696" lon="7.833789">
        <ele>312.386047</ele>
        <time>2021-11-14T18:37:54.288Z</time>
      </trkpt>
      <trkpt lat="47.552700" lon="7.833938">
        <ele>312.653044</ele>
        <time>2021-11-14T18:37:57.232Z</time>
      </trkpt>
      <trkpt lat="47.552714" lon="7.835010">
        <ele>314.572827</ele>
        <time>2021-11-14T18:38:15.709Z</time>
      </trkpt>
      <trkpt lat="47.552719" lon="7.836790">
        <ele>316.655917</ele>
        <time>2021-11-14T18:38:40.841Z</time>
      </trkpt>
      <trkpt lat="47.552697" lon="7.838068">
        <ele>318.030409</ele>
        <time>2021-11-14T18:38:58.626Z</time>
      </trkpt>
      <trkpt lat="47.552736" lon="7.838578">
        <ele>318.571494</ele>
        <time>2021-11-14T18:39:05.761Z</time>
      </trkpt>
      <trkpt lat="47.552800" lon="7.838997">
        <ele>319.024377</ele>
        <time>2021-11-14T18:39:11.613Z</time>
      </trkpt>
      <trkpt lat="47.552802" lon="7.839009">
        <ele>319.037408</ele>
        <time>2021-11-14T18:39:11.980Z</time>
      </trkpt>
      <trkpt lat="47.552939" lon="7.839526">
        <ele>319.622936</ele>
        <time>2021-11-14T18:39:19.770Z</time>
      </trkpt>
      <trkpt lat="47.553231" lon="7.841529">
        <ele>321.683465</ele>
        <time>2021-11-14T18:39:49.900Z</time>
      </trkpt>
      <trkpt lat="47.553216" lon="7.841849">
        <ele>321.991390</ele>
        <time>2021-11-14T18:39:54.424Z</time>
      </trkpt>
      <trkpt lat="47.553123" lon="7.842222">
        <ele>322.373106</ele>
        <time>2021-11-14T18:39:59.654Z</time>
      </trkpt>
      <trkpt lat="47.553133" lon="7.842431">
        <ele>322.574240</ele>
        <time>2021-11-14T18:40:02.783Z</time>
      </trkpt>
      <trkpt lat="47.552833" lon="7.842495">
        <ele>323.005346</ele>
        <time>2021-11-14T18:40:10.092Z</time>
      </trkpt>
      <trkpt lat="47.552380" lon="7.842592">
        <ele>323.462642</ele>
        <time>2021-11-14T18:40:21.140Z</time>
      </trkpt>
      <trkpt lat="47.551922" lon="7.842704">
        <ele>323.825748</ele>
        <time>2021-11-14T18:40:31.707Z</time>
      </trkpt>
      <trkpt lat="47.551668" lon="7.842770">
        <ele>324.027465</ele>
        <time>2021-11-14T18:40:37.665Z</time>
      </trkpt>
      <trkpt lat="47.551454" lon="7.842815">
        <ele>324.196539</ele>
        <time>2021-11-14T18:40:42.352Z</time>
      </trkpt>
      <trkpt lat="47.551344" lon="7.844621">
        <ele>325.395811</ele>
        <time>2021-11-14T18:41:04.867Z</time>
      </trkpt>
      <trkpt lat="47.551205" lon="7.846694">
        <ele>327.119691</ele>
        <time>2021-11-14T18:41:32.854Z</time>
      </trkpt>
      <trkpt lat="47.551184" lon="7.847206">
        <ele>327.659782</ele>
        <time>2021-11-14T18:41:40.240Z</time>
      </trkpt>
      <trkpt lat="47.551196" lon="7.847517">
        <ele>327.987775</ele>
        <time>2021-11-14T18:41:44.804Z</time>
      </trkpt>
      <trkpt lat="47.551669" lon="7.848083">
        <ele>328.936277</ele>
        <time>2021-11-14T18:41:57.889Z</time>
      </trkpt>
      <trkpt lat="47.551242" lon="7.848702">
        <ele>329.822908</ele>
        <time>2021-11-14T18:42:10.473Z</time>
      </trkpt>
      <trkpt lat="47.550975" lon="7.849066">
        <ele>330.319455</ele>
        <time>2021-11-14T18:42:17.788Z</time>
      </trkpt>
      <trkpt lat="47.550810" lon="7.849346">
        <ele>330.662791</ele>
        <time>2021-11-14T18:42:24.182Z</time>
      </trkpt>
      <trkpt lat="47.550488" lon="7.850081">
        <ele>331.472175</ele>
        <time>2021-11-14T18:42:39.648Z</time>
      </trkpt>
      <trkpt lat="47.550333" lon="7.850434">
        <ele>331.861164</ele>
        <time>2021-11-14T18:42:46.978Z</time>
      </trkpt>
      <trkpt lat="47.550009" lon="7.851173">
        <ele>332.149730</ele>
        <time>2021-11-14T18:43:01.447Z</time>
      </trkpt>
      <trkpt lat="47.549652" lon="7.851969">
        <ele>332.383418</ele>
        <time>2021-11-14T18:43:15.336Z</time>
      </trkpt>
      <trkpt lat="47.549535" lon="7.852225">
        <ele>332.459015</ele>
        <time>2021-11-14T18:43:19.419Z</time>
      </trkpt>
      <trkpt lat="47.549285" lon="7.852784">
        <ele>332.598322</ele>
        <time>2021-11-14T18:43:28.075Z</time>
      </trkpt>
      <trkpt lat="47.549367" lon="7.852879">
        <ele>332.549990</ele>
        <time>2021-11-14T18:43:29.936Z</time>
      </trkpt>
      <trkpt lat="47.549708" lon="7.853279">
        <ele>332.348042</ele>
        <time>2021-11-14T18:43:38.458Z</time>
      </trkpt>
      <trkpt lat="47.550221" lon="7.853833">
        <ele>332.053290</ele>
        <time>2021-11-14T18:43:50.353Z</time>
      </trkpt>
      <trkpt lat="47.549883" lon="7.854434">
        <ele>331.808129</ele>
        <time>2021-11-14T18:43:57.062Z</time>
      </trkpt>
      <trkpt lat="47.549566" lon="7.855225">
        <ele>331.544317</ele>
        <time>2021-11-14T18:44:08.259Z</time>
      </trkpt>
      <trkpt lat="47.549362" lon="7.855774">
        <ele>331.366611</ele>
        <time>2021-11-14T18:44:16.181Z</time>
      </trkpt>
      <trkpt lat="47.548887" lon="7.857308">
        <ele>331.134396</ele>
        <time>2021-11-14T18:44:38.289Z</time>
      </trkpt>
      <trkpt lat="47.548743" lon="7.857692">
        <ele>331.239940</ele>
        <time>2021-11-14T18:44:44.260Z</time>
      </trkpt>
      <trkpt lat="47.548701" lon="7.857893">
        <ele>331.290494</ele>
        <time>2021-11-14T18:44:47.232Z</time>
      </trkpt>
      <trkpt lat="47.548686" lon="7.857973">
        <ele>331.310443</ele>
        <time>2021-11-14T18:44:48.355Z</time>
      </trkpt>
      <trkpt lat="47.548611" lon="7.858381">
        <ele>331.412041</ele>
        <time>2021-11-14T18:44:54.569Z</time>
      </trkpt>
      <trkpt lat="47.548334" lon="7.859801">
        <ele>332.080733</ele>
        <time>2021-11-14T18:45:17.607Z</time>
      </trkpt>
      <trkpt lat="47.548049" lon="7.860929">
        <ele>333.229978</ele>
        <time>2021-11-14T18:45:38.625Z</time>
      </trkpt>
      <trkpt lat="47.547930" lon="7.861711">
        <ele>333.994875</ele>
        <time>2021-11-14T18:45:53.389Z</time>
      </trkpt>
      <trkpt lat="47.547568" lon="7.863151">
        <ele>335.417496</ele>
        <time>2021-11-14T18:46:22.516Z</time>
      </trkpt>
      <trkpt lat="47.547320" lon="7.863864">
        <ele>336.156297</ele>
        <time>2021-11-14T18:46:36.456Z</time>
      </trkpt>
      <trkpt lat="47.546974" lon="7.864423">
        <ele>336.594144</ele>
        <time>2021-11-14T18:46:47.280Z</time>
      </trkpt>
      <trkpt lat="47.546885" lon="7.864500">
        <ele>336.547812</ele>
        <time>2021-11-14T18:46:50.365Z</time>
      </trkpt>
      <trkpt lat="47.546894" lon="7.864837">
        <ele>336.445475</ele>
        <time>2021-11-14T18:46:54.249Z</time>
      </trkpt>
      <trkpt lat="47.546889" lon="7.865225">
        <ele>336.327720</ele>
        <time>2021-11-14T18:46:59.674Z</time>
      </trkpt>
      <trkpt lat="47.546819" lon="7.865489">
        <ele>336.241654</ele>
        <time>2021-11-14T18:47:03.618Z</time>
      </trkpt>
      <trkpt lat="47.546510" lon="7.865766">
        <ele>336.079295</ele>
        <time>2021-11-14T18:47:10.252Z</time>
      </trkpt>
      <trkpt lat="47.546327" lon="7.865959">
        <ele>335.978313</ele>
        <time>2021-11-14T18:47:13.767Z</time>
      </trkpt>
      <trkpt lat="47.546096" lon="7.866147">
        <ele>335.859831</ele>
        <time>2021-11-14T18:47:18.323Z</time>
      </trkpt>
      <trkpt lat="47.545240" lon="7.866887">
        <ele>335.576980</ele>
        <time>2021-11-14T18:47:34.997Z</time>
      </trkpt>
      <trkpt lat="47.545160" lon="7.866985">
        <ele>335.547730</ele>
        <time>2021-11-14T18:47:36.953Z</time>
      </trkpt>
      <trkpt lat="47.545003" lon="7.867278">
        <ele>335.476579</ele>
        <time>2021-11-14T18:47:42.621Z</time>
      </trkpt>
      <trkpt lat="47.544568" lon="7.867693">
        <ele>335.407866</ele>
        <time>2021-11-14T18:47:55.412Z</time>
      </trkpt>
      <trkpt lat="47.544469" lon="7.867776">
        <ele>335.571899</ele>
        <time>2021-11-14T18:47:58.274Z</time>
      </trkpt>
      <trkpt lat="47.544410" lon="7.867825">
        <ele>335.669434</ele>
        <time>2021-11-14T18:48:00.362Z</time>
      </trkpt>
      <trkpt lat="47.544246" lon="7.867967">
        <ele>335.943352</ele>
        <time>2021-11-14T18:48:05.046Z</time>
      </trkpt>
      <trkpt lat="47.544214" lon="7.867988">
        <ele>335.993821</ele>
        <time>2021-11-14T18:48:05.894Z</time>
      </trkpt>
      <trkpt lat="47.543801" lon="7.868269">
        <ele>336.649174</ele>
        <time>2021-11-14T18:48:17.497Z</time>
      </trkpt>
      <trkpt lat="47.543657" lon="7.868359">
        <ele>336.874545</ele>
        <time>2021-11-14T18:48:21.846Z</time>
      </trkpt>
      <trkpt lat="47.543201" lon="7.868657">
        <ele>337.593235</ele>
        <time>2021-11-14T18:48:32.047Z</time>
      </trkpt>
      <trkpt lat="47.543105" lon="7.868711">
        <ele>337.741310</ele>
        <time>2021-11-14T18:48:34.631Z</time>
      </trkpt>
      <trkpt lat="47.543049" lon="7.868759">
        <ele>337.834605</ele>
        <time>2021-11-14T18:48:36.007Z</time>
      </trkpt>
      <trkpt lat="47.542722" lon="7.869201">
        <ele>337.937033</ele>
        <time>2021-11-14T18:48:45.840Z</time>
      </trkpt>
      <trkpt lat="47.542696" lon="7.869257">
        <ele>337.937033</ele>
        <time>2021-11-14T18:48:46.669Z</time>
      </trkpt>
      <trkpt lat="47.542657" lon="7.869354">
        <ele>337.937033</ele>
        <time>2021-11-14T18:48:48.105Z</time>
      </trkpt>
      <trkpt lat="47.542372" lon="7.869746">
        <ele>337.937033</ele>
        <time>2021-11-14T18:48:55.181Z</time>
      </trkpt>
      <trkpt lat="47.542329" lon="7.869820">
        <ele>337.937033</ele>
        <time>2021-11-14T18:48:56.363Z</time>
      </trkpt>
      <trkpt lat="47.542348" lon="7.869983">
        <ele>337.937033</ele>
        <time>2021-11-14T18:48:57.920Z</time>
      </trkpt>
      <trkpt lat="47.542317" lon="7.870012">
        <ele>337.937033</ele>
        <time>2021-11-14T18:48:58.618Z</time>
      </trkpt>
      <trkpt lat="47.542181" lon="7.870131">
        <ele>337.937033</ele>
        <time>2021-11-14T18:49:01.109Z</time>
      </trkpt>
      <trkpt lat="47.542118" lon="7.870135">
        <ele>337.937033</ele>
        <time>2021-11-14T18:49:02.113Z</time>
      </trkpt>
      <trkpt lat="47.542014" lon="7.870126">
        <ele>337.937033</ele>
        <time>2021-11-14T18:49:03.483Z</time>
      </trkpt>
      <trkpt lat="47.541910" lon="7.870106">
        <ele>337.937033</ele>
        <time>2021-11-14T18:49:05.106Z</time>
      </trkpt>
      <trkpt lat="47.541606" lon="7.870424">
        <ele>337.937033</ele>
        <time>2021-11-14T18:49:10.320Z</time>
      </trkpt>
      <trkpt lat="47.541521" lon="7.870517">
        <ele>337.937033</ele>
        <time>2021-11-14T18:49:11.747Z</time>
      </trkpt>
      <trkpt lat="47.541550" lon="7.870601">
        <ele>337.937033</ele>
        <time>2021-11-14T18:49:12.608Z</time>
      </trkpt>
      <trkpt lat="47.541576" lon="7.870664">
        <ele>337.937033</ele>
        <time>2021-11-14T18:49:13.279Z</time>
      </trkpt>
      <trkpt lat="47.541480" lon="7.870737">
        <ele>337.937033</ele>
        <time>2021-11-14T18:49:15.187Z</time>
      </trkpt>
    </trkseg>
  </trk>
</gpx>